<?xml version="1.0" encoding="UTF-8" standalone="no" ?>
<gpx xmlns="http://www.topografix.com/GPX/1/1" xmlns:xsi="http://www.w3.org/2001/XMLSchema-instance" xsi:schemaLocation="http://www.topografix.com/GPX/1/1 http://www.topografix.com/GPX/1/1/gpx.xsd" version="1.1" creator="VisuGPX - https://www.visugpx.com">
  <metadata>
    <name>J18 Jura</name>
    <desc><![CDATA[#jura ]]></desc>
  </metadata>
  <trk>
    <name><![CDATA[J18 Jura_1]]></name>
    <trkseg>
      <trkpt lat="48.35732" lon="5.68856">
        <ele>282.6</ele>
        <time>2022-07-05T06:40:30Z</time>
      </trkpt>
      <trkpt lat="48.35735" lon="5.68858">
        <ele>279.6</ele>
        <time>2022-07-05T06:40:31Z</time>
      </trkpt>
      <trkpt lat="48.35739" lon="5.68859">
        <ele>279.6</ele>
        <time>2022-07-05T06:40:32Z</time>
      </trkpt>
      <trkpt lat="48.35755" lon="5.68865">
        <ele>281.6</ele>
        <time>2022-07-05T06:40:36Z</time>
      </trkpt>
      <trkpt lat="48.35808" lon="5.68889">
        <ele>281</ele>
        <time>2022-07-05T06:40:49Z</time>
      </trkpt>
      <trkpt lat="48.35863" lon="5.68928">
        <ele>280.8</ele>
        <time>2022-07-05T06:41:03Z</time>
      </trkpt>
      <trkpt lat="48.35898" lon="5.68962">
        <ele>279.4</ele>
        <time>2022-07-05T06:41:12Z</time>
      </trkpt>
      <trkpt lat="48.3595" lon="5.69007">
        <ele>280.6</ele>
        <time>2022-07-05T06:41:26Z</time>
      </trkpt>
      <trkpt lat="48.35981" lon="5.69068">
        <ele>278.8</ele>
        <time>2022-07-05T06:41:37Z</time>
      </trkpt>
      <trkpt lat="48.35984" lon="5.69072">
        <ele>279</ele>
        <time>2022-07-05T06:41:38Z</time>
      </trkpt>
      <trkpt lat="48.35987" lon="5.69074">
        <ele>279.2</ele>
        <time>2022-07-05T06:41:39Z</time>
      </trkpt>
      <trkpt lat="48.35991" lon="5.69076">
        <ele>279.2</ele>
        <time>2022-07-05T06:41:40Z</time>
      </trkpt>
      <trkpt lat="48.35995" lon="5.69077">
        <ele>279.2</ele>
        <time>2022-07-05T06:41:41Z</time>
      </trkpt>
      <trkpt lat="48.36" lon="5.69078">
        <ele>279</ele>
        <time>2022-07-05T06:41:42Z</time>
      </trkpt>
      <trkpt lat="48.36004" lon="5.69078">
        <ele>279</ele>
        <time>2022-07-05T06:41:43Z</time>
      </trkpt>
      <trkpt lat="48.36062" lon="5.6909">
        <ele>278.8</ele>
        <time>2022-07-05T06:41:56Z</time>
      </trkpt>
      <trkpt lat="48.361" lon="5.69099">
        <ele>280.4</ele>
        <time>2022-07-05T06:42:06Z</time>
      </trkpt>
      <trkpt lat="48.36154" lon="5.69077">
        <ele>281.8</ele>
        <time>2022-07-05T06:42:24Z</time>
      </trkpt>
      <trkpt lat="48.36192" lon="5.69063">
        <ele>280.2</ele>
        <time>2022-07-05T06:42:33Z</time>
      </trkpt>
      <trkpt lat="48.36195" lon="5.69059">
        <ele>280</ele>
        <time>2022-07-05T06:42:34Z</time>
      </trkpt>
      <trkpt lat="48.36198" lon="5.69055">
        <ele>280</ele>
        <time>2022-07-05T06:42:35Z</time>
      </trkpt>
      <trkpt lat="48.36201" lon="5.69049">
        <ele>279.8</ele>
        <time>2022-07-05T06:42:36Z</time>
      </trkpt>
      <trkpt lat="48.36204" lon="5.69045">
        <ele>279.8</ele>
        <time>2022-07-05T06:42:37Z</time>
      </trkpt>
      <trkpt lat="48.36207" lon="5.6904">
        <ele>279.8</ele>
        <time>2022-07-05T06:42:38Z</time>
      </trkpt>
      <trkpt lat="48.36209" lon="5.69034">
        <ele>279.8</ele>
        <time>2022-07-05T06:42:39Z</time>
      </trkpt>
      <trkpt lat="48.36212" lon="5.69029">
        <ele>279.8</ele>
        <time>2022-07-05T06:42:40Z</time>
      </trkpt>
      <trkpt lat="48.36246" lon="5.68957">
        <ele>278.8</ele>
        <time>2022-07-05T06:42:54Z</time>
      </trkpt>
      <trkpt lat="48.36255" lon="5.68941">
        <ele>278.6</ele>
        <time>2022-07-05T06:42:57Z</time>
      </trkpt>
      <trkpt lat="48.36259" lon="5.68938">
        <ele>278.6</ele>
        <time>2022-07-05T06:42:58Z</time>
      </trkpt>
      <trkpt lat="48.36264" lon="5.68937">
        <ele>278.4</ele>
        <time>2022-07-05T06:42:59Z</time>
      </trkpt>
      <trkpt lat="48.36269" lon="5.68937">
        <ele>278.4</ele>
        <time>2022-07-05T06:43:00Z</time>
      </trkpt>
      <trkpt lat="48.36273" lon="5.68938">
        <ele>278.4</ele>
        <time>2022-07-05T06:43:01Z</time>
      </trkpt>
      <trkpt lat="48.36277" lon="5.68939">
        <ele>278.2</ele>
        <time>2022-07-05T06:43:02Z</time>
      </trkpt>
      <trkpt lat="48.36281" lon="5.6894">
        <ele>278.2</ele>
        <time>2022-07-05T06:43:03Z</time>
      </trkpt>
      <trkpt lat="48.36286" lon="5.68942">
        <ele>278.2</ele>
        <time>2022-07-05T06:43:04Z</time>
      </trkpt>
      <trkpt lat="48.3629" lon="5.68943">
        <ele>278.4</ele>
        <time>2022-07-05T06:43:05Z</time>
      </trkpt>
      <trkpt lat="48.36294" lon="5.68945">
        <ele>278.4</ele>
        <time>2022-07-05T06:43:06Z</time>
      </trkpt>
      <trkpt lat="48.36299" lon="5.68946">
        <ele>278.4</ele>
        <time>2022-07-05T06:43:07Z</time>
      </trkpt>
      <trkpt lat="48.36315" lon="5.68952">
        <ele>278.8</ele>
        <time>2022-07-05T06:43:11Z</time>
      </trkpt>
      <trkpt lat="48.3637" lon="5.68973">
        <ele>279.4</ele>
        <time>2022-07-05T06:43:25Z</time>
      </trkpt>
      <trkpt lat="48.36414" lon="5.68945">
        <ele>278.8</ele>
        <time>2022-07-05T06:43:41Z</time>
      </trkpt>
      <trkpt lat="48.36418" lon="5.68945">
        <ele>278.6</ele>
        <time>2022-07-05T06:43:42Z</time>
      </trkpt>
      <trkpt lat="48.36476" lon="5.68943">
        <ele>278.8</ele>
        <time>2022-07-05T06:43:56Z</time>
      </trkpt>
      <trkpt lat="48.36496" lon="5.68943">
        <ele>278.8</ele>
        <time>2022-07-05T06:44:01Z</time>
      </trkpt>
      <trkpt lat="48.36513" lon="5.68947">
        <ele>278.6</ele>
        <time>2022-07-05T06:44:05Z</time>
      </trkpt>
      <trkpt lat="48.36574" lon="5.68954">
        <ele>278.2</ele>
        <time>2022-07-05T06:44:18Z</time>
      </trkpt>
      <trkpt lat="48.36591" lon="5.68955">
        <ele>278.4</ele>
        <time>2022-07-05T06:44:22Z</time>
      </trkpt>
      <trkpt lat="48.36647" lon="5.68946">
        <ele>280.2</ele>
        <time>2022-07-05T06:44:36Z</time>
      </trkpt>
      <trkpt lat="48.36663" lon="5.68921">
        <ele>280.8</ele>
        <time>2022-07-05T06:44:54Z</time>
      </trkpt>
      <trkpt lat="48.36666" lon="5.68912">
        <ele>280.6</ele>
        <time>2022-07-05T06:45:22Z</time>
      </trkpt>
      <trkpt lat="48.36699" lon="5.68839">
        <ele>280.6</ele>
        <time>2022-07-05T06:45:38Z</time>
      </trkpt>
      <trkpt lat="48.36733" lon="5.68767">
        <ele>281</ele>
        <time>2022-07-05T06:45:54Z</time>
      </trkpt>
      <trkpt lat="48.36759" lon="5.68708">
        <ele>278</ele>
        <time>2022-07-05T06:46:04Z</time>
      </trkpt>
      <trkpt lat="48.36788" lon="5.68623">
        <ele>277</ele>
        <time>2022-07-05T06:46:14Z</time>
      </trkpt>
      <trkpt lat="48.36814" lon="5.6854">
        <ele>276.4</ele>
        <time>2022-07-05T06:46:25Z</time>
      </trkpt>
      <trkpt lat="48.36841" lon="5.68456">
        <ele>276.4</ele>
        <time>2022-07-05T06:46:37Z</time>
      </trkpt>
      <trkpt lat="48.36865" lon="5.68377">
        <ele>278.6</ele>
        <time>2022-07-05T06:46:49Z</time>
      </trkpt>
      <trkpt lat="48.36879" lon="5.68334">
        <ele>279.2</ele>
        <time>2022-07-05T06:46:57Z</time>
      </trkpt>
      <trkpt lat="48.36904" lon="5.6825">
        <ele>279</ele>
        <time>2022-07-05T06:47:10Z</time>
      </trkpt>
      <trkpt lat="48.36931" lon="5.68168">
        <ele>278.8</ele>
        <time>2022-07-05T06:47:22Z</time>
      </trkpt>
      <trkpt lat="48.36956" lon="5.68086">
        <ele>279.2</ele>
        <time>2022-07-05T06:47:34Z</time>
      </trkpt>
      <trkpt lat="48.36967" lon="5.68055">
        <ele>279.2</ele>
        <time>2022-07-05T06:47:39Z</time>
      </trkpt>
      <trkpt lat="48.3697" lon="5.68049">
        <ele>279.4</ele>
        <time>2022-07-05T06:47:40Z</time>
      </trkpt>
      <trkpt lat="48.36973" lon="5.68044">
        <ele>279.4</ele>
        <time>2022-07-05T06:47:41Z</time>
      </trkpt>
      <trkpt lat="48.36977" lon="5.6804">
        <ele>279.4</ele>
        <time>2022-07-05T06:47:42Z</time>
      </trkpt>
      <trkpt lat="48.36981" lon="5.68037">
        <ele>279.6</ele>
        <time>2022-07-05T06:47:43Z</time>
      </trkpt>
      <trkpt lat="48.36986" lon="5.68034">
        <ele>279.6</ele>
        <time>2022-07-05T06:47:44Z</time>
      </trkpt>
      <trkpt lat="48.36991" lon="5.68031">
        <ele>279.6</ele>
        <time>2022-07-05T06:47:45Z</time>
      </trkpt>
      <trkpt lat="48.37048" lon="5.67998">
        <ele>280.4</ele>
        <time>2022-07-05T06:47:58Z</time>
      </trkpt>
      <trkpt lat="48.37102" lon="5.67968">
        <ele>281</ele>
        <time>2022-07-05T06:48:11Z</time>
      </trkpt>
      <trkpt lat="48.37159" lon="5.67937">
        <ele>282.4</ele>
        <time>2022-07-05T06:48:25Z</time>
      </trkpt>
      <trkpt lat="48.37214" lon="5.67906">
        <ele>284.6</ele>
        <time>2022-07-05T06:48:39Z</time>
      </trkpt>
      <trkpt lat="48.37268" lon="5.67875">
        <ele>285.8</ele>
        <time>2022-07-05T06:48:54Z</time>
      </trkpt>
      <trkpt lat="48.37322" lon="5.67843">
        <ele>287.4</ele>
        <time>2022-07-05T06:49:11Z</time>
      </trkpt>
      <trkpt lat="48.37378" lon="5.67812">
        <ele>289.4</ele>
        <time>2022-07-05T06:49:29Z</time>
      </trkpt>
      <trkpt lat="48.3743" lon="5.67782">
        <ele>291.4</ele>
        <time>2022-07-05T06:49:47Z</time>
      </trkpt>
      <trkpt lat="48.37485" lon="5.6775">
        <ele>293.4</ele>
        <time>2022-07-05T06:50:06Z</time>
      </trkpt>
      <trkpt lat="48.37539" lon="5.67721">
        <ele>295.6</ele>
        <time>2022-07-05T06:50:26Z</time>
      </trkpt>
      <trkpt lat="48.37591" lon="5.67689">
        <ele>297.8</ele>
        <time>2022-07-05T06:50:46Z</time>
      </trkpt>
      <trkpt lat="48.37636" lon="5.67638">
        <ele>299.2</ele>
        <time>2022-07-05T06:51:04Z</time>
      </trkpt>
      <trkpt lat="48.37689" lon="5.67603">
        <ele>299.4</ele>
        <time>2022-07-05T06:51:20Z</time>
      </trkpt>
      <trkpt lat="48.37742" lon="5.67566">
        <ele>299.8</ele>
        <time>2022-07-05T06:51:35Z</time>
      </trkpt>
      <trkpt lat="48.3779" lon="5.67518">
        <ele>301.6</ele>
        <time>2022-07-05T06:51:51Z</time>
      </trkpt>
      <trkpt lat="48.37816" lon="5.67463">
        <ele>301.4</ele>
        <time>2022-07-05T06:52:04Z</time>
      </trkpt>
      <trkpt lat="48.37855" lon="5.67422">
        <ele>300.6</ele>
        <time>2022-07-05T06:52:21Z</time>
      </trkpt>
      <trkpt lat="48.37914" lon="5.6742">
        <ele>301</ele>
        <time>2022-07-05T06:52:36Z</time>
      </trkpt>
      <trkpt lat="48.37973" lon="5.67401">
        <ele>301</ele>
        <time>2022-07-05T06:52:51Z</time>
      </trkpt>
      <trkpt lat="48.38026" lon="5.67362">
        <ele>300.8</ele>
        <time>2022-07-05T06:53:07Z</time>
      </trkpt>
      <trkpt lat="48.38079" lon="5.67328">
        <ele>300</ele>
        <time>2022-07-05T06:53:22Z</time>
      </trkpt>
      <trkpt lat="48.38132" lon="5.67289">
        <ele>299.4</ele>
        <time>2022-07-05T06:53:38Z</time>
      </trkpt>
      <trkpt lat="48.38184" lon="5.67253">
        <ele>298.2</ele>
        <time>2022-07-05T06:53:57Z</time>
      </trkpt>
      <trkpt lat="48.38243" lon="5.67212">
        <ele>297.8</ele>
        <time>2022-07-05T06:54:13Z</time>
      </trkpt>
      <trkpt lat="48.38298" lon="5.67166">
        <ele>297.6</ele>
        <time>2022-07-05T06:54:28Z</time>
      </trkpt>
      <trkpt lat="48.38351" lon="5.67129">
        <ele>297.6</ele>
        <time>2022-07-05T06:54:42Z</time>
      </trkpt>
      <trkpt lat="48.38404" lon="5.67085">
        <ele>297.8</ele>
        <time>2022-07-05T06:54:56Z</time>
      </trkpt>
      <trkpt lat="48.38457" lon="5.67053">
        <ele>297.8</ele>
        <time>2022-07-05T06:55:08Z</time>
      </trkpt>
      <trkpt lat="48.38512" lon="5.67032">
        <ele>297.8</ele>
        <time>2022-07-05T06:55:20Z</time>
      </trkpt>
      <trkpt lat="48.38571" lon="5.67028">
        <ele>297.8</ele>
        <time>2022-07-05T06:55:33Z</time>
      </trkpt>
      <trkpt lat="48.38628" lon="5.67035">
        <ele>297.4</ele>
        <time>2022-07-05T06:55:45Z</time>
      </trkpt>
      <trkpt lat="48.38685" lon="5.67062">
        <ele>297</ele>
        <time>2022-07-05T06:55:58Z</time>
      </trkpt>
      <trkpt lat="48.38705" lon="5.67076">
        <ele>296.4</ele>
        <time>2022-07-05T06:56:03Z</time>
      </trkpt>
      <trkpt lat="48.38762" lon="5.67113">
        <ele>296</ele>
        <time>2022-07-05T06:56:16Z</time>
      </trkpt>
      <trkpt lat="48.38767" lon="5.67116">
        <ele>295.8</ele>
        <time>2022-07-05T06:56:17Z</time>
      </trkpt>
      <trkpt lat="48.38771" lon="5.67119">
        <ele>295.8</ele>
        <time>2022-07-05T06:56:18Z</time>
      </trkpt>
      <trkpt lat="48.38785" lon="5.67129">
        <ele>295.8</ele>
        <time>2022-07-05T06:56:21Z</time>
      </trkpt>
      <trkpt lat="48.38789" lon="5.67132">
        <ele>295.6</ele>
        <time>2022-07-05T06:56:22Z</time>
      </trkpt>
      <trkpt lat="48.38801" lon="5.67144">
        <ele>295.8</ele>
        <time>2022-07-05T06:56:25Z</time>
      </trkpt>
      <trkpt lat="48.38859" lon="5.67181">
        <ele>295.6</ele>
        <time>2022-07-05T06:56:38Z</time>
      </trkpt>
      <trkpt lat="48.38916" lon="5.67206">
        <ele>294.6</ele>
        <time>2022-07-05T06:56:50Z</time>
      </trkpt>
      <trkpt lat="48.38945" lon="5.67212">
        <ele>295.2</ele>
        <time>2022-07-05T06:56:56Z</time>
      </trkpt>
      <trkpt lat="48.38948" lon="5.67213">
        <ele>295.6</ele>
        <time>2022-07-05T06:56:57Z</time>
      </trkpt>
      <trkpt lat="48.38952" lon="5.67214">
        <ele>295.8</ele>
        <time>2022-07-05T06:56:58Z</time>
      </trkpt>
      <trkpt lat="48.39012" lon="5.67215">
        <ele>295</ele>
        <time>2022-07-05T06:57:13Z</time>
      </trkpt>
      <trkpt lat="48.39071" lon="5.67202">
        <ele>296.2</ele>
        <time>2022-07-05T06:57:29Z</time>
      </trkpt>
      <trkpt lat="48.39128" lon="5.67177">
        <ele>296.2</ele>
        <time>2022-07-05T06:57:43Z</time>
      </trkpt>
      <trkpt lat="48.39183" lon="5.67141">
        <ele>295.8</ele>
        <time>2022-07-05T06:57:58Z</time>
      </trkpt>
      <trkpt lat="48.39234" lon="5.67093">
        <ele>295.2</ele>
        <time>2022-07-05T06:58:11Z</time>
      </trkpt>
      <trkpt lat="48.39282" lon="5.67042">
        <ele>294.4</ele>
        <time>2022-07-05T06:58:25Z</time>
      </trkpt>
      <trkpt lat="48.39332" lon="5.66994">
        <ele>294</ele>
        <time>2022-07-05T06:58:41Z</time>
      </trkpt>
      <trkpt lat="48.39343" lon="5.66982">
        <ele>294</ele>
        <time>2022-07-05T06:58:44Z</time>
      </trkpt>
      <trkpt lat="48.39346" lon="5.66978">
        <ele>293.8</ele>
        <time>2022-07-05T06:58:45Z</time>
      </trkpt>
      <trkpt lat="48.39349" lon="5.66974">
        <ele>293.8</ele>
        <time>2022-07-05T06:58:46Z</time>
      </trkpt>
      <trkpt lat="48.39394" lon="5.66917">
        <ele>292.2</ele>
        <time>2022-07-05T06:59:02Z</time>
      </trkpt>
      <trkpt lat="48.39441" lon="5.66863">
        <ele>291.4</ele>
        <time>2022-07-05T06:59:17Z</time>
      </trkpt>
      <trkpt lat="48.39489" lon="5.66809">
        <ele>290.6</ele>
        <time>2022-07-05T06:59:33Z</time>
      </trkpt>
      <trkpt lat="48.39533" lon="5.66747">
        <ele>290.8</ele>
        <time>2022-07-05T06:59:48Z</time>
      </trkpt>
      <trkpt lat="48.39538" lon="5.66734">
        <ele>290.6</ele>
        <time>2022-07-05T06:59:57Z</time>
      </trkpt>
      <trkpt lat="48.39544" lon="5.66721">
        <ele>289.6</ele>
        <time>2022-07-05T07:00:35Z</time>
      </trkpt>
      <trkpt lat="48.39546" lon="5.66719">
        <ele>289.6</ele>
        <time>2022-07-05T07:00:36Z</time>
      </trkpt>
      <trkpt lat="48.39552" lon="5.66716">
        <ele>289</ele>
        <time>2022-07-05T07:00:38Z</time>
      </trkpt>
      <trkpt lat="48.39573" lon="5.66701">
        <ele>285.8</ele>
        <time>2022-07-05T07:00:46Z</time>
      </trkpt>
      <trkpt lat="48.39615" lon="5.66644">
        <ele>285.8</ele>
        <time>2022-07-05T07:01:04Z</time>
      </trkpt>
      <trkpt lat="48.39624" lon="5.66643">
        <ele>285.4</ele>
        <time>2022-07-05T07:01:06Z</time>
      </trkpt>
      <trkpt lat="48.39629" lon="5.66644">
        <ele>285.2</ele>
        <time>2022-07-05T07:01:07Z</time>
      </trkpt>
      <trkpt lat="48.39634" lon="5.66646">
        <ele>285</ele>
        <time>2022-07-05T07:01:08Z</time>
      </trkpt>
      <trkpt lat="48.39639" lon="5.66649">
        <ele>285</ele>
        <time>2022-07-05T07:01:09Z</time>
      </trkpt>
      <trkpt lat="48.39645" lon="5.66654">
        <ele>284.6</ele>
        <time>2022-07-05T07:01:10Z</time>
      </trkpt>
      <trkpt lat="48.39681" lon="5.66682">
        <ele>281.4</ele>
        <time>2022-07-05T07:01:18Z</time>
      </trkpt>
      <trkpt lat="48.39685" lon="5.66685">
        <ele>281.2</ele>
        <time>2022-07-05T07:01:19Z</time>
      </trkpt>
      <trkpt lat="48.39712" lon="5.6668">
        <ele>279.2</ele>
        <time>2022-07-05T07:01:29Z</time>
      </trkpt>
      <trkpt lat="48.39715" lon="5.66679">
        <ele>279</ele>
        <time>2022-07-05T07:01:30Z</time>
      </trkpt>
      <trkpt lat="48.39718" lon="5.6668">
        <ele>279</ele>
        <time>2022-07-05T07:01:31Z</time>
      </trkpt>
      <trkpt lat="48.39721" lon="5.66682">
        <ele>278.8</ele>
        <time>2022-07-05T07:01:32Z</time>
      </trkpt>
      <trkpt lat="48.39724" lon="5.66685">
        <ele>278.8</ele>
        <time>2022-07-05T07:01:33Z</time>
      </trkpt>
      <trkpt lat="48.39726" lon="5.66689">
        <ele>278.6</ele>
        <time>2022-07-05T07:01:34Z</time>
      </trkpt>
      <trkpt lat="48.39729" lon="5.66693">
        <ele>278.6</ele>
        <time>2022-07-05T07:01:35Z</time>
      </trkpt>
      <trkpt lat="48.3973" lon="5.66699">
        <ele>278.4</ele>
        <time>2022-07-05T07:01:36Z</time>
      </trkpt>
      <trkpt lat="48.39731" lon="5.66705">
        <ele>278.4</ele>
        <time>2022-07-05T07:01:37Z</time>
      </trkpt>
      <trkpt lat="48.39731" lon="5.66711">
        <ele>278.2</ele>
        <time>2022-07-05T07:01:38Z</time>
      </trkpt>
      <trkpt lat="48.39731" lon="5.66716">
        <ele>278</ele>
        <time>2022-07-05T07:01:39Z</time>
      </trkpt>
      <trkpt lat="48.3973" lon="5.66722">
        <ele>278</ele>
        <time>2022-07-05T07:01:40Z</time>
      </trkpt>
      <trkpt lat="48.39717" lon="5.6681">
        <ele>277.6</ele>
        <time>2022-07-05T07:01:54Z</time>
      </trkpt>
      <trkpt lat="48.39705" lon="5.66898">
        <ele>277.6</ele>
        <time>2022-07-05T07:02:06Z</time>
      </trkpt>
      <trkpt lat="48.39692" lon="5.66987">
        <ele>277.8</ele>
        <time>2022-07-05T07:02:18Z</time>
      </trkpt>
      <trkpt lat="48.39678" lon="5.67072">
        <ele>278.6</ele>
        <time>2022-07-05T07:02:32Z</time>
      </trkpt>
      <trkpt lat="48.39651" lon="5.67145">
        <ele>281.2</ele>
        <time>2022-07-05T07:02:51Z</time>
      </trkpt>
      <trkpt lat="48.39598" lon="5.67179">
        <ele>282.2</ele>
        <time>2022-07-05T07:03:11Z</time>
      </trkpt>
      <trkpt lat="48.39541" lon="5.67186">
        <ele>283.8</ele>
        <time>2022-07-05T07:03:29Z</time>
      </trkpt>
      <trkpt lat="48.39484" lon="5.67195">
        <ele>284.4</ele>
        <time>2022-07-05T07:03:44Z</time>
      </trkpt>
      <trkpt lat="48.39426" lon="5.67205">
        <ele>286.2</ele>
        <time>2022-07-05T07:04:01Z</time>
      </trkpt>
      <trkpt lat="48.39366" lon="5.67198">
        <ele>286.6</ele>
        <time>2022-07-05T07:04:18Z</time>
      </trkpt>
      <trkpt lat="48.39308" lon="5.67192">
        <ele>285.4</ele>
        <time>2022-07-05T07:04:33Z</time>
      </trkpt>
      <trkpt lat="48.39249" lon="5.67203">
        <ele>288</ele>
        <time>2022-07-05T07:04:52Z</time>
      </trkpt>
      <trkpt lat="48.3921" lon="5.67214">
        <ele>288.8</ele>
        <time>2022-07-05T07:05:08Z</time>
      </trkpt>
      <trkpt lat="48.39209" lon="5.67217">
        <ele>289</ele>
        <time>2022-07-05T07:05:09Z</time>
      </trkpt>
      <trkpt lat="48.39219" lon="5.67298">
        <ele>285.6</ele>
        <time>2022-07-05T07:05:21Z</time>
      </trkpt>
      <trkpt lat="48.39232" lon="5.67368">
        <ele>282.4</ele>
        <time>2022-07-05T07:05:27Z</time>
      </trkpt>
      <trkpt lat="48.39235" lon="5.6739">
        <ele>281.2</ele>
        <time>2022-07-05T07:05:29Z</time>
      </trkpt>
      <trkpt lat="48.39235" lon="5.674">
        <ele>281</ele>
        <time>2022-07-05T07:05:30Z</time>
      </trkpt>
      <trkpt lat="48.39234" lon="5.67428">
        <ele>280.2</ele>
        <time>2022-07-05T07:05:33Z</time>
      </trkpt>
      <trkpt lat="48.39233" lon="5.67437">
        <ele>279.6</ele>
        <time>2022-07-05T07:05:34Z</time>
      </trkpt>
      <trkpt lat="48.39231" lon="5.67446">
        <ele>279.2</ele>
        <time>2022-07-05T07:05:35Z</time>
      </trkpt>
      <trkpt lat="48.39229" lon="5.67455">
        <ele>278.8</ele>
        <time>2022-07-05T07:05:36Z</time>
      </trkpt>
      <trkpt lat="48.39226" lon="5.67463">
        <ele>278.6</ele>
        <time>2022-07-05T07:05:37Z</time>
      </trkpt>
      <trkpt lat="48.39223" lon="5.67472">
        <ele>278.2</ele>
        <time>2022-07-05T07:05:38Z</time>
      </trkpt>
      <trkpt lat="48.3922" lon="5.6748">
        <ele>277.8</ele>
        <time>2022-07-05T07:05:39Z</time>
      </trkpt>
      <trkpt lat="48.39217" lon="5.67488">
        <ele>277.4</ele>
        <time>2022-07-05T07:05:40Z</time>
      </trkpt>
      <trkpt lat="48.39203" lon="5.6752">
        <ele>276.6</ele>
        <time>2022-07-05T07:05:45Z</time>
      </trkpt>
      <trkpt lat="48.39199" lon="5.67525">
        <ele>276.4</ele>
        <time>2022-07-05T07:05:46Z</time>
      </trkpt>
      <trkpt lat="48.39195" lon="5.67529">
        <ele>276.2</ele>
        <time>2022-07-05T07:05:47Z</time>
      </trkpt>
      <trkpt lat="48.39191" lon="5.67533">
        <ele>276</ele>
        <time>2022-07-05T07:05:48Z</time>
      </trkpt>
      <trkpt lat="48.39187" lon="5.67536">
        <ele>276</ele>
        <time>2022-07-05T07:05:49Z</time>
      </trkpt>
      <trkpt lat="48.39141" lon="5.67582">
        <ele>276.2</ele>
        <time>2022-07-05T07:06:08Z</time>
      </trkpt>
      <trkpt lat="48.39121" lon="5.67607">
        <ele>276.4</ele>
        <time>2022-07-05T07:06:28Z</time>
      </trkpt>
      <trkpt lat="48.39123" lon="5.6762">
        <ele>276.4</ele>
        <time>2022-07-05T07:06:41Z</time>
      </trkpt>
      <trkpt lat="48.39124" lon="5.67622">
        <ele>276.4</ele>
        <time>2022-07-05T07:06:42Z</time>
      </trkpt>
      <trkpt lat="48.39125" lon="5.67624">
        <ele>276.4</ele>
        <time>2022-07-05T07:06:43Z</time>
      </trkpt>
      <trkpt lat="48.39125" lon="5.67625">
        <ele>276.4</ele>
        <time>2022-07-05T07:06:44Z</time>
      </trkpt>
      <trkpt lat="48.39126" lon="5.67627">
        <ele>276.4</ele>
        <time>2022-07-05T07:06:45Z</time>
      </trkpt>
      <trkpt lat="48.39126" lon="5.67628">
        <ele>276.4</ele>
        <time>2022-07-05T07:06:46Z</time>
      </trkpt>
      <trkpt lat="48.39126" lon="5.67631">
        <ele>276.2</ele>
        <time>2022-07-05T07:06:51Z</time>
      </trkpt>
      <trkpt lat="48.39119" lon="5.67622">
        <ele>276.2</ele>
        <time>2022-07-05T07:07:26Z</time>
      </trkpt>
      <trkpt lat="48.39119" lon="5.67621">
        <ele>276.2</ele>
        <time>2022-07-05T07:07:27Z</time>
      </trkpt>
      <trkpt lat="48.39119" lon="5.67614">
        <ele>276.6</ele>
        <time>2022-07-05T07:07:32Z</time>
      </trkpt>
      <trkpt lat="48.39118" lon="5.67613">
        <ele>276.6</ele>
        <time>2022-07-05T07:07:33Z</time>
      </trkpt>
      <trkpt lat="48.39119" lon="5.6761">
        <ele>276.4</ele>
        <time>2022-07-05T07:07:40Z</time>
      </trkpt>
      <trkpt lat="48.39117" lon="5.67617">
        <ele>276.6</ele>
        <time>2022-07-05T07:07:46Z</time>
      </trkpt>
      <trkpt lat="48.39117" lon="5.67619">
        <ele>276.6</ele>
        <time>2022-07-05T07:07:47Z</time>
      </trkpt>
      <trkpt lat="48.39119" lon="5.67672">
        <ele>277.4</ele>
        <time>2022-07-05T07:08:20Z</time>
      </trkpt>
      <trkpt lat="48.3912" lon="5.67674">
        <ele>277.6</ele>
        <time>2022-07-05T07:08:26Z</time>
      </trkpt>
      <trkpt lat="48.39124" lon="5.67677">
        <ele>277.4</ele>
        <time>2022-07-05T07:10:28Z</time>
      </trkpt>
      <trkpt lat="48.39126" lon="5.67679">
        <ele>277.4</ele>
        <time>2022-07-05T07:10:29Z</time>
      </trkpt>
      <trkpt lat="48.39138" lon="5.67698">
        <ele>277.2</ele>
        <time>2022-07-05T07:10:34Z</time>
      </trkpt>
      <trkpt lat="48.39141" lon="5.67704">
        <ele>277</ele>
        <time>2022-07-05T07:10:35Z</time>
      </trkpt>
      <trkpt lat="48.39143" lon="5.67712">
        <ele>276.8</ele>
        <time>2022-07-05T07:10:36Z</time>
      </trkpt>
      <trkpt lat="48.39145" lon="5.6772">
        <ele>276.6</ele>
        <time>2022-07-05T07:10:37Z</time>
      </trkpt>
      <trkpt lat="48.39145" lon="5.67728">
        <ele>276.4</ele>
        <time>2022-07-05T07:10:38Z</time>
      </trkpt>
      <trkpt lat="48.39145" lon="5.67737">
        <ele>276.4</ele>
        <time>2022-07-05T07:10:39Z</time>
      </trkpt>
      <trkpt lat="48.39141" lon="5.67827">
        <ele>276.4</ele>
        <time>2022-07-05T07:10:50Z</time>
      </trkpt>
      <trkpt lat="48.39138" lon="5.67913">
        <ele>276</ele>
        <time>2022-07-05T07:11:01Z</time>
      </trkpt>
      <trkpt lat="48.39139" lon="5.68006">
        <ele>275</ele>
        <time>2022-07-05T07:11:13Z</time>
      </trkpt>
      <trkpt lat="48.39138" lon="5.68093">
        <ele>274.6</ele>
        <time>2022-07-05T07:11:24Z</time>
      </trkpt>
      <trkpt lat="48.39138" lon="5.68186">
        <ele>274.6</ele>
        <time>2022-07-05T07:11:36Z</time>
      </trkpt>
      <trkpt lat="48.39132" lon="5.68271">
        <ele>274.6</ele>
        <time>2022-07-05T07:11:47Z</time>
      </trkpt>
      <trkpt lat="48.39119" lon="5.68358">
        <ele>275.2</ele>
        <time>2022-07-05T07:11:59Z</time>
      </trkpt>
      <trkpt lat="48.39097" lon="5.68442">
        <ele>276.6</ele>
        <time>2022-07-05T07:12:12Z</time>
      </trkpt>
      <trkpt lat="48.39086" lon="5.68527">
        <ele>278.2</ele>
        <time>2022-07-05T07:12:26Z</time>
      </trkpt>
      <trkpt lat="48.39107" lon="5.68607">
        <ele>279.6</ele>
        <time>2022-07-05T07:12:41Z</time>
      </trkpt>
      <trkpt lat="48.39127" lon="5.68689">
        <ele>280.8</ele>
        <time>2022-07-05T07:12:57Z</time>
      </trkpt>
      <trkpt lat="48.39145" lon="5.6877">
        <ele>282.2</ele>
        <time>2022-07-05T07:13:15Z</time>
      </trkpt>
      <trkpt lat="48.39147" lon="5.68771">
        <ele>282.2</ele>
        <time>2022-07-05T07:13:16Z</time>
      </trkpt>
      <trkpt lat="48.3915" lon="5.68771">
        <ele>282.4</ele>
        <time>2022-07-05T07:13:17Z</time>
      </trkpt>
      <trkpt lat="48.39152" lon="5.68771">
        <ele>282.4</ele>
        <time>2022-07-05T07:13:18Z</time>
      </trkpt>
      <trkpt lat="48.39155" lon="5.68769">
        <ele>282.6</ele>
        <time>2022-07-05T07:13:19Z</time>
      </trkpt>
      <trkpt lat="48.39158" lon="5.68767">
        <ele>282.4</ele>
        <time>2022-07-05T07:13:20Z</time>
      </trkpt>
      <trkpt lat="48.39203" lon="5.68715">
        <ele>281.8</ele>
        <time>2022-07-05T07:13:36Z</time>
      </trkpt>
      <trkpt lat="48.39255" lon="5.68667">
        <ele>281.4</ele>
        <time>2022-07-05T07:13:49Z</time>
      </trkpt>
      <trkpt lat="48.39305" lon="5.68622">
        <ele>281.2</ele>
        <time>2022-07-05T07:14:02Z</time>
      </trkpt>
      <trkpt lat="48.39358" lon="5.68581">
        <ele>283</ele>
        <time>2022-07-05T07:14:19Z</time>
      </trkpt>
      <trkpt lat="48.39414" lon="5.68561">
        <ele>285.2</ele>
        <time>2022-07-05T07:14:38Z</time>
      </trkpt>
      <trkpt lat="48.3947" lon="5.68543">
        <ele>286.4</ele>
        <time>2022-07-05T07:14:55Z</time>
      </trkpt>
      <trkpt lat="48.39499" lon="5.68526">
        <ele>285.6</ele>
        <time>2022-07-05T07:15:03Z</time>
      </trkpt>
      <trkpt lat="48.39507" lon="5.6852">
        <ele>285.6</ele>
        <time>2022-07-05T07:15:05Z</time>
      </trkpt>
      <trkpt lat="48.39511" lon="5.68518">
        <ele>285.6</ele>
        <time>2022-07-05T07:15:06Z</time>
      </trkpt>
      <trkpt lat="48.39569" lon="5.6851">
        <ele>285.2</ele>
        <time>2022-07-05T07:15:18Z</time>
      </trkpt>
      <trkpt lat="48.39634" lon="5.68513">
        <ele>285.6</ele>
        <time>2022-07-05T07:15:32Z</time>
      </trkpt>
      <trkpt lat="48.3968" lon="5.68516">
        <ele>284.8</ele>
        <time>2022-07-05T07:15:42Z</time>
      </trkpt>
      <trkpt lat="48.39684" lon="5.68518">
        <ele>284.8</ele>
        <time>2022-07-05T07:15:43Z</time>
      </trkpt>
      <trkpt lat="48.39689" lon="5.68519">
        <ele>285</ele>
        <time>2022-07-05T07:15:44Z</time>
      </trkpt>
      <trkpt lat="48.39745" lon="5.68537">
        <ele>284.8</ele>
        <time>2022-07-05T07:15:57Z</time>
      </trkpt>
      <trkpt lat="48.398" lon="5.6856">
        <ele>283.8</ele>
        <time>2022-07-05T07:16:09Z</time>
      </trkpt>
      <trkpt lat="48.3985" lon="5.68598">
        <ele>284.8</ele>
        <time>2022-07-05T07:16:23Z</time>
      </trkpt>
      <trkpt lat="48.39903" lon="5.68637">
        <ele>284.8</ele>
        <time>2022-07-05T07:16:41Z</time>
      </trkpt>
      <trkpt lat="48.39956" lon="5.68677">
        <ele>284</ele>
        <time>2022-07-05T07:16:56Z</time>
      </trkpt>
      <trkpt lat="48.40008" lon="5.68714">
        <ele>284.8</ele>
        <time>2022-07-05T07:17:11Z</time>
      </trkpt>
      <trkpt lat="48.40032" lon="5.68734">
        <ele>284</ele>
        <time>2022-07-05T07:17:29Z</time>
      </trkpt>
      <trkpt lat="48.40039" lon="5.68738">
        <ele>284</ele>
        <time>2022-07-05T07:17:34Z</time>
      </trkpt>
      <trkpt lat="48.40042" lon="5.68737">
        <ele>284</ele>
        <time>2022-07-05T07:17:35Z</time>
      </trkpt>
      <trkpt lat="48.40095" lon="5.68708">
        <ele>283.2</ele>
        <time>2022-07-05T07:17:47Z</time>
      </trkpt>
      <trkpt lat="48.40151" lon="5.6867">
        <ele>281.6</ele>
        <time>2022-07-05T07:17:57Z</time>
      </trkpt>
      <trkpt lat="48.40209" lon="5.68634">
        <ele>280.4</ele>
        <time>2022-07-05T07:18:07Z</time>
      </trkpt>
      <trkpt lat="48.40265" lon="5.686">
        <ele>279</ele>
        <time>2022-07-05T07:18:17Z</time>
      </trkpt>
      <trkpt lat="48.40325" lon="5.68563">
        <ele>277.8</ele>
        <time>2022-07-05T07:18:27Z</time>
      </trkpt>
      <trkpt lat="48.40384" lon="5.68533">
        <ele>276.2</ele>
        <time>2022-07-05T07:18:36Z</time>
      </trkpt>
      <trkpt lat="48.40443" lon="5.68506">
        <ele>275.6</ele>
        <time>2022-07-05T07:18:46Z</time>
      </trkpt>
      <trkpt lat="48.40503" lon="5.68481">
        <ele>275.4</ele>
        <time>2022-07-05T07:18:57Z</time>
      </trkpt>
      <trkpt lat="48.40555" lon="5.68445">
        <ele>276.2</ele>
        <time>2022-07-05T07:19:09Z</time>
      </trkpt>
      <trkpt lat="48.40605" lon="5.684">
        <ele>278</ele>
        <time>2022-07-05T07:19:24Z</time>
      </trkpt>
      <trkpt lat="48.40653" lon="5.68355">
        <ele>277.4</ele>
        <time>2022-07-05T07:19:37Z</time>
      </trkpt>
      <trkpt lat="48.40706" lon="5.68306">
        <ele>276.2</ele>
        <time>2022-07-05T07:19:48Z</time>
      </trkpt>
      <trkpt lat="48.40732" lon="5.68283">
        <ele>276.4</ele>
        <time>2022-07-05T07:19:53Z</time>
      </trkpt>
      <trkpt lat="48.40736" lon="5.68279">
        <ele>276.2</ele>
        <time>2022-07-05T07:19:54Z</time>
      </trkpt>
      <trkpt lat="48.40745" lon="5.68271">
        <ele>276</ele>
        <time>2022-07-05T07:19:56Z</time>
      </trkpt>
      <trkpt lat="48.40748" lon="5.68267">
        <ele>275.8</ele>
        <time>2022-07-05T07:19:57Z</time>
      </trkpt>
      <trkpt lat="48.4075" lon="5.68261">
        <ele>275.8</ele>
        <time>2022-07-05T07:19:58Z</time>
      </trkpt>
      <trkpt lat="48.40751" lon="5.68254">
        <ele>275.6</ele>
        <time>2022-07-05T07:19:59Z</time>
      </trkpt>
      <trkpt lat="48.40751" lon="5.68247">
        <ele>275.2</ele>
        <time>2022-07-05T07:20:00Z</time>
      </trkpt>
      <trkpt lat="48.40751" lon="5.6824">
        <ele>275</ele>
        <time>2022-07-05T07:20:01Z</time>
      </trkpt>
      <trkpt lat="48.40737" lon="5.68158">
        <ele>275.2</ele>
        <time>2022-07-05T07:20:13Z</time>
      </trkpt>
      <trkpt lat="48.40714" lon="5.68077">
        <ele>275.2</ele>
        <time>2022-07-05T07:20:25Z</time>
      </trkpt>
      <trkpt lat="48.40691" lon="5.67999">
        <ele>274.4</ele>
        <time>2022-07-05T07:20:42Z</time>
      </trkpt>
      <trkpt lat="48.40692" lon="5.67999">
        <ele>274.4</ele>
        <time>2022-07-05T07:20:48Z</time>
      </trkpt>
      <trkpt lat="48.40693" lon="5.67988">
        <ele>274.8</ele>
        <time>2022-07-05T07:23:30Z</time>
      </trkpt>
      <trkpt lat="48.40693" lon="5.67985">
        <ele>274.8</ele>
        <time>2022-07-05T07:23:31Z</time>
      </trkpt>
      <trkpt lat="48.40691" lon="5.67951">
        <ele>275</ele>
        <time>2022-07-05T07:23:37Z</time>
      </trkpt>
      <trkpt lat="48.4068" lon="5.67866">
        <ele>274.8</ele>
        <time>2022-07-05T07:23:50Z</time>
      </trkpt>
      <trkpt lat="48.40672" lon="5.6779">
        <ele>274</ele>
        <time>2022-07-05T07:24:01Z</time>
      </trkpt>
      <trkpt lat="48.40672" lon="5.67784">
        <ele>274</ele>
        <time>2022-07-05T07:24:02Z</time>
      </trkpt>
      <trkpt lat="48.40672" lon="5.67777">
        <ele>274</ele>
        <time>2022-07-05T07:24:03Z</time>
      </trkpt>
      <trkpt lat="48.40673" lon="5.6777">
        <ele>274.2</ele>
        <time>2022-07-05T07:24:04Z</time>
      </trkpt>
      <trkpt lat="48.40674" lon="5.67764">
        <ele>274.6</ele>
        <time>2022-07-05T07:24:05Z</time>
      </trkpt>
      <trkpt lat="48.40683" lon="5.67676">
        <ele>274.2</ele>
        <time>2022-07-05T07:24:18Z</time>
      </trkpt>
      <trkpt lat="48.40695" lon="5.67585">
        <ele>275</ele>
        <time>2022-07-05T07:24:30Z</time>
      </trkpt>
      <trkpt lat="48.40703" lon="5.67495">
        <ele>274.8</ele>
        <time>2022-07-05T07:24:42Z</time>
      </trkpt>
      <trkpt lat="48.40701" lon="5.67409">
        <ele>274.8</ele>
        <time>2022-07-05T07:24:53Z</time>
      </trkpt>
      <trkpt lat="48.40698" lon="5.67337">
        <ele>275</ele>
        <time>2022-07-05T07:25:03Z</time>
      </trkpt>
      <trkpt lat="48.40699" lon="5.6733">
        <ele>275</ele>
        <time>2022-07-05T07:25:04Z</time>
      </trkpt>
      <trkpt lat="48.407" lon="5.67323">
        <ele>275</ele>
        <time>2022-07-05T07:25:05Z</time>
      </trkpt>
      <trkpt lat="48.40702" lon="5.67316">
        <ele>275</ele>
        <time>2022-07-05T07:25:06Z</time>
      </trkpt>
      <trkpt lat="48.40704" lon="5.6731">
        <ele>275</ele>
        <time>2022-07-05T07:25:07Z</time>
      </trkpt>
      <trkpt lat="48.40708" lon="5.67305">
        <ele>275</ele>
        <time>2022-07-05T07:25:08Z</time>
      </trkpt>
      <trkpt lat="48.40711" lon="5.673">
        <ele>275.2</ele>
        <time>2022-07-05T07:25:09Z</time>
      </trkpt>
      <trkpt lat="48.40718" lon="5.67292">
        <ele>275.4</ele>
        <time>2022-07-05T07:25:11Z</time>
      </trkpt>
      <trkpt lat="48.40764" lon="5.67241">
        <ele>276.4</ele>
        <time>2022-07-05T07:25:24Z</time>
      </trkpt>
      <trkpt lat="48.40812" lon="5.67194">
        <ele>277</ele>
        <time>2022-07-05T07:25:37Z</time>
      </trkpt>
      <trkpt lat="48.40861" lon="5.67147">
        <ele>276.4</ele>
        <time>2022-07-05T07:25:50Z</time>
      </trkpt>
      <trkpt lat="48.40914" lon="5.67099">
        <ele>277.4</ele>
        <time>2022-07-05T07:26:04Z</time>
      </trkpt>
      <trkpt lat="48.40965" lon="5.67055">
        <ele>277.2</ele>
        <time>2022-07-05T07:26:17Z</time>
      </trkpt>
      <trkpt lat="48.41018" lon="5.67019">
        <ele>277.6</ele>
        <time>2022-07-05T07:26:30Z</time>
      </trkpt>
      <trkpt lat="48.41073" lon="5.66988">
        <ele>278.4</ele>
        <time>2022-07-05T07:26:45Z</time>
      </trkpt>
      <trkpt lat="48.41126" lon="5.6696">
        <ele>279.2</ele>
        <time>2022-07-05T07:26:57Z</time>
      </trkpt>
      <trkpt lat="48.41182" lon="5.66932">
        <ele>279.8</ele>
        <time>2022-07-05T07:27:10Z</time>
      </trkpt>
      <trkpt lat="48.41239" lon="5.66904">
        <ele>280.4</ele>
        <time>2022-07-05T07:27:24Z</time>
      </trkpt>
      <trkpt lat="48.41295" lon="5.66874">
        <ele>280.6</ele>
        <time>2022-07-05T07:27:38Z</time>
      </trkpt>
      <trkpt lat="48.41349" lon="5.6685">
        <ele>280.6</ele>
        <time>2022-07-05T07:27:52Z</time>
      </trkpt>
      <trkpt lat="48.41362" lon="5.66843">
        <ele>282</ele>
        <time>2022-07-05T07:27:55Z</time>
      </trkpt>
      <trkpt lat="48.41421" lon="5.66821">
        <ele>282.4</ele>
        <time>2022-07-05T07:28:08Z</time>
      </trkpt>
      <trkpt lat="48.41457" lon="5.6681">
        <ele>282.8</ele>
        <time>2022-07-05T07:28:16Z</time>
      </trkpt>
      <trkpt lat="48.41462" lon="5.66809">
        <ele>282.8</ele>
        <time>2022-07-05T07:28:17Z</time>
      </trkpt>
      <trkpt lat="48.4152" lon="5.66797">
        <ele>282.4</ele>
        <time>2022-07-05T07:28:30Z</time>
      </trkpt>
      <trkpt lat="48.41577" lon="5.6679">
        <ele>282.4</ele>
        <time>2022-07-05T07:28:42Z</time>
      </trkpt>
      <trkpt lat="48.41637" lon="5.66789">
        <ele>281.6</ele>
        <time>2022-07-05T07:28:54Z</time>
      </trkpt>
      <trkpt lat="48.41697" lon="5.66794">
        <ele>281.6</ele>
        <time>2022-07-05T07:29:06Z</time>
      </trkpt>
      <trkpt lat="48.41754" lon="5.66805">
        <ele>282.4</ele>
        <time>2022-07-05T07:29:19Z</time>
      </trkpt>
      <trkpt lat="48.41812" lon="5.66817">
        <ele>283.8</ele>
        <time>2022-07-05T07:29:34Z</time>
      </trkpt>
      <trkpt lat="48.41863" lon="5.66827">
        <ele>287</ele>
        <time>2022-07-05T07:29:54Z</time>
      </trkpt>
      <trkpt lat="48.41906" lon="5.66834">
        <ele>290</ele>
        <time>2022-07-05T07:30:13Z</time>
      </trkpt>
      <trkpt lat="48.41952" lon="5.66842">
        <ele>293.2</ele>
        <time>2022-07-05T07:30:33Z</time>
      </trkpt>
      <trkpt lat="48.41998" lon="5.66852">
        <ele>296.2</ele>
        <time>2022-07-05T07:30:53Z</time>
      </trkpt>
      <trkpt lat="48.42047" lon="5.6686">
        <ele>299.2</ele>
        <time>2022-07-05T07:31:14Z</time>
      </trkpt>
      <trkpt lat="48.42099" lon="5.66869">
        <ele>302.4</ele>
        <time>2022-07-05T07:31:36Z</time>
      </trkpt>
      <trkpt lat="48.42152" lon="5.6688">
        <ele>305.4</ele>
        <time>2022-07-05T07:31:58Z</time>
      </trkpt>
      <trkpt lat="48.4221" lon="5.66891">
        <ele>308.4</ele>
        <time>2022-07-05T07:32:20Z</time>
      </trkpt>
      <trkpt lat="48.42268" lon="5.66904">
        <ele>310.8</ele>
        <time>2022-07-05T07:32:40Z</time>
      </trkpt>
      <trkpt lat="48.42325" lon="5.66915">
        <ele>313</ele>
        <time>2022-07-05T07:33:00Z</time>
      </trkpt>
      <trkpt lat="48.42383" lon="5.66927">
        <ele>315</ele>
        <time>2022-07-05T07:33:20Z</time>
      </trkpt>
      <trkpt lat="48.42442" lon="5.66937">
        <ele>316.4</ele>
        <time>2022-07-05T07:33:38Z</time>
      </trkpt>
      <trkpt lat="48.42499" lon="5.66952">
        <ele>318.2</ele>
        <time>2022-07-05T07:33:56Z</time>
      </trkpt>
      <trkpt lat="48.42557" lon="5.66964">
        <ele>319.8</ele>
        <time>2022-07-05T07:34:13Z</time>
      </trkpt>
      <trkpt lat="48.42615" lon="5.66977">
        <ele>321.6</ele>
        <time>2022-07-05T07:34:30Z</time>
      </trkpt>
      <trkpt lat="48.42671" lon="5.66995">
        <ele>323</ele>
        <time>2022-07-05T07:34:47Z</time>
      </trkpt>
      <trkpt lat="48.4272" lon="5.67026">
        <ele>323.8</ele>
        <time>2022-07-05T07:35:04Z</time>
      </trkpt>
      <trkpt lat="48.4272" lon="5.67028">
        <ele>323.8</ele>
        <time>2022-07-05T07:35:05Z</time>
      </trkpt>
      <trkpt lat="48.42719" lon="5.6703">
        <ele>323.8</ele>
        <time>2022-07-05T07:35:06Z</time>
      </trkpt>
      <trkpt lat="48.42719" lon="5.67031">
        <ele>323.8</ele>
        <time>2022-07-05T07:35:07Z</time>
      </trkpt>
      <trkpt lat="48.42719" lon="5.67033">
        <ele>323.8</ele>
        <time>2022-07-05T07:35:08Z</time>
      </trkpt>
      <trkpt lat="48.42718" lon="5.67033">
        <ele>323.6</ele>
        <time>2022-07-05T07:35:15Z</time>
      </trkpt>
      <trkpt lat="48.42744" lon="5.67035">
        <ele>324.2</ele>
        <time>2022-07-05T07:35:57Z</time>
      </trkpt>
      <trkpt lat="48.42745" lon="5.67035">
        <ele>324.2</ele>
        <time>2022-07-05T07:35:58Z</time>
      </trkpt>
      <trkpt lat="48.42746" lon="5.67036">
        <ele>324</ele>
        <time>2022-07-05T07:35:59Z</time>
      </trkpt>
      <trkpt lat="48.42756" lon="5.67048">
        <ele>323.4</ele>
        <time>2022-07-05T07:36:16Z</time>
      </trkpt>
      <trkpt lat="48.42774" lon="5.67029">
        <ele>325.2</ele>
        <time>2022-07-05T07:40:01Z</time>
      </trkpt>
      <trkpt lat="48.42775" lon="5.67028">
        <ele>325.2</ele>
        <time>2022-07-05T07:40:02Z</time>
      </trkpt>
      <trkpt lat="48.42776" lon="5.67027">
        <ele>325.2</ele>
        <time>2022-07-05T07:40:03Z</time>
      </trkpt>
      <trkpt lat="48.42777" lon="5.67025">
        <ele>325.4</ele>
        <time>2022-07-05T07:40:04Z</time>
      </trkpt>
      <trkpt lat="48.42779" lon="5.67024">
        <ele>325.4</ele>
        <time>2022-07-05T07:40:05Z</time>
      </trkpt>
      <trkpt lat="48.42778" lon="5.67025">
        <ele>325.6</ele>
        <time>2022-07-05T07:40:06Z</time>
      </trkpt>
      <trkpt lat="48.42779" lon="5.67023">
        <ele>325.6</ele>
        <time>2022-07-05T07:40:07Z</time>
      </trkpt>
      <trkpt lat="48.42788" lon="5.67019">
        <ele>326</ele>
        <time>2022-07-05T07:40:20Z</time>
      </trkpt>
      <trkpt lat="48.4282" lon="5.6702">
        <ele>325.4</ele>
        <time>2022-07-05T07:41:47Z</time>
      </trkpt>
      <trkpt lat="48.42821" lon="5.6702">
        <ele>325.4</ele>
        <time>2022-07-05T07:41:48Z</time>
      </trkpt>
      <trkpt lat="48.42827" lon="5.67025">
        <ele>324.6</ele>
        <time>2022-07-05T07:41:59Z</time>
      </trkpt>
      <trkpt lat="48.4281" lon="5.67034">
        <ele>325</ele>
        <time>2022-07-05T07:44:03Z</time>
      </trkpt>
      <trkpt lat="48.4281" lon="5.67035">
        <ele>325</ele>
        <time>2022-07-05T07:44:04Z</time>
      </trkpt>
      <trkpt lat="48.42809" lon="5.67036">
        <ele>325</ele>
        <time>2022-07-05T07:44:05Z</time>
      </trkpt>
      <trkpt lat="48.42808" lon="5.67037">
        <ele>325</ele>
        <time>2022-07-05T07:44:06Z</time>
      </trkpt>
      <trkpt lat="48.42804" lon="5.67039">
        <ele>324.8</ele>
        <time>2022-07-05T07:44:10Z</time>
      </trkpt>
      <trkpt lat="48.42802" lon="5.67042">
        <ele>324.6</ele>
        <time>2022-07-05T07:44:13Z</time>
      </trkpt>
      <trkpt lat="48.42802" lon="5.67043">
        <ele>324.6</ele>
        <time>2022-07-05T07:44:14Z</time>
      </trkpt>
      <trkpt lat="48.42801" lon="5.67046">
        <ele>324.2</ele>
        <time>2022-07-05T07:44:20Z</time>
      </trkpt>
      <trkpt lat="48.42776" lon="5.6703">
        <ele>324.8</ele>
        <time>2022-07-05T07:45:01Z</time>
      </trkpt>
      <trkpt lat="48.42775" lon="5.6703">
        <ele>324.8</ele>
        <time>2022-07-05T07:45:02Z</time>
      </trkpt>
      <trkpt lat="48.42774" lon="5.67029">
        <ele>324.8</ele>
        <time>2022-07-05T07:45:03Z</time>
      </trkpt>
      <trkpt lat="48.42773" lon="5.67029">
        <ele>324.8</ele>
        <time>2022-07-05T07:45:10Z</time>
      </trkpt>
      <trkpt lat="48.42761" lon="5.67037">
        <ele>323.4</ele>
        <time>2022-07-05T07:46:12Z</time>
      </trkpt>
      <trkpt lat="48.4276" lon="5.67038">
        <ele>323.4</ele>
        <time>2022-07-05T07:46:13Z</time>
      </trkpt>
      <trkpt lat="48.42759" lon="5.67038">
        <ele>323.4</ele>
        <time>2022-07-05T07:46:14Z</time>
      </trkpt>
      <trkpt lat="48.42758" lon="5.67039">
        <ele>323.4</ele>
        <time>2022-07-05T07:46:15Z</time>
      </trkpt>
      <trkpt lat="48.42757" lon="5.6704">
        <ele>323.4</ele>
        <time>2022-07-05T07:46:16Z</time>
      </trkpt>
      <trkpt lat="48.42756" lon="5.67041">
        <ele>323.4</ele>
        <time>2022-07-05T07:46:17Z</time>
      </trkpt>
      <trkpt lat="48.42753" lon="5.67043">
        <ele>323.2</ele>
        <time>2022-07-05T07:46:20Z</time>
      </trkpt>
      <trkpt lat="48.42752" lon="5.67044">
        <ele>323.2</ele>
        <time>2022-07-05T07:46:21Z</time>
      </trkpt>
      <trkpt lat="48.42742" lon="5.67043">
        <ele>322.8</ele>
        <time>2022-07-05T07:46:35Z</time>
      </trkpt>
      <trkpt lat="48.42726" lon="5.67026">
        <ele>323.2</ele>
        <time>2022-07-05T07:48:50Z</time>
      </trkpt>
      <trkpt lat="48.42729" lon="5.67027">
        <ele>323.4</ele>
        <time>2022-07-05T07:48:51Z</time>
      </trkpt>
      <trkpt lat="48.42732" lon="5.67029">
        <ele>323.4</ele>
        <time>2022-07-05T07:48:52Z</time>
      </trkpt>
      <trkpt lat="48.42735" lon="5.6703">
        <ele>323.4</ele>
        <time>2022-07-05T07:48:53Z</time>
      </trkpt>
      <trkpt lat="48.42788" lon="5.6706">
        <ele>321.8</ele>
        <time>2022-07-05T07:49:09Z</time>
      </trkpt>
      <trkpt lat="48.42844" lon="5.67061">
        <ele>320.6</ele>
        <time>2022-07-05T07:49:23Z</time>
      </trkpt>
      <trkpt lat="48.42848" lon="5.67061">
        <ele>320.6</ele>
        <time>2022-07-05T07:49:24Z</time>
      </trkpt>
      <trkpt lat="48.42852" lon="5.6706">
        <ele>320.8</ele>
        <time>2022-07-05T07:49:25Z</time>
      </trkpt>
      <trkpt lat="48.42865" lon="5.67055">
        <ele>320.8</ele>
        <time>2022-07-05T07:49:28Z</time>
      </trkpt>
      <trkpt lat="48.42918" lon="5.6705">
        <ele>321.4</ele>
        <time>2022-07-05T07:49:38Z</time>
      </trkpt>
      <trkpt lat="48.42973" lon="5.67068">
        <ele>318.4</ele>
        <time>2022-07-05T07:49:47Z</time>
      </trkpt>
      <trkpt lat="48.42985" lon="5.67073">
        <ele>315</ele>
        <time>2022-07-05T07:49:49Z</time>
      </trkpt>
      <trkpt lat="48.43046" lon="5.67095">
        <ele>313.2</ele>
        <time>2022-07-05T07:49:58Z</time>
      </trkpt>
      <trkpt lat="48.43105" lon="5.67111">
        <ele>312.6</ele>
        <time>2022-07-05T07:50:07Z</time>
      </trkpt>
      <trkpt lat="48.43163" lon="5.67116">
        <ele>312</ele>
        <time>2022-07-05T07:50:16Z</time>
      </trkpt>
      <trkpt lat="48.43226" lon="5.6712">
        <ele>308.8</ele>
        <time>2022-07-05T07:50:25Z</time>
      </trkpt>
      <trkpt lat="48.43286" lon="5.67123">
        <ele>306</ele>
        <time>2022-07-05T07:50:33Z</time>
      </trkpt>
      <trkpt lat="48.43349" lon="5.67124">
        <ele>303.4</ele>
        <time>2022-07-05T07:50:41Z</time>
      </trkpt>
      <trkpt lat="48.43407" lon="5.67119">
        <ele>300.8</ele>
        <time>2022-07-05T07:50:48Z</time>
      </trkpt>
      <trkpt lat="48.43464" lon="5.67124">
        <ele>299.4</ele>
        <time>2022-07-05T07:50:55Z</time>
      </trkpt>
      <trkpt lat="48.43524" lon="5.6714">
        <ele>296.2</ele>
        <time>2022-07-05T07:51:02Z</time>
      </trkpt>
      <trkpt lat="48.4357" lon="5.67153">
        <ele>293</ele>
        <time>2022-07-05T07:51:07Z</time>
      </trkpt>
      <trkpt lat="48.43588" lon="5.67158">
        <ele>292.4</ele>
        <time>2022-07-05T07:51:09Z</time>
      </trkpt>
      <trkpt lat="48.43648" lon="5.67172">
        <ele>288.6</ele>
        <time>2022-07-05T07:51:15Z</time>
      </trkpt>
      <trkpt lat="48.43677" lon="5.67178">
        <ele>293</ele>
        <time>2022-07-05T07:51:18Z</time>
      </trkpt>
      <trkpt lat="48.43688" lon="5.67182">
        <ele>293.2</ele>
        <time>2022-07-05T07:51:20Z</time>
      </trkpt>
      <trkpt lat="48.43696" lon="5.67185">
        <ele>292.2</ele>
        <time>2022-07-05T07:51:22Z</time>
      </trkpt>
      <trkpt lat="48.437" lon="5.67185">
        <ele>292</ele>
        <time>2022-07-05T07:51:23Z</time>
      </trkpt>
      <trkpt lat="48.4376" lon="5.67197">
        <ele>289.8</ele>
        <time>2022-07-05T07:51:34Z</time>
      </trkpt>
      <trkpt lat="48.4382" lon="5.67211">
        <ele>287.2</ele>
        <time>2022-07-05T07:51:42Z</time>
      </trkpt>
      <trkpt lat="48.4388" lon="5.67226">
        <ele>284.8</ele>
        <time>2022-07-05T07:51:49Z</time>
      </trkpt>
      <trkpt lat="48.43943" lon="5.67239">
        <ele>282.8</ele>
        <time>2022-07-05T07:51:56Z</time>
      </trkpt>
      <trkpt lat="48.43969" lon="5.67246">
        <ele>281.4</ele>
        <time>2022-07-05T07:51:59Z</time>
      </trkpt>
      <trkpt lat="48.44029" lon="5.67259">
        <ele>280</ele>
        <time>2022-07-05T07:52:06Z</time>
      </trkpt>
      <trkpt lat="48.4409" lon="5.67274">
        <ele>277.6</ele>
        <time>2022-07-05T07:52:14Z</time>
      </trkpt>
      <trkpt lat="48.44121" lon="5.67285">
        <ele>275.2</ele>
        <time>2022-07-05T07:52:21Z</time>
      </trkpt>
      <trkpt lat="48.44121" lon="5.67289">
        <ele>274.8</ele>
        <time>2022-07-05T07:52:22Z</time>
      </trkpt>
      <trkpt lat="48.44121" lon="5.67294">
        <ele>274.4</ele>
        <time>2022-07-05T07:52:23Z</time>
      </trkpt>
      <trkpt lat="48.4412" lon="5.673">
        <ele>274.2</ele>
        <time>2022-07-05T07:52:24Z</time>
      </trkpt>
      <trkpt lat="48.44118" lon="5.67306">
        <ele>274</ele>
        <time>2022-07-05T07:52:25Z</time>
      </trkpt>
      <trkpt lat="48.44118" lon="5.67379">
        <ele>271.8</ele>
        <time>2022-07-05T07:52:45Z</time>
      </trkpt>
      <trkpt lat="48.44166" lon="5.67423">
        <ele>271</ele>
        <time>2022-07-05T07:53:02Z</time>
      </trkpt>
      <trkpt lat="48.44174" lon="5.67504">
        <ele>271</ele>
        <time>2022-07-05T07:53:30Z</time>
      </trkpt>
      <trkpt lat="48.44175" lon="5.67516">
        <ele>271.4</ele>
        <time>2022-07-05T07:53:35Z</time>
      </trkpt>
      <trkpt lat="48.44173" lon="5.67518">
        <ele>271.4</ele>
        <time>2022-07-05T07:53:36Z</time>
      </trkpt>
      <trkpt lat="48.44168" lon="5.67522">
        <ele>271.4</ele>
        <time>2022-07-05T07:53:39Z</time>
      </trkpt>
      <trkpt lat="48.44167" lon="5.67525">
        <ele>271.4</ele>
        <time>2022-07-05T07:53:40Z</time>
      </trkpt>
      <trkpt lat="48.44166" lon="5.67529">
        <ele>271.4</ele>
        <time>2022-07-05T07:53:41Z</time>
      </trkpt>
      <trkpt lat="48.44167" lon="5.67532">
        <ele>271.6</ele>
        <time>2022-07-05T07:53:42Z</time>
      </trkpt>
      <trkpt lat="48.44167" lon="5.67535">
        <ele>271.8</ele>
        <time>2022-07-05T07:53:43Z</time>
      </trkpt>
      <trkpt lat="48.44167" lon="5.67538">
        <ele>271.8</ele>
        <time>2022-07-05T07:53:44Z</time>
      </trkpt>
      <trkpt lat="48.44168" lon="5.6754">
        <ele>272</ele>
        <time>2022-07-05T07:53:45Z</time>
      </trkpt>
      <trkpt lat="48.44168" lon="5.67542">
        <ele>272</ele>
        <time>2022-07-05T07:53:46Z</time>
      </trkpt>
      <trkpt lat="48.44167" lon="5.67544">
        <ele>272.4</ele>
        <time>2022-07-05T07:53:53Z</time>
      </trkpt>
      <trkpt lat="48.44174" lon="5.67544">
        <ele>272.6</ele>
        <time>2022-07-05T07:54:29Z</time>
      </trkpt>
      <trkpt lat="48.44176" lon="5.67542">
        <ele>272.6</ele>
        <time>2022-07-05T07:54:30Z</time>
      </trkpt>
      <trkpt lat="48.44196" lon="5.67521">
        <ele>272.4</ele>
        <time>2022-07-05T07:54:47Z</time>
      </trkpt>
      <trkpt lat="48.44208" lon="5.67505">
        <ele>272.4</ele>
        <time>2022-07-05T07:57:09Z</time>
      </trkpt>
      <trkpt lat="48.44208" lon="5.67503">
        <ele>272.2</ele>
        <time>2022-07-05T07:57:10Z</time>
      </trkpt>
      <trkpt lat="48.44209" lon="5.67501">
        <ele>272.2</ele>
        <time>2022-07-05T07:57:11Z</time>
      </trkpt>
      <trkpt lat="48.44209" lon="5.67499">
        <ele>272.2</ele>
        <time>2022-07-05T07:57:12Z</time>
      </trkpt>
      <trkpt lat="48.44209" lon="5.67497">
        <ele>272.2</ele>
        <time>2022-07-05T07:57:13Z</time>
      </trkpt>
      <trkpt lat="48.44209" lon="5.67495">
        <ele>272</ele>
        <time>2022-07-05T07:57:14Z</time>
      </trkpt>
      <trkpt lat="48.44209" lon="5.67493">
        <ele>272</ele>
        <time>2022-07-05T07:57:15Z</time>
      </trkpt>
      <trkpt lat="48.4421" lon="5.67492">
        <ele>272</ele>
        <time>2022-07-05T07:57:16Z</time>
      </trkpt>
      <trkpt lat="48.44211" lon="5.6749">
        <ele>271.8</ele>
        <time>2022-07-05T07:57:17Z</time>
      </trkpt>
      <trkpt lat="48.44211" lon="5.67488">
        <ele>271.8</ele>
        <time>2022-07-05T07:57:18Z</time>
      </trkpt>
      <trkpt lat="48.44211" lon="5.67486">
        <ele>272</ele>
        <time>2022-07-05T07:57:25Z</time>
      </trkpt>
      <trkpt lat="48.44212" lon="5.67492">
        <ele>272</ele>
        <time>2022-07-05T07:57:31Z</time>
      </trkpt>
      <trkpt lat="48.44212" lon="5.67493">
        <ele>272</ele>
        <time>2022-07-05T07:57:32Z</time>
      </trkpt>
      <trkpt lat="48.44215" lon="5.6751">
        <ele>272</ele>
        <time>2022-07-05T07:57:42Z</time>
      </trkpt>
      <trkpt lat="48.44217" lon="5.67511">
        <ele>272.2</ele>
        <time>2022-07-05T07:57:44Z</time>
      </trkpt>
      <trkpt lat="48.44218" lon="5.67511">
        <ele>272.2</ele>
        <time>2022-07-05T07:57:45Z</time>
      </trkpt>
      <trkpt lat="48.44225" lon="5.67514">
        <ele>272.2</ele>
        <time>2022-07-05T07:57:50Z</time>
      </trkpt>
      <trkpt lat="48.44225" lon="5.67514">
        <ele>272.2</ele>
        <time>2022-07-05T07:57:57Z</time>
      </trkpt>
      <trkpt lat="48.4423" lon="5.67519">
        <ele>272.4</ele>
        <time>2022-07-05T07:58:10Z</time>
      </trkpt>
      <trkpt lat="48.44235" lon="5.67525">
        <ele>271.6</ele>
        <time>2022-07-05T07:58:14Z</time>
      </trkpt>
      <trkpt lat="48.44296" lon="5.67537">
        <ele>273</ele>
        <time>2022-07-05T07:58:31Z</time>
      </trkpt>
      <trkpt lat="48.44354" lon="5.67548">
        <ele>271.2</ele>
        <time>2022-07-05T07:58:46Z</time>
      </trkpt>
      <trkpt lat="48.44363" lon="5.67549">
        <ele>271.4</ele>
        <time>2022-07-05T07:58:48Z</time>
      </trkpt>
      <trkpt lat="48.44424" lon="5.67565">
        <ele>270.8</ele>
        <time>2022-07-05T07:59:02Z</time>
      </trkpt>
      <trkpt lat="48.44485" lon="5.67579">
        <ele>271.2</ele>
        <time>2022-07-05T07:59:15Z</time>
      </trkpt>
      <trkpt lat="48.44509" lon="5.67586">
        <ele>271.6</ele>
        <time>2022-07-05T07:59:21Z</time>
      </trkpt>
      <trkpt lat="48.44569" lon="5.67599">
        <ele>270.8</ele>
        <time>2022-07-05T07:59:34Z</time>
      </trkpt>
      <trkpt lat="48.4463" lon="5.67611">
        <ele>271.4</ele>
        <time>2022-07-05T07:59:46Z</time>
      </trkpt>
      <trkpt lat="48.44687" lon="5.67623">
        <ele>270.4</ele>
        <time>2022-07-05T07:59:57Z</time>
      </trkpt>
      <trkpt lat="48.44692" lon="5.67624">
        <ele>270</ele>
        <time>2022-07-05T07:59:58Z</time>
      </trkpt>
      <trkpt lat="48.44752" lon="5.67637">
        <ele>270.4</ele>
        <time>2022-07-05T08:00:09Z</time>
      </trkpt>
      <trkpt lat="48.44785" lon="5.67685">
        <ele>270.8</ele>
        <time>2022-07-05T08:00:28Z</time>
      </trkpt>
      <trkpt lat="48.44776" lon="5.67767">
        <ele>270.6</ele>
        <time>2022-07-05T08:00:43Z</time>
      </trkpt>
      <trkpt lat="48.44823" lon="5.67814">
        <ele>271</ele>
        <time>2022-07-05T08:00:57Z</time>
      </trkpt>
      <trkpt lat="48.44871" lon="5.67857">
        <ele>271</ele>
        <time>2022-07-05T08:01:10Z</time>
      </trkpt>
      <trkpt lat="48.44899" lon="5.67881">
        <ele>270.8</ele>
        <time>2022-07-05T08:01:18Z</time>
      </trkpt>
      <trkpt lat="48.44955" lon="5.67906">
        <ele>271.2</ele>
        <time>2022-07-05T08:01:32Z</time>
      </trkpt>
      <trkpt lat="48.45003" lon="5.67917">
        <ele>271</ele>
        <time>2022-07-05T08:01:48Z</time>
      </trkpt>
      <trkpt lat="48.45005" lon="5.67919">
        <ele>271</ele>
        <time>2022-07-05T08:01:49Z</time>
      </trkpt>
      <trkpt lat="48.45005" lon="5.67923">
        <ele>271</ele>
        <time>2022-07-05T08:01:50Z</time>
      </trkpt>
      <trkpt lat="48.45006" lon="5.67928">
        <ele>271</ele>
        <time>2022-07-05T08:01:51Z</time>
      </trkpt>
      <trkpt lat="48.45006" lon="5.67933">
        <ele>271</ele>
        <time>2022-07-05T08:01:52Z</time>
      </trkpt>
      <trkpt lat="48.45005" lon="5.67955">
        <ele>270.6</ele>
        <time>2022-07-05T08:01:56Z</time>
      </trkpt>
      <trkpt lat="48.45005" lon="5.68041">
        <ele>269</ele>
        <time>2022-07-05T08:02:08Z</time>
      </trkpt>
      <trkpt lat="48.45003" lon="5.68133">
        <ele>269</ele>
        <time>2022-07-05T08:02:20Z</time>
      </trkpt>
      <trkpt lat="48.45003" lon="5.68218">
        <ele>269.6</ele>
        <time>2022-07-05T08:02:31Z</time>
      </trkpt>
      <trkpt lat="48.45014" lon="5.68304">
        <ele>270</ele>
        <time>2022-07-05T08:02:43Z</time>
      </trkpt>
      <trkpt lat="48.4504" lon="5.68381">
        <ele>269</ele>
        <time>2022-07-05T08:02:54Z</time>
      </trkpt>
      <trkpt lat="48.4508" lon="5.68452">
        <ele>269</ele>
        <time>2022-07-05T08:03:06Z</time>
      </trkpt>
      <trkpt lat="48.45119" lon="5.68515">
        <ele>268.4</ele>
        <time>2022-07-05T08:03:17Z</time>
      </trkpt>
      <trkpt lat="48.45127" lon="5.68528">
        <ele>268.4</ele>
        <time>2022-07-05T08:03:19Z</time>
      </trkpt>
      <trkpt lat="48.45148" lon="5.68612">
        <ele>267.4</ele>
        <time>2022-07-05T08:03:31Z</time>
      </trkpt>
      <trkpt lat="48.45155" lon="5.68701">
        <ele>270.2</ele>
        <time>2022-07-05T08:03:42Z</time>
      </trkpt>
      <trkpt lat="48.45175" lon="5.68783">
        <ele>269.6</ele>
        <time>2022-07-05T08:03:53Z</time>
      </trkpt>
      <trkpt lat="48.45195" lon="5.68862">
        <ele>268.6</ele>
        <time>2022-07-05T08:04:04Z</time>
      </trkpt>
      <trkpt lat="48.45217" lon="5.68945">
        <ele>268.6</ele>
        <time>2022-07-05T08:04:15Z</time>
      </trkpt>
      <trkpt lat="48.45239" lon="5.69025">
        <ele>269</ele>
        <time>2022-07-05T08:04:26Z</time>
      </trkpt>
      <trkpt lat="48.4526" lon="5.69106">
        <ele>269.4</ele>
        <time>2022-07-05T08:04:37Z</time>
      </trkpt>
      <trkpt lat="48.45266" lon="5.69186">
        <ele>269.2</ele>
        <time>2022-07-05T08:04:47Z</time>
      </trkpt>
      <trkpt lat="48.45256" lon="5.69276">
        <ele>269</ele>
        <time>2022-07-05T08:04:58Z</time>
      </trkpt>
      <trkpt lat="48.45245" lon="5.69362">
        <ele>270.6</ele>
        <time>2022-07-05T08:05:13Z</time>
      </trkpt>
      <trkpt lat="48.45241" lon="5.69381">
        <ele>270.6</ele>
        <time>2022-07-05T08:05:26Z</time>
      </trkpt>
      <trkpt lat="48.45244" lon="5.69388">
        <ele>271.2</ele>
        <time>2022-07-05T08:06:35Z</time>
      </trkpt>
      <trkpt lat="48.45244" lon="5.69388">
        <ele>271.2</ele>
        <time>2022-07-05T08:06:36Z</time>
      </trkpt>
      <trkpt lat="48.45244" lon="5.69386">
        <ele>271</ele>
        <time>2022-07-05T08:06:37Z</time>
      </trkpt>
      <trkpt lat="48.45243" lon="5.69382">
        <ele>270.8</ele>
        <time>2022-07-05T08:06:43Z</time>
      </trkpt>
      <trkpt lat="48.45241" lon="5.69398">
        <ele>271</ele>
        <time>2022-07-05T08:09:07Z</time>
      </trkpt>
      <trkpt lat="48.45241" lon="5.69402">
        <ele>271</ele>
        <time>2022-07-05T08:09:08Z</time>
      </trkpt>
      <trkpt lat="48.45225" lon="5.69487">
        <ele>271</ele>
        <time>2022-07-05T08:09:23Z</time>
      </trkpt>
      <trkpt lat="48.45208" lon="5.69546">
        <ele>270.2</ele>
        <time>2022-07-05T08:09:34Z</time>
      </trkpt>
      <trkpt lat="48.45205" lon="5.6955">
        <ele>269.8</ele>
        <time>2022-07-05T08:09:35Z</time>
      </trkpt>
      <trkpt lat="48.45201" lon="5.69554">
        <ele>269.6</ele>
        <time>2022-07-05T08:09:36Z</time>
      </trkpt>
      <trkpt lat="48.45197" lon="5.69556">
        <ele>269.4</ele>
        <time>2022-07-05T08:09:37Z</time>
      </trkpt>
      <trkpt lat="48.45192" lon="5.69558">
        <ele>269</ele>
        <time>2022-07-05T08:09:38Z</time>
      </trkpt>
      <trkpt lat="48.45187" lon="5.6956">
        <ele>268.6</ele>
        <time>2022-07-05T08:09:39Z</time>
      </trkpt>
      <trkpt lat="48.45183" lon="5.69561">
        <ele>268.6</ele>
        <time>2022-07-05T08:09:40Z</time>
      </trkpt>
      <trkpt lat="48.45178" lon="5.69563">
        <ele>268.4</ele>
        <time>2022-07-05T08:09:41Z</time>
      </trkpt>
      <trkpt lat="48.45174" lon="5.69564">
        <ele>268.4</ele>
        <time>2022-07-05T08:09:42Z</time>
      </trkpt>
      <trkpt lat="48.45157" lon="5.69572">
        <ele>269.2</ele>
        <time>2022-07-05T08:09:46Z</time>
      </trkpt>
      <trkpt lat="48.45154" lon="5.69576">
        <ele>269.4</ele>
        <time>2022-07-05T08:09:47Z</time>
      </trkpt>
      <trkpt lat="48.45151" lon="5.6958">
        <ele>269.6</ele>
        <time>2022-07-05T08:09:48Z</time>
      </trkpt>
      <trkpt lat="48.45118" lon="5.6965">
        <ele>270.6</ele>
        <time>2022-07-05T08:10:03Z</time>
      </trkpt>
      <trkpt lat="48.45099" lon="5.69735">
        <ele>271.6</ele>
        <time>2022-07-05T08:10:20Z</time>
      </trkpt>
      <trkpt lat="48.45097" lon="5.69825">
        <ele>274.2</ele>
        <time>2022-07-05T08:10:38Z</time>
      </trkpt>
      <trkpt lat="48.45111" lon="5.69901">
        <ele>276</ele>
        <time>2022-07-05T08:10:57Z</time>
      </trkpt>
      <trkpt lat="48.45162" lon="5.69944">
        <ele>276.4</ele>
        <time>2022-07-05T08:11:12Z</time>
      </trkpt>
      <trkpt lat="48.45211" lon="5.69987">
        <ele>277.8</ele>
        <time>2022-07-05T08:11:28Z</time>
      </trkpt>
      <trkpt lat="48.45236" lon="5.70043">
        <ele>281</ele>
        <time>2022-07-05T08:11:48Z</time>
      </trkpt>
      <trkpt lat="48.4522" lon="5.70121">
        <ele>284</ele>
        <time>2022-07-05T08:12:10Z</time>
      </trkpt>
      <trkpt lat="48.45207" lon="5.70202">
        <ele>285.4</ele>
        <time>2022-07-05T08:12:30Z</time>
      </trkpt>
      <trkpt lat="48.4519" lon="5.70286">
        <ele>287.4</ele>
        <time>2022-07-05T08:12:50Z</time>
      </trkpt>
      <trkpt lat="48.45181" lon="5.70373">
        <ele>289.8</ele>
        <time>2022-07-05T08:13:11Z</time>
      </trkpt>
      <trkpt lat="48.45182" lon="5.70459">
        <ele>292.4</ele>
        <time>2022-07-05T08:13:31Z</time>
      </trkpt>
      <trkpt lat="48.45181" lon="5.70544">
        <ele>294.4</ele>
        <time>2022-07-05T08:13:51Z</time>
      </trkpt>
      <trkpt lat="48.45191" lon="5.70627">
        <ele>296.2</ele>
        <time>2022-07-05T08:14:11Z</time>
      </trkpt>
      <trkpt lat="48.45211" lon="5.70707">
        <ele>299</ele>
        <time>2022-07-05T08:14:32Z</time>
      </trkpt>
      <trkpt lat="48.45226" lon="5.70788">
        <ele>300.8</ele>
        <time>2022-07-05T08:14:52Z</time>
      </trkpt>
      <trkpt lat="48.45233" lon="5.70874">
        <ele>302.4</ele>
        <time>2022-07-05T08:15:13Z</time>
      </trkpt>
      <trkpt lat="48.45234" lon="5.70958">
        <ele>303.6</ele>
        <time>2022-07-05T08:15:32Z</time>
      </trkpt>
      <trkpt lat="48.45235" lon="5.71045">
        <ele>302.6</ele>
        <time>2022-07-05T08:15:47Z</time>
      </trkpt>
      <trkpt lat="48.45239" lon="5.71132">
        <ele>303.6</ele>
        <time>2022-07-05T08:16:02Z</time>
      </trkpt>
      <trkpt lat="48.45243" lon="5.71218">
        <ele>303.6</ele>
        <time>2022-07-05T08:16:15Z</time>
      </trkpt>
      <trkpt lat="48.45248" lon="5.71307">
        <ele>304</ele>
        <time>2022-07-05T08:16:29Z</time>
      </trkpt>
      <trkpt lat="48.45251" lon="5.71393">
        <ele>304.6</ele>
        <time>2022-07-05T08:16:44Z</time>
      </trkpt>
      <trkpt lat="48.45262" lon="5.71476">
        <ele>306.4</ele>
        <time>2022-07-05T08:17:00Z</time>
      </trkpt>
      <trkpt lat="48.45283" lon="5.71555">
        <ele>308.6</ele>
        <time>2022-07-05T08:17:18Z</time>
      </trkpt>
      <trkpt lat="48.45305" lon="5.71635">
        <ele>310.6</ele>
        <time>2022-07-05T08:17:37Z</time>
      </trkpt>
      <trkpt lat="48.45314" lon="5.71717">
        <ele>312.6</ele>
        <time>2022-07-05T08:17:57Z</time>
      </trkpt>
      <trkpt lat="48.45295" lon="5.71777">
        <ele>315.6</ele>
        <time>2022-07-05T08:18:17Z</time>
      </trkpt>
      <trkpt lat="48.4528" lon="5.71822">
        <ele>318.8</ele>
        <time>2022-07-05T08:18:35Z</time>
      </trkpt>
      <trkpt lat="48.45273" lon="5.71886">
        <ele>321.8</ele>
        <time>2022-07-05T08:18:57Z</time>
      </trkpt>
      <trkpt lat="48.45262" lon="5.71937">
        <ele>325</ele>
        <time>2022-07-05T08:19:17Z</time>
      </trkpt>
      <trkpt lat="48.45254" lon="5.71991">
        <ele>328</ele>
        <time>2022-07-05T08:19:37Z</time>
      </trkpt>
      <trkpt lat="48.45256" lon="5.72051">
        <ele>331</ele>
        <time>2022-07-05T08:19:58Z</time>
      </trkpt>
      <trkpt lat="48.45255" lon="5.72112">
        <ele>334</ele>
        <time>2022-07-05T08:20:19Z</time>
      </trkpt>
      <trkpt lat="48.45273" lon="5.72185">
        <ele>337</ele>
        <time>2022-07-05T08:20:46Z</time>
      </trkpt>
      <trkpt lat="48.45297" lon="5.72231">
        <ele>340.2</ele>
        <time>2022-07-05T08:21:08Z</time>
      </trkpt>
      <trkpt lat="48.45325" lon="5.72269">
        <ele>343.2</ele>
        <time>2022-07-05T08:21:30Z</time>
      </trkpt>
      <trkpt lat="48.45354" lon="5.72312">
        <ele>346.4</ele>
        <time>2022-07-05T08:21:51Z</time>
      </trkpt>
      <trkpt lat="48.45383" lon="5.72362">
        <ele>349.6</ele>
        <time>2022-07-05T08:22:14Z</time>
      </trkpt>
      <trkpt lat="48.45401" lon="5.72407">
        <ele>352.8</ele>
        <time>2022-07-05T08:22:32Z</time>
      </trkpt>
      <trkpt lat="48.45424" lon="5.72455">
        <ele>355.8</ele>
        <time>2022-07-05T08:22:54Z</time>
      </trkpt>
      <trkpt lat="48.45442" lon="5.72498">
        <ele>358.8</ele>
        <time>2022-07-05T08:23:14Z</time>
      </trkpt>
      <trkpt lat="48.45456" lon="5.7254">
        <ele>361.8</ele>
        <time>2022-07-05T08:23:34Z</time>
      </trkpt>
      <trkpt lat="48.45477" lon="5.72595">
        <ele>364.8</ele>
        <time>2022-07-05T08:23:56Z</time>
      </trkpt>
      <trkpt lat="48.45478" lon="5.72598">
        <ele>365</ele>
        <time>2022-07-05T08:23:57Z</time>
      </trkpt>
      <trkpt lat="48.45498" lon="5.72648">
        <ele>368</ele>
        <time>2022-07-05T08:24:18Z</time>
      </trkpt>
      <trkpt lat="48.45514" lon="5.72707">
        <ele>371.2</ele>
        <time>2022-07-05T08:24:41Z</time>
      </trkpt>
      <trkpt lat="48.45525" lon="5.72763">
        <ele>374.4</ele>
        <time>2022-07-05T08:25:03Z</time>
      </trkpt>
      <trkpt lat="48.45541" lon="5.72814">
        <ele>377.4</ele>
        <time>2022-07-05T08:25:24Z</time>
      </trkpt>
      <trkpt lat="48.45568" lon="5.7286">
        <ele>380.4</ele>
        <time>2022-07-05T08:25:46Z</time>
      </trkpt>
      <trkpt lat="48.45588" lon="5.72906">
        <ele>383.6</ele>
        <time>2022-07-05T08:26:10Z</time>
      </trkpt>
      <trkpt lat="48.45605" lon="5.72962">
        <ele>386.8</ele>
        <time>2022-07-05T08:26:33Z</time>
      </trkpt>
      <trkpt lat="48.45631" lon="5.73013">
        <ele>389.8</ele>
        <time>2022-07-05T08:26:55Z</time>
      </trkpt>
      <trkpt lat="48.45653" lon="5.73058">
        <ele>392.8</ele>
        <time>2022-07-05T08:27:16Z</time>
      </trkpt>
      <trkpt lat="48.45682" lon="5.73108">
        <ele>396</ele>
        <time>2022-07-05T08:27:38Z</time>
      </trkpt>
      <trkpt lat="48.45707" lon="5.73168">
        <ele>399</ele>
        <time>2022-07-05T08:28:03Z</time>
      </trkpt>
      <trkpt lat="48.45738" lon="5.73246">
        <ele>401.4</ele>
        <time>2022-07-05T08:28:32Z</time>
      </trkpt>
      <trkpt lat="48.45752" lon="5.73299">
        <ele>401.8</ele>
        <time>2022-07-05T08:28:48Z</time>
      </trkpt>
      <trkpt lat="48.45753" lon="5.73304">
        <ele>401.8</ele>
        <time>2022-07-05T08:28:50Z</time>
      </trkpt>
      <trkpt lat="48.45755" lon="5.73306">
        <ele>401.8</ele>
        <time>2022-07-05T08:28:58Z</time>
      </trkpt>
      <trkpt lat="48.4577" lon="5.73317">
        <ele>402.4</ele>
        <time>2022-07-05T08:30:00Z</time>
      </trkpt>
      <trkpt lat="48.4577" lon="5.73321">
        <ele>402.4</ele>
        <time>2022-07-05T08:30:01Z</time>
      </trkpt>
      <trkpt lat="48.45775" lon="5.73407">
        <ele>403</ele>
        <time>2022-07-05T08:30:19Z</time>
      </trkpt>
      <trkpt lat="48.45789" lon="5.73493">
        <ele>403.4</ele>
        <time>2022-07-05T08:30:35Z</time>
      </trkpt>
      <trkpt lat="48.45804" lon="5.73581">
        <ele>403.4</ele>
        <time>2022-07-05T08:30:49Z</time>
      </trkpt>
      <trkpt lat="48.45826" lon="5.73664">
        <ele>401.2</ele>
        <time>2022-07-05T08:31:00Z</time>
      </trkpt>
      <trkpt lat="48.45869" lon="5.73737">
        <ele>398.2</ele>
        <time>2022-07-05T08:31:08Z</time>
      </trkpt>
      <trkpt lat="48.45905" lon="5.73793">
        <ele>394.2</ele>
        <time>2022-07-05T08:31:13Z</time>
      </trkpt>
      <trkpt lat="48.45943" lon="5.73837">
        <ele>390.6</ele>
        <time>2022-07-05T08:31:17Z</time>
      </trkpt>
      <trkpt lat="48.45997" lon="5.73882">
        <ele>387.2</ele>
        <time>2022-07-05T08:31:22Z</time>
      </trkpt>
      <trkpt lat="48.46033" lon="5.73906">
        <ele>383.6</ele>
        <time>2022-07-05T08:31:25Z</time>
      </trkpt>
      <trkpt lat="48.46079" lon="5.73945">
        <ele>380.2</ele>
        <time>2022-07-05T08:31:29Z</time>
      </trkpt>
      <trkpt lat="48.46123" lon="5.73992">
        <ele>376.4</ele>
        <time>2022-07-05T08:31:33Z</time>
      </trkpt>
      <trkpt lat="48.46174" lon="5.74063">
        <ele>373.6</ele>
        <time>2022-07-05T08:31:38Z</time>
      </trkpt>
      <trkpt lat="48.46213" lon="5.7412">
        <ele>368.8</ele>
        <time>2022-07-05T08:31:42Z</time>
      </trkpt>
      <trkpt lat="48.46233" lon="5.74149">
        <ele>365.2</ele>
        <time>2022-07-05T08:31:44Z</time>
      </trkpt>
      <trkpt lat="48.46261" lon="5.74196">
        <ele>362.2</ele>
        <time>2022-07-05T08:31:47Z</time>
      </trkpt>
      <trkpt lat="48.46287" lon="5.74244">
        <ele>359</ele>
        <time>2022-07-05T08:31:50Z</time>
      </trkpt>
      <trkpt lat="48.46302" lon="5.74274">
        <ele>357.8</ele>
        <time>2022-07-05T08:31:52Z</time>
      </trkpt>
      <trkpt lat="48.46323" lon="5.74315">
        <ele>353.6</ele>
        <time>2022-07-05T08:31:55Z</time>
      </trkpt>
      <trkpt lat="48.4633" lon="5.74326">
        <ele>352.6</ele>
        <time>2022-07-05T08:31:56Z</time>
      </trkpt>
      <trkpt lat="48.46337" lon="5.74335">
        <ele>351.6</ele>
        <time>2022-07-05T08:31:57Z</time>
      </trkpt>
      <trkpt lat="48.46345" lon="5.74342">
        <ele>351.4</ele>
        <time>2022-07-05T08:31:58Z</time>
      </trkpt>
      <trkpt lat="48.46352" lon="5.74346">
        <ele>351.6</ele>
        <time>2022-07-05T08:31:59Z</time>
      </trkpt>
      <trkpt lat="48.4636" lon="5.74349">
        <ele>351.4</ele>
        <time>2022-07-05T08:32:00Z</time>
      </trkpt>
      <trkpt lat="48.46369" lon="5.74348">
        <ele>350.6</ele>
        <time>2022-07-05T08:32:01Z</time>
      </trkpt>
      <trkpt lat="48.46377" lon="5.74346">
        <ele>349.8</ele>
        <time>2022-07-05T08:32:02Z</time>
      </trkpt>
      <trkpt lat="48.46385" lon="5.74344">
        <ele>349.4</ele>
        <time>2022-07-05T08:32:03Z</time>
      </trkpt>
      <trkpt lat="48.46392" lon="5.74344">
        <ele>349.4</ele>
        <time>2022-07-05T08:32:04Z</time>
      </trkpt>
      <trkpt lat="48.464" lon="5.74345">
        <ele>349.2</ele>
        <time>2022-07-05T08:32:05Z</time>
      </trkpt>
      <trkpt lat="48.46404" lon="5.74355">
        <ele>348.4</ele>
        <time>2022-07-05T08:32:06Z</time>
      </trkpt>
      <trkpt lat="48.46406" lon="5.74364">
        <ele>347.2</ele>
        <time>2022-07-05T08:32:07Z</time>
      </trkpt>
      <trkpt lat="48.46405" lon="5.74375">
        <ele>346.2</ele>
        <time>2022-07-05T08:32:08Z</time>
      </trkpt>
      <trkpt lat="48.46402" lon="5.74386">
        <ele>345.4</ele>
        <time>2022-07-05T08:32:09Z</time>
      </trkpt>
      <trkpt lat="48.46396" lon="5.74395">
        <ele>345.2</ele>
        <time>2022-07-05T08:32:10Z</time>
      </trkpt>
      <trkpt lat="48.46389" lon="5.74401">
        <ele>345</ele>
        <time>2022-07-05T08:32:11Z</time>
      </trkpt>
      <trkpt lat="48.46381" lon="5.74406">
        <ele>344.8</ele>
        <time>2022-07-05T08:32:12Z</time>
      </trkpt>
      <trkpt lat="48.46373" lon="5.74409">
        <ele>344.4</ele>
        <time>2022-07-05T08:32:13Z</time>
      </trkpt>
      <trkpt lat="48.46364" lon="5.74411">
        <ele>343.6</ele>
        <time>2022-07-05T08:32:14Z</time>
      </trkpt>
      <trkpt lat="48.46354" lon="5.74414">
        <ele>342.6</ele>
        <time>2022-07-05T08:32:15Z</time>
      </trkpt>
      <trkpt lat="48.46295" lon="5.7443">
        <ele>339.2</ele>
        <time>2022-07-05T08:32:21Z</time>
      </trkpt>
      <trkpt lat="48.46251" lon="5.74438">
        <ele>335.2</ele>
        <time>2022-07-05T08:32:25Z</time>
      </trkpt>
      <trkpt lat="48.46239" lon="5.74438">
        <ele>334.2</ele>
        <time>2022-07-05T08:32:26Z</time>
      </trkpt>
      <trkpt lat="48.46177" lon="5.74429">
        <ele>331.2</ele>
        <time>2022-07-05T08:32:31Z</time>
      </trkpt>
      <trkpt lat="48.46128" lon="5.74421">
        <ele>327.6</ele>
        <time>2022-07-05T08:32:35Z</time>
      </trkpt>
      <trkpt lat="48.46094" lon="5.74418">
        <ele>324.6</ele>
        <time>2022-07-05T08:32:38Z</time>
      </trkpt>
      <trkpt lat="48.46083" lon="5.74418">
        <ele>323.6</ele>
        <time>2022-07-05T08:32:39Z</time>
      </trkpt>
      <trkpt lat="48.46071" lon="5.7442">
        <ele>323.2</ele>
        <time>2022-07-05T08:32:40Z</time>
      </trkpt>
      <trkpt lat="48.46059" lon="5.74424">
        <ele>322.2</ele>
        <time>2022-07-05T08:32:41Z</time>
      </trkpt>
      <trkpt lat="48.46007" lon="5.74458">
        <ele>318.8</ele>
        <time>2022-07-05T08:32:47Z</time>
      </trkpt>
      <trkpt lat="48.45996" lon="5.7447">
        <ele>318.4</ele>
        <time>2022-07-05T08:32:49Z</time>
      </trkpt>
      <trkpt lat="48.45992" lon="5.74476">
        <ele>318.4</ele>
        <time>2022-07-05T08:32:50Z</time>
      </trkpt>
      <trkpt lat="48.45989" lon="5.74483">
        <ele>318.2</ele>
        <time>2022-07-05T08:32:51Z</time>
      </trkpt>
      <trkpt lat="48.45987" lon="5.7449">
        <ele>318.2</ele>
        <time>2022-07-05T08:32:52Z</time>
      </trkpt>
      <trkpt lat="48.45987" lon="5.74497">
        <ele>318.2</ele>
        <time>2022-07-05T08:32:53Z</time>
      </trkpt>
      <trkpt lat="48.45986" lon="5.74505">
        <ele>318.4</ele>
        <time>2022-07-05T08:32:54Z</time>
      </trkpt>
      <trkpt lat="48.45983" lon="5.74582">
        <ele>315.4</ele>
        <time>2022-07-05T08:33:02Z</time>
      </trkpt>
      <trkpt lat="48.45976" lon="5.74645">
        <ele>313.2</ele>
        <time>2022-07-05T08:33:07Z</time>
      </trkpt>
      <trkpt lat="48.45983" lon="5.74731">
        <ele>310</ele>
        <time>2022-07-05T08:33:13Z</time>
      </trkpt>
      <trkpt lat="48.45987" lon="5.74745">
        <ele>309.6</ele>
        <time>2022-07-05T08:33:14Z</time>
      </trkpt>
      <trkpt lat="48.46002" lon="5.74795">
        <ele>306.8</ele>
        <time>2022-07-05T08:33:18Z</time>
      </trkpt>
      <trkpt lat="48.46007" lon="5.74807">
        <ele>306.6</ele>
        <time>2022-07-05T08:33:19Z</time>
      </trkpt>
      <trkpt lat="48.46026" lon="5.74853">
        <ele>303.6</ele>
        <time>2022-07-05T08:33:23Z</time>
      </trkpt>
      <trkpt lat="48.4604" lon="5.74889">
        <ele>302</ele>
        <time>2022-07-05T08:33:26Z</time>
      </trkpt>
      <trkpt lat="48.46054" lon="5.74944">
        <ele>298.4</ele>
        <time>2022-07-05T08:33:30Z</time>
      </trkpt>
      <trkpt lat="48.46061" lon="5.74971">
        <ele>297.4</ele>
        <time>2022-07-05T08:33:32Z</time>
      </trkpt>
      <trkpt lat="48.46086" lon="5.7506">
        <ele>295.4</ele>
        <time>2022-07-05T08:33:39Z</time>
      </trkpt>
      <trkpt lat="48.46111" lon="5.75143">
        <ele>294.6</ele>
        <time>2022-07-05T08:33:46Z</time>
      </trkpt>
      <trkpt lat="48.46122" lon="5.75175">
        <ele>290.6</ele>
        <time>2022-07-05T08:33:49Z</time>
      </trkpt>
      <trkpt lat="48.46133" lon="5.75206">
        <ele>289</ele>
        <time>2022-07-05T08:33:52Z</time>
      </trkpt>
      <trkpt lat="48.46166" lon="5.75285">
        <ele>288.6</ele>
        <time>2022-07-05T08:34:00Z</time>
      </trkpt>
      <trkpt lat="48.46202" lon="5.7536">
        <ele>287</ele>
        <time>2022-07-05T08:34:08Z</time>
      </trkpt>
      <trkpt lat="48.46231" lon="5.75437">
        <ele>286.4</ele>
        <time>2022-07-05T08:34:16Z</time>
      </trkpt>
      <trkpt lat="48.4626" lon="5.75513">
        <ele>286</ele>
        <time>2022-07-05T08:34:24Z</time>
      </trkpt>
      <trkpt lat="48.46292" lon="5.75596">
        <ele>285</ele>
        <time>2022-07-05T08:34:33Z</time>
      </trkpt>
      <trkpt lat="48.46324" lon="5.7567">
        <ele>283.8</ele>
        <time>2022-07-05T08:34:41Z</time>
      </trkpt>
      <trkpt lat="48.46364" lon="5.75737">
        <ele>282.2</ele>
        <time>2022-07-05T08:34:49Z</time>
      </trkpt>
      <trkpt lat="48.46405" lon="5.75803">
        <ele>281.2</ele>
        <time>2022-07-05T08:34:57Z</time>
      </trkpt>
      <trkpt lat="48.46445" lon="5.75868">
        <ele>280.2</ele>
        <time>2022-07-05T08:35:05Z</time>
      </trkpt>
      <trkpt lat="48.46488" lon="5.75937">
        <ele>280.4</ele>
        <time>2022-07-05T08:35:14Z</time>
      </trkpt>
      <trkpt lat="48.46527" lon="5.76002">
        <ele>279.8</ele>
        <time>2022-07-05T08:35:23Z</time>
      </trkpt>
      <trkpt lat="48.4657" lon="5.76072">
        <ele>280</ele>
        <time>2022-07-05T08:35:33Z</time>
      </trkpt>
      <trkpt lat="48.46611" lon="5.7614">
        <ele>280.6</ele>
        <time>2022-07-05T08:35:43Z</time>
      </trkpt>
      <trkpt lat="48.46651" lon="5.76207">
        <ele>279.4</ele>
        <time>2022-07-05T08:35:53Z</time>
      </trkpt>
      <trkpt lat="48.46692" lon="5.76278">
        <ele>279.8</ele>
        <time>2022-07-05T08:36:04Z</time>
      </trkpt>
      <trkpt lat="48.46727" lon="5.76348">
        <ele>279.4</ele>
        <time>2022-07-05T08:36:14Z</time>
      </trkpt>
      <trkpt lat="48.46763" lon="5.76422">
        <ele>280.2</ele>
        <time>2022-07-05T08:36:25Z</time>
      </trkpt>
      <trkpt lat="48.46783" lon="5.76505">
        <ele>282</ele>
        <time>2022-07-05T08:36:36Z</time>
      </trkpt>
      <trkpt lat="48.46801" lon="5.76583">
        <ele>283.8</ele>
        <time>2022-07-05T08:36:51Z</time>
      </trkpt>
      <trkpt lat="48.46841" lon="5.76641">
        <ele>282.4</ele>
        <time>2022-07-05T08:37:03Z</time>
      </trkpt>
      <trkpt lat="48.4688" lon="5.76706">
        <ele>281</ele>
        <time>2022-07-05T08:37:12Z</time>
      </trkpt>
      <trkpt lat="48.46923" lon="5.76772">
        <ele>280.8</ele>
        <time>2022-07-05T08:37:22Z</time>
      </trkpt>
      <trkpt lat="48.46964" lon="5.76832">
        <ele>280.4</ele>
        <time>2022-07-05T08:37:34Z</time>
      </trkpt>
      <trkpt lat="48.47007" lon="5.76889">
        <ele>282.6</ele>
        <time>2022-07-05T08:37:50Z</time>
      </trkpt>
      <trkpt lat="48.47029" lon="5.76926">
        <ele>285.6</ele>
        <time>2022-07-05T08:38:07Z</time>
      </trkpt>
      <trkpt lat="48.47041" lon="5.76942">
        <ele>287.6</ele>
        <time>2022-07-05T08:38:17Z</time>
      </trkpt>
      <trkpt lat="48.47043" lon="5.76942">
        <ele>287.6</ele>
        <time>2022-07-05T08:38:18Z</time>
      </trkpt>
      <trkpt lat="48.47086" lon="5.76998">
        <ele>289.8</ele>
        <time>2022-07-05T08:38:43Z</time>
      </trkpt>
      <trkpt lat="48.47122" lon="5.77077">
        <ele>291.4</ele>
        <time>2022-07-05T08:39:04Z</time>
      </trkpt>
      <trkpt lat="48.47121" lon="5.77164">
        <ele>292.8</ele>
        <time>2022-07-05T08:39:21Z</time>
      </trkpt>
      <trkpt lat="48.47155" lon="5.77232">
        <ele>293</ele>
        <time>2022-07-05T08:39:35Z</time>
      </trkpt>
      <trkpt lat="48.47194" lon="5.77297">
        <ele>292.4</ele>
        <time>2022-07-05T08:39:48Z</time>
      </trkpt>
      <trkpt lat="48.47232" lon="5.77362">
        <ele>293</ele>
        <time>2022-07-05T08:40:01Z</time>
      </trkpt>
      <trkpt lat="48.47267" lon="5.77432">
        <ele>293.6</ele>
        <time>2022-07-05T08:40:14Z</time>
      </trkpt>
      <trkpt lat="48.47278" lon="5.77468">
        <ele>294</ele>
        <time>2022-07-05T08:40:20Z</time>
      </trkpt>
      <trkpt lat="48.47277" lon="5.77553">
        <ele>295.2</ele>
        <time>2022-07-05T08:40:33Z</time>
      </trkpt>
      <trkpt lat="48.47287" lon="5.77636">
        <ele>296</ele>
        <time>2022-07-05T08:40:48Z</time>
      </trkpt>
      <trkpt lat="48.4732" lon="5.77708">
        <ele>298</ele>
        <time>2022-07-05T08:41:01Z</time>
      </trkpt>
      <trkpt lat="48.47356" lon="5.77781">
        <ele>298.8</ele>
        <time>2022-07-05T08:41:15Z</time>
      </trkpt>
      <trkpt lat="48.4739" lon="5.7785">
        <ele>299.6</ele>
        <time>2022-07-05T08:41:28Z</time>
      </trkpt>
      <trkpt lat="48.47422" lon="5.77923">
        <ele>299.6</ele>
        <time>2022-07-05T08:41:41Z</time>
      </trkpt>
      <trkpt lat="48.47451" lon="5.77995">
        <ele>299.8</ele>
        <time>2022-07-05T08:41:54Z</time>
      </trkpt>
      <trkpt lat="48.47453" lon="5.78001">
        <ele>300</ele>
        <time>2022-07-05T08:41:55Z</time>
      </trkpt>
      <trkpt lat="48.47484" lon="5.78074">
        <ele>300</ele>
        <time>2022-07-05T08:42:08Z</time>
      </trkpt>
      <trkpt lat="48.47518" lon="5.7815">
        <ele>299.6</ele>
        <time>2022-07-05T08:42:21Z</time>
      </trkpt>
      <trkpt lat="48.47547" lon="5.78226">
        <ele>299.8</ele>
        <time>2022-07-05T08:42:33Z</time>
      </trkpt>
      <trkpt lat="48.47575" lon="5.78306">
        <ele>299.8</ele>
        <time>2022-07-05T08:42:45Z</time>
      </trkpt>
      <trkpt lat="48.47599" lon="5.7839">
        <ele>299.8</ele>
        <time>2022-07-05T08:42:57Z</time>
      </trkpt>
      <trkpt lat="48.4761" lon="5.78473">
        <ele>300.6</ele>
        <time>2022-07-05T08:43:09Z</time>
      </trkpt>
      <trkpt lat="48.47613" lon="5.7856">
        <ele>301.6</ele>
        <time>2022-07-05T08:43:22Z</time>
      </trkpt>
      <trkpt lat="48.47614" lon="5.78586">
        <ele>301.8</ele>
        <time>2022-07-05T08:43:26Z</time>
      </trkpt>
      <trkpt lat="48.47631" lon="5.78665">
        <ele>303.6</ele>
        <time>2022-07-05T08:43:38Z</time>
      </trkpt>
      <trkpt lat="48.47667" lon="5.78734">
        <ele>303.2</ele>
        <time>2022-07-05T08:43:50Z</time>
      </trkpt>
      <trkpt lat="48.47702" lon="5.78808">
        <ele>302.4</ele>
        <time>2022-07-05T08:44:01Z</time>
      </trkpt>
      <trkpt lat="48.47704" lon="5.78818">
        <ele>302.4</ele>
        <time>2022-07-05T08:44:02Z</time>
      </trkpt>
      <trkpt lat="48.47705" lon="5.78827">
        <ele>302</ele>
        <time>2022-07-05T08:44:03Z</time>
      </trkpt>
      <trkpt lat="48.47705" lon="5.78837">
        <ele>301.2</ele>
        <time>2022-07-05T08:44:04Z</time>
      </trkpt>
      <trkpt lat="48.47705" lon="5.78848">
        <ele>300.4</ele>
        <time>2022-07-05T08:44:05Z</time>
      </trkpt>
      <trkpt lat="48.47709" lon="5.78937">
        <ele>300.4</ele>
        <time>2022-07-05T08:44:13Z</time>
      </trkpt>
      <trkpt lat="48.47719" lon="5.79016">
        <ele>297.4</ele>
        <time>2022-07-05T08:44:20Z</time>
      </trkpt>
      <trkpt lat="48.47731" lon="5.79109">
        <ele>295.8</ele>
        <time>2022-07-05T08:44:28Z</time>
      </trkpt>
      <trkpt lat="48.47753" lon="5.79198">
        <ele>294.2</ele>
        <time>2022-07-05T08:44:36Z</time>
      </trkpt>
      <trkpt lat="48.47788" lon="5.79282">
        <ele>292.2</ele>
        <time>2022-07-05T08:44:44Z</time>
      </trkpt>
      <trkpt lat="48.47791" lon="5.79294">
        <ele>292</ele>
        <time>2022-07-05T08:44:45Z</time>
      </trkpt>
      <trkpt lat="48.47794" lon="5.79306">
        <ele>291.8</ele>
        <time>2022-07-05T08:44:46Z</time>
      </trkpt>
      <trkpt lat="48.47795" lon="5.79319">
        <ele>291.4</ele>
        <time>2022-07-05T08:44:47Z</time>
      </trkpt>
      <trkpt lat="48.47795" lon="5.79331">
        <ele>290.8</ele>
        <time>2022-07-05T08:44:48Z</time>
      </trkpt>
      <trkpt lat="48.47793" lon="5.79344">
        <ele>290.4</ele>
        <time>2022-07-05T08:44:49Z</time>
      </trkpt>
      <trkpt lat="48.4779" lon="5.79355">
        <ele>290.2</ele>
        <time>2022-07-05T08:44:50Z</time>
      </trkpt>
      <trkpt lat="48.47786" lon="5.79366">
        <ele>290</ele>
        <time>2022-07-05T08:44:51Z</time>
      </trkpt>
      <trkpt lat="48.47781" lon="5.79375">
        <ele>289.8</ele>
        <time>2022-07-05T08:44:52Z</time>
      </trkpt>
      <trkpt lat="48.47777" lon="5.79384">
        <ele>289.8</ele>
        <time>2022-07-05T08:44:53Z</time>
      </trkpt>
      <trkpt lat="48.47753" lon="5.79439">
        <ele>289.4</ele>
        <time>2022-07-05T08:44:59Z</time>
      </trkpt>
      <trkpt lat="48.47752" lon="5.79449">
        <ele>289.4</ele>
        <time>2022-07-05T08:45:00Z</time>
      </trkpt>
      <trkpt lat="48.47752" lon="5.79459">
        <ele>289.6</ele>
        <time>2022-07-05T08:45:01Z</time>
      </trkpt>
      <trkpt lat="48.47753" lon="5.79469">
        <ele>289.6</ele>
        <time>2022-07-05T08:45:02Z</time>
      </trkpt>
      <trkpt lat="48.47755" lon="5.79478">
        <ele>289.4</ele>
        <time>2022-07-05T08:45:03Z</time>
      </trkpt>
      <trkpt lat="48.47758" lon="5.79485">
        <ele>289.4</ele>
        <time>2022-07-05T08:45:04Z</time>
      </trkpt>
      <trkpt lat="48.47762" lon="5.79492">
        <ele>289.6</ele>
        <time>2022-07-05T08:45:05Z</time>
      </trkpt>
      <trkpt lat="48.47766" lon="5.79498">
        <ele>289.8</ele>
        <time>2022-07-05T08:45:06Z</time>
      </trkpt>
      <trkpt lat="48.4777" lon="5.79504">
        <ele>290.2</ele>
        <time>2022-07-05T08:45:07Z</time>
      </trkpt>
      <trkpt lat="48.47774" lon="5.79509">
        <ele>290.4</ele>
        <time>2022-07-05T08:45:08Z</time>
      </trkpt>
      <trkpt lat="48.47822" lon="5.79564">
        <ele>292.2</ele>
        <time>2022-07-05T08:45:19Z</time>
      </trkpt>
      <trkpt lat="48.47867" lon="5.79619">
        <ele>291.8</ele>
        <time>2022-07-05T08:45:29Z</time>
      </trkpt>
      <trkpt lat="48.47909" lon="5.79678">
        <ele>291.2</ele>
        <time>2022-07-05T08:45:39Z</time>
      </trkpt>
      <trkpt lat="48.47947" lon="5.79742">
        <ele>290.4</ele>
        <time>2022-07-05T08:45:49Z</time>
      </trkpt>
      <trkpt lat="48.47968" lon="5.79824">
        <ele>289.2</ele>
        <time>2022-07-05T08:46:00Z</time>
      </trkpt>
      <trkpt lat="48.47983" lon="5.79908">
        <ele>289</ele>
        <time>2022-07-05T08:46:11Z</time>
      </trkpt>
      <trkpt lat="48.47991" lon="5.79952">
        <ele>289.8</ele>
        <time>2022-07-05T08:46:17Z</time>
      </trkpt>
      <trkpt lat="48.47993" lon="5.79959">
        <ele>289.8</ele>
        <time>2022-07-05T08:46:18Z</time>
      </trkpt>
      <trkpt lat="48.47994" lon="5.79966">
        <ele>290</ele>
        <time>2022-07-05T08:46:19Z</time>
      </trkpt>
      <trkpt lat="48.48015" lon="5.80045">
        <ele>289.8</ele>
        <time>2022-07-05T08:46:30Z</time>
      </trkpt>
      <trkpt lat="48.48032" lon="5.80094">
        <ele>289.6</ele>
        <time>2022-07-05T08:46:37Z</time>
      </trkpt>
      <trkpt lat="48.48061" lon="5.80151">
        <ele>288.2</ele>
        <time>2022-07-05T08:46:46Z</time>
      </trkpt>
      <trkpt lat="48.48074" lon="5.80174">
        <ele>289.4</ele>
        <time>2022-07-05T08:46:50Z</time>
      </trkpt>
      <trkpt lat="48.48114" lon="5.80238">
        <ele>290.6</ele>
        <time>2022-07-05T08:47:03Z</time>
      </trkpt>
      <trkpt lat="48.48139" lon="5.80309">
        <ele>292.8</ele>
        <time>2022-07-05T08:47:22Z</time>
      </trkpt>
      <trkpt lat="48.48113" lon="5.8035">
        <ele>295.8</ele>
        <time>2022-07-05T08:47:39Z</time>
      </trkpt>
      <trkpt lat="48.48099" lon="5.80367">
        <ele>296.6</ele>
        <time>2022-07-05T08:47:47Z</time>
      </trkpt>
      <trkpt lat="48.48098" lon="5.80369">
        <ele>296.6</ele>
        <time>2022-07-05T08:47:48Z</time>
      </trkpt>
      <trkpt lat="48.48099" lon="5.80371">
        <ele>296.6</ele>
        <time>2022-07-05T08:47:49Z</time>
      </trkpt>
      <trkpt lat="48.48099" lon="5.80373">
        <ele>296.6</ele>
        <time>2022-07-05T08:47:50Z</time>
      </trkpt>
      <trkpt lat="48.481" lon="5.80375">
        <ele>296.6</ele>
        <time>2022-07-05T08:47:51Z</time>
      </trkpt>
      <trkpt lat="48.481" lon="5.80376">
        <ele>296.8</ele>
        <time>2022-07-05T08:47:52Z</time>
      </trkpt>
      <trkpt lat="48.48101" lon="5.80376">
        <ele>296.6</ele>
        <time>2022-07-05T08:47:58Z</time>
      </trkpt>
      <trkpt lat="48.48111" lon="5.8038">
        <ele>296.8</ele>
        <time>2022-07-05T08:49:04Z</time>
      </trkpt>
      <trkpt lat="48.48137" lon="5.80415">
        <ele>294.6</ele>
        <time>2022-07-05T08:49:23Z</time>
      </trkpt>
      <trkpt lat="48.48144" lon="5.80418">
        <ele>295</ele>
        <time>2022-07-05T08:55:33Z</time>
      </trkpt>
      <trkpt lat="48.48147" lon="5.80416">
        <ele>295</ele>
        <time>2022-07-05T08:55:41Z</time>
      </trkpt>
      <trkpt lat="48.48139" lon="5.80409">
        <ele>295.2</ele>
        <time>2022-07-05T08:57:43Z</time>
      </trkpt>
      <trkpt lat="48.48138" lon="5.80407">
        <ele>295.2</ele>
        <time>2022-07-05T08:57:44Z</time>
      </trkpt>
      <trkpt lat="48.48136" lon="5.80405">
        <ele>295.2</ele>
        <time>2022-07-05T08:57:45Z</time>
      </trkpt>
      <trkpt lat="48.48134" lon="5.80402">
        <ele>295.2</ele>
        <time>2022-07-05T08:57:46Z</time>
      </trkpt>
      <trkpt lat="48.48132" lon="5.804">
        <ele>295.4</ele>
        <time>2022-07-05T08:57:47Z</time>
      </trkpt>
      <trkpt lat="48.4813" lon="5.80396">
        <ele>295.4</ele>
        <time>2022-07-05T08:57:48Z</time>
      </trkpt>
      <trkpt lat="48.48128" lon="5.80393">
        <ele>295.6</ele>
        <time>2022-07-05T08:57:49Z</time>
      </trkpt>
      <trkpt lat="48.48116" lon="5.80364">
        <ele>296.8</ele>
        <time>2022-07-05T08:57:58Z</time>
      </trkpt>
      <trkpt lat="48.48117" lon="5.80361">
        <ele>296.8</ele>
        <time>2022-07-05T08:57:59Z</time>
      </trkpt>
      <trkpt lat="48.48119" lon="5.80358">
        <ele>296.8</ele>
        <time>2022-07-05T08:58:00Z</time>
      </trkpt>
      <trkpt lat="48.48147" lon="5.80317">
        <ele>295.4</ele>
        <time>2022-07-05T08:58:12Z</time>
      </trkpt>
      <trkpt lat="48.48154" lon="5.8031">
        <ele>295.2</ele>
        <time>2022-07-05T08:58:14Z</time>
      </trkpt>
      <trkpt lat="48.48158" lon="5.80307">
        <ele>295</ele>
        <time>2022-07-05T08:58:15Z</time>
      </trkpt>
      <trkpt lat="48.48165" lon="5.80301">
        <ele>294.8</ele>
        <time>2022-07-05T08:58:17Z</time>
      </trkpt>
      <trkpt lat="48.48213" lon="5.80256">
        <ele>292.4</ele>
        <time>2022-07-05T08:58:28Z</time>
      </trkpt>
      <trkpt lat="48.4824" lon="5.80224">
        <ele>291.8</ele>
        <time>2022-07-05T08:58:34Z</time>
      </trkpt>
      <trkpt lat="48.48245" lon="5.80221">
        <ele>291.8</ele>
        <time>2022-07-05T08:58:35Z</time>
      </trkpt>
      <trkpt lat="48.48296" lon="5.80181">
        <ele>292.4</ele>
        <time>2022-07-05T08:58:50Z</time>
      </trkpt>
      <trkpt lat="48.48338" lon="5.80127">
        <ele>294.6</ele>
        <time>2022-07-05T08:59:11Z</time>
      </trkpt>
      <trkpt lat="48.4838" lon="5.80067">
        <ele>295.4</ele>
        <time>2022-07-05T08:59:30Z</time>
      </trkpt>
      <trkpt lat="48.48402" lon="5.80029">
        <ele>295.6</ele>
        <time>2022-07-05T08:59:39Z</time>
      </trkpt>
      <trkpt lat="48.48431" lon="5.79955">
        <ele>294.6</ele>
        <time>2022-07-05T08:59:51Z</time>
      </trkpt>
      <trkpt lat="48.48459" lon="5.7988">
        <ele>293.2</ele>
        <time>2022-07-05T09:00:02Z</time>
      </trkpt>
      <trkpt lat="48.48489" lon="5.798">
        <ele>291.4</ele>
        <time>2022-07-05T09:00:14Z</time>
      </trkpt>
      <trkpt lat="48.48523" lon="5.79724">
        <ele>290.8</ele>
        <time>2022-07-05T09:00:25Z</time>
      </trkpt>
      <trkpt lat="48.4854" lon="5.79701">
        <ele>290.4</ele>
        <time>2022-07-05T09:00:29Z</time>
      </trkpt>
      <trkpt lat="48.48544" lon="5.79696">
        <ele>290.2</ele>
        <time>2022-07-05T09:00:30Z</time>
      </trkpt>
      <trkpt lat="48.48583" lon="5.7965">
        <ele>290.4</ele>
        <time>2022-07-05T09:00:40Z</time>
      </trkpt>
      <trkpt lat="48.48587" lon="5.79646">
        <ele>290.6</ele>
        <time>2022-07-05T09:00:41Z</time>
      </trkpt>
      <trkpt lat="48.48591" lon="5.79643">
        <ele>290.8</ele>
        <time>2022-07-05T09:00:42Z</time>
      </trkpt>
      <trkpt lat="48.48595" lon="5.7964">
        <ele>291</ele>
        <time>2022-07-05T09:00:43Z</time>
      </trkpt>
      <trkpt lat="48.486" lon="5.79638">
        <ele>291</ele>
        <time>2022-07-05T09:00:44Z</time>
      </trkpt>
      <trkpt lat="48.48655" lon="5.79601">
        <ele>291.6</ele>
        <time>2022-07-05T09:00:57Z</time>
      </trkpt>
      <trkpt lat="48.48687" lon="5.79573">
        <ele>292.8</ele>
        <time>2022-07-05T09:01:04Z</time>
      </trkpt>
      <trkpt lat="48.48744" lon="5.79537">
        <ele>293.6</ele>
        <time>2022-07-05T09:01:16Z</time>
      </trkpt>
      <trkpt lat="48.488" lon="5.79528">
        <ele>294.2</ele>
        <time>2022-07-05T09:01:28Z</time>
      </trkpt>
      <trkpt lat="48.48805" lon="5.79526">
        <ele>294.2</ele>
        <time>2022-07-05T09:01:29Z</time>
      </trkpt>
      <trkpt lat="48.4886" lon="5.7949">
        <ele>294.4</ele>
        <time>2022-07-05T09:01:41Z</time>
      </trkpt>
      <trkpt lat="48.4889" lon="5.79464">
        <ele>295</ele>
        <time>2022-07-05T09:01:48Z</time>
      </trkpt>
      <trkpt lat="48.48894" lon="5.7946">
        <ele>295</ele>
        <time>2022-07-05T09:01:49Z</time>
      </trkpt>
      <trkpt lat="48.48914" lon="5.79441">
        <ele>295.2</ele>
        <time>2022-07-05T09:01:54Z</time>
      </trkpt>
      <trkpt lat="48.48927" lon="5.79433">
        <ele>295.2</ele>
        <time>2022-07-05T09:01:57Z</time>
      </trkpt>
      <trkpt lat="48.48982" lon="5.79411">
        <ele>295.8</ele>
        <time>2022-07-05T09:02:10Z</time>
      </trkpt>
      <trkpt lat="48.49036" lon="5.79387">
        <ele>296.4</ele>
        <time>2022-07-05T09:02:23Z</time>
      </trkpt>
      <trkpt lat="48.49044" lon="5.79382">
        <ele>296.6</ele>
        <time>2022-07-05T09:02:25Z</time>
      </trkpt>
      <trkpt lat="48.49064" lon="5.79372">
        <ele>297</ele>
        <time>2022-07-05T09:02:30Z</time>
      </trkpt>
      <trkpt lat="48.49068" lon="5.7937">
        <ele>297.2</ele>
        <time>2022-07-05T09:02:31Z</time>
      </trkpt>
      <trkpt lat="48.49082" lon="5.79358">
        <ele>297.6</ele>
        <time>2022-07-05T09:02:35Z</time>
      </trkpt>
      <trkpt lat="48.49086" lon="5.79355">
        <ele>297.6</ele>
        <time>2022-07-05T09:02:36Z</time>
      </trkpt>
      <trkpt lat="48.4909" lon="5.79353">
        <ele>297.8</ele>
        <time>2022-07-05T09:02:37Z</time>
      </trkpt>
      <trkpt lat="48.49145" lon="5.79312">
        <ele>298</ele>
        <time>2022-07-05T09:02:51Z</time>
      </trkpt>
      <trkpt lat="48.49198" lon="5.79282">
        <ele>299</ele>
        <time>2022-07-05T09:03:05Z</time>
      </trkpt>
      <trkpt lat="48.49252" lon="5.79261">
        <ele>300.4</ele>
        <time>2022-07-05T09:03:21Z</time>
      </trkpt>
      <trkpt lat="48.49308" lon="5.79251">
        <ele>302.2</ele>
        <time>2022-07-05T09:03:41Z</time>
      </trkpt>
      <trkpt lat="48.49363" lon="5.79254">
        <ele>304</ele>
        <time>2022-07-05T09:04:01Z</time>
      </trkpt>
      <trkpt lat="48.49413" lon="5.79217">
        <ele>306.4</ele>
        <time>2022-07-05T09:04:21Z</time>
      </trkpt>
      <trkpt lat="48.49459" lon="5.79161">
        <ele>307.8</ele>
        <time>2022-07-05T09:04:41Z</time>
      </trkpt>
      <trkpt lat="48.49502" lon="5.79101">
        <ele>310.2</ele>
        <time>2022-07-05T09:05:02Z</time>
      </trkpt>
      <trkpt lat="48.49543" lon="5.79044">
        <ele>312.6</ele>
        <time>2022-07-05T09:05:24Z</time>
      </trkpt>
      <trkpt lat="48.49586" lon="5.78988">
        <ele>314.2</ele>
        <time>2022-07-05T09:05:44Z</time>
      </trkpt>
      <trkpt lat="48.49611" lon="5.78911">
        <ele>315.4</ele>
        <time>2022-07-05T09:06:02Z</time>
      </trkpt>
      <trkpt lat="48.49626" lon="5.78824">
        <ele>315.6</ele>
        <time>2022-07-05T09:06:15Z</time>
      </trkpt>
      <trkpt lat="48.49654" lon="5.78752">
        <ele>318</ele>
        <time>2022-07-05T09:06:33Z</time>
      </trkpt>
      <trkpt lat="48.49701" lon="5.78704">
        <ele>319.2</ele>
        <time>2022-07-05T09:06:54Z</time>
      </trkpt>
      <trkpt lat="48.49723" lon="5.78646">
        <ele>322.2</ele>
        <time>2022-07-05T09:07:11Z</time>
      </trkpt>
      <trkpt lat="48.49733" lon="5.78603">
        <ele>323.2</ele>
        <time>2022-07-05T09:07:33Z</time>
      </trkpt>
      <trkpt lat="48.49732" lon="5.78596">
        <ele>323.6</ele>
        <time>2022-07-05T09:08:11Z</time>
      </trkpt>
      <trkpt lat="48.49734" lon="5.7859">
        <ele>323.6</ele>
        <time>2022-07-05T09:08:13Z</time>
      </trkpt>
      <trkpt lat="48.49764" lon="5.78563">
        <ele>326.6</ele>
        <time>2022-07-05T09:08:32Z</time>
      </trkpt>
      <trkpt lat="48.49766" lon="5.78563">
        <ele>326.8</ele>
        <time>2022-07-05T09:08:33Z</time>
      </trkpt>
      <trkpt lat="48.49767" lon="5.78562">
        <ele>327</ele>
        <time>2022-07-05T09:08:34Z</time>
      </trkpt>
      <trkpt lat="48.49793" lon="5.78555">
        <ele>330</ele>
        <time>2022-07-05T09:08:51Z</time>
      </trkpt>
      <trkpt lat="48.49823" lon="5.7854">
        <ele>333.2</ele>
        <time>2022-07-05T09:09:11Z</time>
      </trkpt>
      <trkpt lat="48.49828" lon="5.78538">
        <ele>334</ele>
        <time>2022-07-05T09:09:15Z</time>
      </trkpt>
      <trkpt lat="48.4983" lon="5.78539">
        <ele>334.2</ele>
        <time>2022-07-05T09:09:16Z</time>
      </trkpt>
      <trkpt lat="48.49831" lon="5.78538">
        <ele>334.4</ele>
        <time>2022-07-05T09:09:17Z</time>
      </trkpt>
      <trkpt lat="48.49833" lon="5.78538">
        <ele>334.6</ele>
        <time>2022-07-05T09:09:18Z</time>
      </trkpt>
      <trkpt lat="48.49834" lon="5.78538">
        <ele>334.8</ele>
        <time>2022-07-05T09:09:19Z</time>
      </trkpt>
      <trkpt lat="48.49835" lon="5.78538">
        <ele>334.8</ele>
        <time>2022-07-05T09:09:20Z</time>
      </trkpt>
      <trkpt lat="48.49837" lon="5.78538">
        <ele>335</ele>
        <time>2022-07-05T09:09:21Z</time>
      </trkpt>
      <trkpt lat="48.49839" lon="5.78538">
        <ele>335.2</ele>
        <time>2022-07-05T09:09:22Z</time>
      </trkpt>
      <trkpt lat="48.4984" lon="5.78538">
        <ele>335.2</ele>
        <time>2022-07-05T09:09:23Z</time>
      </trkpt>
      <trkpt lat="48.49841" lon="5.78538">
        <ele>335.4</ele>
        <time>2022-07-05T09:09:24Z</time>
      </trkpt>
      <trkpt lat="48.49872" lon="5.78538">
        <ele>338.4</ele>
        <time>2022-07-05T09:09:44Z</time>
      </trkpt>
      <trkpt lat="48.49896" lon="5.7852">
        <ele>341.6</ele>
        <time>2022-07-05T09:10:02Z</time>
      </trkpt>
      <trkpt lat="48.49916" lon="5.7844">
        <ele>342.4</ele>
        <time>2022-07-05T09:10:22Z</time>
      </trkpt>
      <trkpt lat="48.49922" lon="5.78419">
        <ele>342.8</ele>
        <time>2022-07-05T09:10:26Z</time>
      </trkpt>
      <trkpt lat="48.49949" lon="5.78342">
        <ele>342.8</ele>
        <time>2022-07-05T09:10:40Z</time>
      </trkpt>
      <trkpt lat="48.4996" lon="5.78315">
        <ele>343.2</ele>
        <time>2022-07-05T09:10:45Z</time>
      </trkpt>
      <trkpt lat="48.49962" lon="5.78309">
        <ele>343</ele>
        <time>2022-07-05T09:10:46Z</time>
      </trkpt>
      <trkpt lat="48.49964" lon="5.78304">
        <ele>343</ele>
        <time>2022-07-05T09:10:47Z</time>
      </trkpt>
      <trkpt lat="48.49973" lon="5.7828">
        <ele>343.8</ele>
        <time>2022-07-05T09:10:51Z</time>
      </trkpt>
      <trkpt lat="48.50006" lon="5.78204">
        <ele>343</ele>
        <time>2022-07-05T09:11:03Z</time>
      </trkpt>
      <trkpt lat="48.50041" lon="5.78136">
        <ele>344</ele>
        <time>2022-07-05T09:11:14Z</time>
      </trkpt>
      <trkpt lat="48.50085" lon="5.78079">
        <ele>345</ele>
        <time>2022-07-05T09:11:28Z</time>
      </trkpt>
      <trkpt lat="48.50134" lon="5.78036">
        <ele>347.6</ele>
        <time>2022-07-05T09:11:49Z</time>
      </trkpt>
      <trkpt lat="48.50181" lon="5.77997">
        <ele>350.6</ele>
        <time>2022-07-05T09:12:16Z</time>
      </trkpt>
      <trkpt lat="48.50215" lon="5.77973">
        <ele>353.6</ele>
        <time>2022-07-05T09:12:34Z</time>
      </trkpt>
      <trkpt lat="48.50264" lon="5.77936">
        <ele>355.2</ele>
        <time>2022-07-05T09:12:54Z</time>
      </trkpt>
      <trkpt lat="48.50315" lon="5.77904">
        <ele>357.2</ele>
        <time>2022-07-05T09:13:13Z</time>
      </trkpt>
      <trkpt lat="48.50369" lon="5.77904">
        <ele>359</ele>
        <time>2022-07-05T09:13:36Z</time>
      </trkpt>
      <trkpt lat="48.50427" lon="5.77939">
        <ele>360.4</ele>
        <time>2022-07-05T09:13:58Z</time>
      </trkpt>
      <trkpt lat="48.50434" lon="5.78029">
        <ele>362.6</ele>
        <time>2022-07-05T09:14:17Z</time>
      </trkpt>
      <trkpt lat="48.50426" lon="5.78115">
        <ele>364</ele>
        <time>2022-07-05T09:14:38Z</time>
      </trkpt>
      <trkpt lat="48.50417" lon="5.78198">
        <ele>366.6</ele>
        <time>2022-07-05T09:14:59Z</time>
      </trkpt>
      <trkpt lat="48.50409" lon="5.78286">
        <ele>369.2</ele>
        <time>2022-07-05T09:15:20Z</time>
      </trkpt>
      <trkpt lat="48.50399" lon="5.7837">
        <ele>371</ele>
        <time>2022-07-05T09:15:40Z</time>
      </trkpt>
      <trkpt lat="48.5039" lon="5.78455">
        <ele>374.2</ele>
        <time>2022-07-05T09:16:02Z</time>
      </trkpt>
      <trkpt lat="48.50381" lon="5.78539">
        <ele>377</ele>
        <time>2022-07-05T09:16:24Z</time>
      </trkpt>
      <trkpt lat="48.50372" lon="5.78624">
        <ele>379.8</ele>
        <time>2022-07-05T09:16:46Z</time>
      </trkpt>
      <trkpt lat="48.50362" lon="5.78709">
        <ele>381.6</ele>
        <time>2022-07-05T09:17:08Z</time>
      </trkpt>
      <trkpt lat="48.50354" lon="5.78796">
        <ele>383.6</ele>
        <time>2022-07-05T09:17:30Z</time>
      </trkpt>
      <trkpt lat="48.50345" lon="5.78882">
        <ele>385.8</ele>
        <time>2022-07-05T09:17:51Z</time>
      </trkpt>
      <trkpt lat="48.50337" lon="5.78966">
        <ele>388</ele>
        <time>2022-07-05T09:18:13Z</time>
      </trkpt>
      <trkpt lat="48.50341" lon="5.79052">
        <ele>390.2</ele>
        <time>2022-07-05T09:18:35Z</time>
      </trkpt>
      <trkpt lat="48.50393" lon="5.79083">
        <ele>393.2</ele>
        <time>2022-07-05T09:19:04Z</time>
      </trkpt>
      <trkpt lat="48.50432" lon="5.79098">
        <ele>396.4</ele>
        <time>2022-07-05T09:19:26Z</time>
      </trkpt>
      <trkpt lat="48.50486" lon="5.79117">
        <ele>399.4</ele>
        <time>2022-07-05T09:19:52Z</time>
      </trkpt>
      <trkpt lat="48.50523" lon="5.79135">
        <ele>402.6</ele>
        <time>2022-07-05T09:20:12Z</time>
      </trkpt>
      <trkpt lat="48.50585" lon="5.79155">
        <ele>405.6</ele>
        <time>2022-07-05T09:20:40Z</time>
      </trkpt>
      <trkpt lat="48.50586" lon="5.79155">
        <ele>405.6</ele>
        <time>2022-07-05T09:20:41Z</time>
      </trkpt>
      <trkpt lat="48.50588" lon="5.79156">
        <ele>405.8</ele>
        <time>2022-07-05T09:20:42Z</time>
      </trkpt>
      <trkpt lat="48.50589" lon="5.79156">
        <ele>405.8</ele>
        <time>2022-07-05T09:20:43Z</time>
      </trkpt>
      <trkpt lat="48.50592" lon="5.79157">
        <ele>406</ele>
        <time>2022-07-05T09:20:44Z</time>
      </trkpt>
      <trkpt lat="48.50593" lon="5.79157">
        <ele>406</ele>
        <time>2022-07-05T09:20:45Z</time>
      </trkpt>
      <trkpt lat="48.50645" lon="5.79174">
        <ele>409</ele>
        <time>2022-07-05T09:21:11Z</time>
      </trkpt>
      <trkpt lat="48.50675" lon="5.79179">
        <ele>410.8</ele>
        <time>2022-07-05T09:21:26Z</time>
      </trkpt>
      <trkpt lat="48.50676" lon="5.7918">
        <ele>410.8</ele>
        <time>2022-07-05T09:21:27Z</time>
      </trkpt>
      <trkpt lat="48.50744" lon="5.79195">
        <ele>412.6</ele>
        <time>2022-07-05T09:21:50Z</time>
      </trkpt>
      <trkpt lat="48.50806" lon="5.79207">
        <ele>412.2</ele>
        <time>2022-07-05T09:22:05Z</time>
      </trkpt>
      <trkpt lat="48.50863" lon="5.79218">
        <ele>411.8</ele>
        <time>2022-07-05T09:22:16Z</time>
      </trkpt>
      <trkpt lat="48.50906" lon="5.79229">
        <ele>408.6</ele>
        <time>2022-07-05T09:22:23Z</time>
      </trkpt>
      <trkpt lat="48.50966" lon="5.79239">
        <ele>408.2</ele>
        <time>2022-07-05T09:22:32Z</time>
      </trkpt>
      <trkpt lat="48.51028" lon="5.79247">
        <ele>406</ele>
        <time>2022-07-05T09:22:40Z</time>
      </trkpt>
      <trkpt lat="48.51092" lon="5.79251">
        <ele>404.2</ele>
        <time>2022-07-05T09:22:47Z</time>
      </trkpt>
      <trkpt lat="48.51143" lon="5.79265">
        <ele>401</ele>
        <time>2022-07-05T09:22:53Z</time>
      </trkpt>
      <trkpt lat="48.51198" lon="5.79305">
        <ele>397.8</ele>
        <time>2022-07-05T09:23:00Z</time>
      </trkpt>
      <trkpt lat="48.51228" lon="5.79336">
        <ele>396</ele>
        <time>2022-07-05T09:23:04Z</time>
      </trkpt>
      <trkpt lat="48.51276" lon="5.79404">
        <ele>393.2</ele>
        <time>2022-07-05T09:23:11Z</time>
      </trkpt>
      <trkpt lat="48.51304" lon="5.79446">
        <ele>391.4</ele>
        <time>2022-07-05T09:23:15Z</time>
      </trkpt>
      <trkpt lat="48.51349" lon="5.79511">
        <ele>388</ele>
        <time>2022-07-05T09:23:21Z</time>
      </trkpt>
      <trkpt lat="48.51398" lon="5.79572">
        <ele>385.2</ele>
        <time>2022-07-05T09:23:27Z</time>
      </trkpt>
      <trkpt lat="48.5145" lon="5.79632">
        <ele>382.8</ele>
        <time>2022-07-05T09:23:33Z</time>
      </trkpt>
      <trkpt lat="48.51498" lon="5.79691">
        <ele>381</ele>
        <time>2022-07-05T09:23:39Z</time>
      </trkpt>
      <trkpt lat="48.51547" lon="5.79758">
        <ele>378.4</ele>
        <time>2022-07-05T09:23:46Z</time>
      </trkpt>
      <trkpt lat="48.51603" lon="5.79807">
        <ele>376.2</ele>
        <time>2022-07-05T09:23:53Z</time>
      </trkpt>
      <trkpt lat="48.51665" lon="5.79851">
        <ele>373.4</ele>
        <time>2022-07-05T09:24:00Z</time>
      </trkpt>
      <trkpt lat="48.51714" lon="5.79884">
        <ele>370.2</ele>
        <time>2022-07-05T09:24:05Z</time>
      </trkpt>
      <trkpt lat="48.51766" lon="5.79906">
        <ele>366.8</ele>
        <time>2022-07-05T09:24:10Z</time>
      </trkpt>
      <trkpt lat="48.51801" lon="5.79913">
        <ele>363.6</ele>
        <time>2022-07-05T09:24:13Z</time>
      </trkpt>
      <trkpt lat="48.5187" lon="5.79928">
        <ele>360.4</ele>
        <time>2022-07-05T09:24:19Z</time>
      </trkpt>
      <trkpt lat="48.51937" lon="5.79943">
        <ele>357.6</ele>
        <time>2022-07-05T09:24:25Z</time>
      </trkpt>
      <trkpt lat="48.51992" lon="5.79952">
        <ele>354.6</ele>
        <time>2022-07-05T09:24:30Z</time>
      </trkpt>
      <trkpt lat="48.52025" lon="5.79962">
        <ele>353</ele>
        <time>2022-07-05T09:24:33Z</time>
      </trkpt>
      <trkpt lat="48.52067" lon="5.79987">
        <ele>350.8</ele>
        <time>2022-07-05T09:24:37Z</time>
      </trkpt>
      <trkpt lat="48.52076" lon="5.79997">
        <ele>350.4</ele>
        <time>2022-07-05T09:24:38Z</time>
      </trkpt>
      <trkpt lat="48.52084" lon="5.80009">
        <ele>350</ele>
        <time>2022-07-05T09:24:39Z</time>
      </trkpt>
      <trkpt lat="48.52092" lon="5.80021">
        <ele>349.2</ele>
        <time>2022-07-05T09:24:40Z</time>
      </trkpt>
      <trkpt lat="48.521" lon="5.80034">
        <ele>348.4</ele>
        <time>2022-07-05T09:24:41Z</time>
      </trkpt>
      <trkpt lat="48.52147" lon="5.80112">
        <ele>345.4</ele>
        <time>2022-07-05T09:24:47Z</time>
      </trkpt>
      <trkpt lat="48.52159" lon="5.80141">
        <ele>342.6</ele>
        <time>2022-07-05T09:24:49Z</time>
      </trkpt>
      <trkpt lat="48.52164" lon="5.80158">
        <ele>341.8</ele>
        <time>2022-07-05T09:24:50Z</time>
      </trkpt>
      <trkpt lat="48.5219" lon="5.80255">
        <ele>338</ele>
        <time>2022-07-05T09:24:56Z</time>
      </trkpt>
      <trkpt lat="48.52216" lon="5.80354">
        <ele>335</ele>
        <time>2022-07-05T09:25:02Z</time>
      </trkpt>
      <trkpt lat="48.52234" lon="5.8042">
        <ele>330.6</ele>
        <time>2022-07-05T09:25:06Z</time>
      </trkpt>
      <trkpt lat="48.52261" lon="5.80516">
        <ele>327</ele>
        <time>2022-07-05T09:25:12Z</time>
      </trkpt>
      <trkpt lat="48.52267" lon="5.80531">
        <ele>326.8</ele>
        <time>2022-07-05T09:25:13Z</time>
      </trkpt>
      <trkpt lat="48.52274" lon="5.80545">
        <ele>326.4</ele>
        <time>2022-07-05T09:25:14Z</time>
      </trkpt>
      <trkpt lat="48.52282" lon="5.80558">
        <ele>326.2</ele>
        <time>2022-07-05T09:25:15Z</time>
      </trkpt>
      <trkpt lat="48.52327" lon="5.80619">
        <ele>323</ele>
        <time>2022-07-05T09:25:20Z</time>
      </trkpt>
      <trkpt lat="48.52355" lon="5.80652">
        <ele>319.8</ele>
        <time>2022-07-05T09:25:23Z</time>
      </trkpt>
      <trkpt lat="48.52407" lon="5.80716">
        <ele>316.4</ele>
        <time>2022-07-05T09:25:29Z</time>
      </trkpt>
      <trkpt lat="48.52456" lon="5.80777">
        <ele>311.4</ele>
        <time>2022-07-05T09:25:35Z</time>
      </trkpt>
      <trkpt lat="48.52503" lon="5.80831">
        <ele>308.4</ele>
        <time>2022-07-05T09:25:41Z</time>
      </trkpt>
      <trkpt lat="48.52541" lon="5.80868">
        <ele>304.8</ele>
        <time>2022-07-05T09:25:46Z</time>
      </trkpt>
      <trkpt lat="48.52567" lon="5.80894">
        <ele>301.6</ele>
        <time>2022-07-05T09:25:50Z</time>
      </trkpt>
      <trkpt lat="48.52574" lon="5.809">
        <ele>301.4</ele>
        <time>2022-07-05T09:25:51Z</time>
      </trkpt>
      <trkpt lat="48.52581" lon="5.80903">
        <ele>301.2</ele>
        <time>2022-07-05T09:25:52Z</time>
      </trkpt>
      <trkpt lat="48.52588" lon="5.80905">
        <ele>301.2</ele>
        <time>2022-07-05T09:25:53Z</time>
      </trkpt>
      <trkpt lat="48.52594" lon="5.80906">
        <ele>301</ele>
        <time>2022-07-05T09:25:54Z</time>
      </trkpt>
      <trkpt lat="48.52599" lon="5.80905">
        <ele>300.6</ele>
        <time>2022-07-05T09:25:55Z</time>
      </trkpt>
      <trkpt lat="48.5262" lon="5.80906">
        <ele>298.8</ele>
        <time>2022-07-05T09:26:03Z</time>
      </trkpt>
      <trkpt lat="48.52618" lon="5.809">
        <ele>298.4</ele>
        <time>2022-07-05T09:26:07Z</time>
      </trkpt>
      <trkpt lat="48.52617" lon="5.80898">
        <ele>298.2</ele>
        <time>2022-07-05T09:26:12Z</time>
      </trkpt>
      <trkpt lat="48.52624" lon="5.80894">
        <ele>298.2</ele>
        <time>2022-07-05T09:27:34Z</time>
      </trkpt>
      <trkpt lat="48.52626" lon="5.80897">
        <ele>298.2</ele>
        <time>2022-07-05T09:27:35Z</time>
      </trkpt>
      <trkpt lat="48.5263" lon="5.809">
        <ele>297.8</ele>
        <time>2022-07-05T09:27:36Z</time>
      </trkpt>
      <trkpt lat="48.52633" lon="5.80903">
        <ele>297.2</ele>
        <time>2022-07-05T09:27:37Z</time>
      </trkpt>
      <trkpt lat="48.52637" lon="5.80904">
        <ele>296.8</ele>
        <time>2022-07-05T09:27:38Z</time>
      </trkpt>
      <trkpt lat="48.52641" lon="5.80904">
        <ele>296.6</ele>
        <time>2022-07-05T09:27:39Z</time>
      </trkpt>
      <trkpt lat="48.52645" lon="5.80903">
        <ele>296.2</ele>
        <time>2022-07-05T09:27:40Z</time>
      </trkpt>
      <trkpt lat="48.5265" lon="5.80902">
        <ele>296</ele>
        <time>2022-07-05T09:27:41Z</time>
      </trkpt>
      <trkpt lat="48.52655" lon="5.809">
        <ele>295.6</ele>
        <time>2022-07-05T09:27:42Z</time>
      </trkpt>
      <trkpt lat="48.52713" lon="5.8087">
        <ele>292.4</ele>
        <time>2022-07-05T09:27:53Z</time>
      </trkpt>
      <trkpt lat="48.52771" lon="5.80841">
        <ele>289.8</ele>
        <time>2022-07-05T09:28:04Z</time>
      </trkpt>
      <trkpt lat="48.52781" lon="5.80836">
        <ele>291.4</ele>
        <time>2022-07-05T09:28:06Z</time>
      </trkpt>
      <trkpt lat="48.52786" lon="5.80833">
        <ele>291.6</ele>
        <time>2022-07-05T09:28:07Z</time>
      </trkpt>
      <trkpt lat="48.52844" lon="5.8081">
        <ele>292.6</ele>
        <time>2022-07-05T09:28:20Z</time>
      </trkpt>
      <trkpt lat="48.52895" lon="5.80771">
        <ele>293.8</ele>
        <time>2022-07-05T09:28:37Z</time>
      </trkpt>
      <trkpt lat="48.52916" lon="5.80758">
        <ele>293.2</ele>
        <time>2022-07-05T09:28:43Z</time>
      </trkpt>
      <trkpt lat="48.52921" lon="5.80758">
        <ele>293</ele>
        <time>2022-07-05T09:28:44Z</time>
      </trkpt>
      <trkpt lat="48.52926" lon="5.80759">
        <ele>292.4</ele>
        <time>2022-07-05T09:28:45Z</time>
      </trkpt>
      <trkpt lat="48.52931" lon="5.80763">
        <ele>292</ele>
        <time>2022-07-05T09:28:46Z</time>
      </trkpt>
      <trkpt lat="48.52935" lon="5.80768">
        <ele>291</ele>
        <time>2022-07-05T09:28:47Z</time>
      </trkpt>
      <trkpt lat="48.5294" lon="5.80774">
        <ele>290.4</ele>
        <time>2022-07-05T09:28:48Z</time>
      </trkpt>
      <trkpt lat="48.52944" lon="5.80781">
        <ele>289.4</ele>
        <time>2022-07-05T09:28:49Z</time>
      </trkpt>
      <trkpt lat="48.52947" lon="5.8079">
        <ele>288.8</ele>
        <time>2022-07-05T09:28:50Z</time>
      </trkpt>
      <trkpt lat="48.5295" lon="5.80799">
        <ele>288.4</ele>
        <time>2022-07-05T09:28:51Z</time>
      </trkpt>
      <trkpt lat="48.52954" lon="5.80808">
        <ele>288</ele>
        <time>2022-07-05T09:28:52Z</time>
      </trkpt>
      <trkpt lat="48.52965" lon="5.80842">
        <ele>285</ele>
        <time>2022-07-05T09:28:55Z</time>
      </trkpt>
      <trkpt lat="48.52982" lon="5.80894">
        <ele>281</ele>
        <time>2022-07-05T09:28:59Z</time>
      </trkpt>
      <trkpt lat="48.52996" lon="5.80936">
        <ele>277.6</ele>
        <time>2022-07-05T09:29:02Z</time>
      </trkpt>
      <trkpt lat="48.53039" lon="5.81011">
        <ele>275.4</ele>
        <time>2022-07-05T09:29:09Z</time>
      </trkpt>
      <trkpt lat="48.53093" lon="5.81066">
        <ele>275</ele>
        <time>2022-07-05T09:29:17Z</time>
      </trkpt>
      <trkpt lat="48.53143" lon="5.81119">
        <ele>276</ele>
        <time>2022-07-05T09:29:27Z</time>
      </trkpt>
      <trkpt lat="48.53195" lon="5.81171">
        <ele>276.2</ele>
        <time>2022-07-05T09:29:38Z</time>
      </trkpt>
      <trkpt lat="48.53245" lon="5.81218">
        <ele>276</ele>
        <time>2022-07-05T09:29:49Z</time>
      </trkpt>
      <trkpt lat="48.53295" lon="5.81264">
        <ele>277.6</ele>
        <time>2022-07-05T09:30:00Z</time>
      </trkpt>
      <trkpt lat="48.53346" lon="5.81309">
        <ele>277.6</ele>
        <time>2022-07-05T09:30:11Z</time>
      </trkpt>
      <trkpt lat="48.53399" lon="5.81357">
        <ele>276.8</ele>
        <time>2022-07-05T09:30:23Z</time>
      </trkpt>
      <trkpt lat="48.53452" lon="5.81403">
        <ele>277.6</ele>
        <time>2022-07-05T09:30:35Z</time>
      </trkpt>
      <trkpt lat="48.53508" lon="5.81441">
        <ele>277</ele>
        <time>2022-07-05T09:30:48Z</time>
      </trkpt>
      <trkpt lat="48.53563" lon="5.8147">
        <ele>276.8</ele>
        <time>2022-07-05T09:31:02Z</time>
      </trkpt>
      <trkpt lat="48.53616" lon="5.81498">
        <ele>278.6</ele>
        <time>2022-07-05T09:31:19Z</time>
      </trkpt>
      <trkpt lat="48.5367" lon="5.81526">
        <ele>280.4</ele>
        <time>2022-07-05T09:31:41Z</time>
      </trkpt>
      <trkpt lat="48.53714" lon="5.8155">
        <ele>283.6</ele>
        <time>2022-07-05T09:32:05Z</time>
      </trkpt>
      <trkpt lat="48.53747" lon="5.8157">
        <ele>286.6</ele>
        <time>2022-07-05T09:32:27Z</time>
      </trkpt>
      <trkpt lat="48.53747" lon="5.81572">
        <ele>286.6</ele>
        <time>2022-07-05T09:32:33Z</time>
      </trkpt>
      <trkpt lat="48.53763" lon="5.81569">
        <ele>289.6</ele>
        <time>2022-07-05T09:34:33Z</time>
      </trkpt>
      <trkpt lat="48.53764" lon="5.81566">
        <ele>289.6</ele>
        <time>2022-07-05T09:34:34Z</time>
      </trkpt>
      <trkpt lat="48.53765" lon="5.81563">
        <ele>289.6</ele>
        <time>2022-07-05T09:34:35Z</time>
      </trkpt>
      <trkpt lat="48.53796" lon="5.81485">
        <ele>289.8</ele>
        <time>2022-07-05T09:34:51Z</time>
      </trkpt>
      <trkpt lat="48.53826" lon="5.81406">
        <ele>289.2</ele>
        <time>2022-07-05T09:35:03Z</time>
      </trkpt>
      <trkpt lat="48.53858" lon="5.81328">
        <ele>288.2</ele>
        <time>2022-07-05T09:35:14Z</time>
      </trkpt>
      <trkpt lat="48.53887" lon="5.81249">
        <ele>288</ele>
        <time>2022-07-05T09:35:25Z</time>
      </trkpt>
      <trkpt lat="48.53917" lon="5.81172">
        <ele>286.8</ele>
        <time>2022-07-05T09:35:35Z</time>
      </trkpt>
      <trkpt lat="48.53947" lon="5.81093">
        <ele>285.4</ele>
        <time>2022-07-05T09:35:44Z</time>
      </trkpt>
      <trkpt lat="48.53977" lon="5.81014">
        <ele>284.2</ele>
        <time>2022-07-05T09:35:53Z</time>
      </trkpt>
      <trkpt lat="48.54006" lon="5.80934">
        <ele>284</ele>
        <time>2022-07-05T09:36:03Z</time>
      </trkpt>
      <trkpt lat="48.54034" lon="5.80858">
        <ele>283.6</ele>
        <time>2022-07-05T09:36:13Z</time>
      </trkpt>
      <trkpt lat="48.54064" lon="5.80782">
        <ele>284.4</ele>
        <time>2022-07-05T09:36:24Z</time>
      </trkpt>
      <trkpt lat="48.54095" lon="5.80705">
        <ele>283</ele>
        <time>2022-07-05T09:36:36Z</time>
      </trkpt>
      <trkpt lat="48.54126" lon="5.80626">
        <ele>282.2</ele>
        <time>2022-07-05T09:36:48Z</time>
      </trkpt>
      <trkpt lat="48.54154" lon="5.80551">
        <ele>281.8</ele>
        <time>2022-07-05T09:36:59Z</time>
      </trkpt>
      <trkpt lat="48.54184" lon="5.8047">
        <ele>281</ele>
        <time>2022-07-05T09:37:11Z</time>
      </trkpt>
      <trkpt lat="48.54214" lon="5.8039">
        <ele>282</ele>
        <time>2022-07-05T09:37:23Z</time>
      </trkpt>
      <trkpt lat="48.54243" lon="5.80312">
        <ele>282.6</ele>
        <time>2022-07-05T09:37:36Z</time>
      </trkpt>
      <trkpt lat="48.54264" lon="5.80231">
        <ele>284.2</ele>
        <time>2022-07-05T09:37:51Z</time>
      </trkpt>
      <trkpt lat="48.54283" lon="5.80152">
        <ele>285.8</ele>
        <time>2022-07-05T09:38:07Z</time>
      </trkpt>
      <trkpt lat="48.54304" lon="5.80069">
        <ele>285</ele>
        <time>2022-07-05T09:38:22Z</time>
      </trkpt>
      <trkpt lat="48.54325" lon="5.79987">
        <ele>285.8</ele>
        <time>2022-07-05T09:38:36Z</time>
      </trkpt>
      <trkpt lat="48.54346" lon="5.79907">
        <ele>284.6</ele>
        <time>2022-07-05T09:38:48Z</time>
      </trkpt>
      <trkpt lat="48.54367" lon="5.79824">
        <ele>283.6</ele>
        <time>2022-07-05T09:38:59Z</time>
      </trkpt>
      <trkpt lat="48.54375" lon="5.79801">
        <ele>283.6</ele>
        <time>2022-07-05T09:39:02Z</time>
      </trkpt>
      <trkpt lat="48.54384" lon="5.79782">
        <ele>283.6</ele>
        <time>2022-07-05T09:39:05Z</time>
      </trkpt>
      <trkpt lat="48.54391" lon="5.79772">
        <ele>284.4</ele>
        <time>2022-07-05T09:39:07Z</time>
      </trkpt>
      <trkpt lat="48.54443" lon="5.79732">
        <ele>284.6</ele>
        <time>2022-07-05T09:39:20Z</time>
      </trkpt>
      <trkpt lat="48.54496" lon="5.79694">
        <ele>285.2</ele>
        <time>2022-07-05T09:39:33Z</time>
      </trkpt>
      <trkpt lat="48.54549" lon="5.79655">
        <ele>285.8</ele>
        <time>2022-07-05T09:39:48Z</time>
      </trkpt>
      <trkpt lat="48.54599" lon="5.79618">
        <ele>287.8</ele>
        <time>2022-07-05T09:40:05Z</time>
      </trkpt>
      <trkpt lat="48.54652" lon="5.79582">
        <ele>289.2</ele>
        <time>2022-07-05T09:40:22Z</time>
      </trkpt>
      <trkpt lat="48.54705" lon="5.79545">
        <ele>289.2</ele>
        <time>2022-07-05T09:40:42Z</time>
      </trkpt>
      <trkpt lat="48.54736" lon="5.79472">
        <ele>288.8</ele>
        <time>2022-07-05T09:40:58Z</time>
      </trkpt>
      <trkpt lat="48.54741" lon="5.79381">
        <ele>288.6</ele>
        <time>2022-07-05T09:41:08Z</time>
      </trkpt>
      <trkpt lat="48.54746" lon="5.79292">
        <ele>288.2</ele>
        <time>2022-07-05T09:41:17Z</time>
      </trkpt>
      <trkpt lat="48.54753" lon="5.79201">
        <ele>287.2</ele>
        <time>2022-07-05T09:41:27Z</time>
      </trkpt>
      <trkpt lat="48.54759" lon="5.79114">
        <ele>288.4</ele>
        <time>2022-07-05T09:41:38Z</time>
      </trkpt>
      <trkpt lat="48.54755" lon="5.79027">
        <ele>289</ele>
        <time>2022-07-05T09:41:50Z</time>
      </trkpt>
      <trkpt lat="48.54744" lon="5.78944">
        <ele>289.6</ele>
        <time>2022-07-05T09:42:02Z</time>
      </trkpt>
      <trkpt lat="48.54731" lon="5.78857">
        <ele>290.6</ele>
        <time>2022-07-05T09:42:17Z</time>
      </trkpt>
      <trkpt lat="48.54718" lon="5.78775">
        <ele>292</ele>
        <time>2022-07-05T09:42:32Z</time>
      </trkpt>
      <trkpt lat="48.54707" lon="5.7869">
        <ele>292.4</ele>
        <time>2022-07-05T09:42:47Z</time>
      </trkpt>
      <trkpt lat="48.54695" lon="5.78607">
        <ele>294.2</ele>
        <time>2022-07-05T09:43:02Z</time>
      </trkpt>
      <trkpt lat="48.54682" lon="5.78518">
        <ele>295</ele>
        <time>2022-07-05T09:43:16Z</time>
      </trkpt>
      <trkpt lat="48.5467" lon="5.78434">
        <ele>294.8</ele>
        <time>2022-07-05T09:43:29Z</time>
      </trkpt>
      <trkpt lat="48.54666" lon="5.78407">
        <ele>294.2</ele>
        <time>2022-07-05T09:43:33Z</time>
      </trkpt>
      <trkpt lat="48.54664" lon="5.78394">
        <ele>293.8</ele>
        <time>2022-07-05T09:43:35Z</time>
      </trkpt>
      <trkpt lat="48.54665" lon="5.78388">
        <ele>293.6</ele>
        <time>2022-07-05T09:43:36Z</time>
      </trkpt>
      <trkpt lat="48.54666" lon="5.78383">
        <ele>293.6</ele>
        <time>2022-07-05T09:43:37Z</time>
      </trkpt>
      <trkpt lat="48.54668" lon="5.7838">
        <ele>293.8</ele>
        <time>2022-07-05T09:43:38Z</time>
      </trkpt>
      <trkpt lat="48.54671" lon="5.7838">
        <ele>294</ele>
        <time>2022-07-05T09:43:39Z</time>
      </trkpt>
      <trkpt lat="48.54672" lon="5.78381">
        <ele>294.2</ele>
        <time>2022-07-05T09:43:40Z</time>
      </trkpt>
      <trkpt lat="48.54673" lon="5.78382">
        <ele>294.4</ele>
        <time>2022-07-05T09:43:41Z</time>
      </trkpt>
      <trkpt lat="48.54674" lon="5.78383">
        <ele>294.6</ele>
        <time>2022-07-05T09:43:42Z</time>
      </trkpt>
      <trkpt lat="48.54674" lon="5.78385">
        <ele>294.8</ele>
        <time>2022-07-05T09:43:43Z</time>
      </trkpt>
      <trkpt lat="48.54675" lon="5.78387">
        <ele>294.8</ele>
        <time>2022-07-05T09:43:44Z</time>
      </trkpt>
      <trkpt lat="48.54675" lon="5.78389">
        <ele>294.8</ele>
        <time>2022-07-05T09:43:45Z</time>
      </trkpt>
      <trkpt lat="48.54692" lon="5.78442">
        <ele>298</ele>
        <time>2022-07-05T09:44:07Z</time>
      </trkpt>
      <trkpt lat="48.54705" lon="5.78493">
        <ele>301</ele>
        <time>2022-07-05T09:44:27Z</time>
      </trkpt>
      <trkpt lat="48.5473" lon="5.78561">
        <ele>304.2</ele>
        <time>2022-07-05T09:44:54Z</time>
      </trkpt>
      <trkpt lat="48.54751" lon="5.78609">
        <ele>307.2</ele>
        <time>2022-07-05T09:45:14Z</time>
      </trkpt>
      <trkpt lat="48.54777" lon="5.78663">
        <ele>310.4</ele>
        <time>2022-07-05T09:45:38Z</time>
      </trkpt>
      <trkpt lat="48.54807" lon="5.78701">
        <ele>313.4</ele>
        <time>2022-07-05T09:45:58Z</time>
      </trkpt>
      <trkpt lat="48.54844" lon="5.78746">
        <ele>316.6</ele>
        <time>2022-07-05T09:46:23Z</time>
      </trkpt>
      <trkpt lat="48.54876" lon="5.7878">
        <ele>319.6</ele>
        <time>2022-07-05T09:46:44Z</time>
      </trkpt>
      <trkpt lat="48.54912" lon="5.78816">
        <ele>322.6</ele>
        <time>2022-07-05T09:47:06Z</time>
      </trkpt>
      <trkpt lat="48.54952" lon="5.78854">
        <ele>325.6</ele>
        <time>2022-07-05T09:47:31Z</time>
      </trkpt>
      <trkpt lat="48.54988" lon="5.78883">
        <ele>328.8</ele>
        <time>2022-07-05T09:47:52Z</time>
      </trkpt>
      <trkpt lat="48.55032" lon="5.78904">
        <ele>331.8</ele>
        <time>2022-07-05T09:48:18Z</time>
      </trkpt>
      <trkpt lat="48.5508" lon="5.78907">
        <ele>334.8</ele>
        <time>2022-07-05T09:48:41Z</time>
      </trkpt>
      <trkpt lat="48.55129" lon="5.78925">
        <ele>338</ele>
        <time>2022-07-05T09:49:06Z</time>
      </trkpt>
      <trkpt lat="48.55173" lon="5.78966">
        <ele>341</ele>
        <time>2022-07-05T09:49:28Z</time>
      </trkpt>
      <trkpt lat="48.5521" lon="5.79027">
        <ele>344</ele>
        <time>2022-07-05T09:49:53Z</time>
      </trkpt>
      <trkpt lat="48.55234" lon="5.79089">
        <ele>347.2</ele>
        <time>2022-07-05T09:50:17Z</time>
      </trkpt>
      <trkpt lat="48.55256" lon="5.79145">
        <ele>350.2</ele>
        <time>2022-07-05T09:50:38Z</time>
      </trkpt>
      <trkpt lat="48.5528" lon="5.79201">
        <ele>353.2</ele>
        <time>2022-07-05T09:50:59Z</time>
      </trkpt>
      <trkpt lat="48.55302" lon="5.79241">
        <ele>356.4</ele>
        <time>2022-07-05T09:51:18Z</time>
      </trkpt>
      <trkpt lat="48.55333" lon="5.79288">
        <ele>359.6</ele>
        <time>2022-07-05T09:51:38Z</time>
      </trkpt>
      <trkpt lat="48.55365" lon="5.79339">
        <ele>362.6</ele>
        <time>2022-07-05T09:51:59Z</time>
      </trkpt>
      <trkpt lat="48.55392" lon="5.79383">
        <ele>365.6</ele>
        <time>2022-07-05T09:52:17Z</time>
      </trkpt>
      <trkpt lat="48.55429" lon="5.79429">
        <ele>368.6</ele>
        <time>2022-07-05T09:52:39Z</time>
      </trkpt>
      <trkpt lat="48.55467" lon="5.79456">
        <ele>371.8</ele>
        <time>2022-07-05T09:52:58Z</time>
      </trkpt>
      <trkpt lat="48.55505" lon="5.79475">
        <ele>374.8</ele>
        <time>2022-07-05T09:53:17Z</time>
      </trkpt>
      <trkpt lat="48.55553" lon="5.79501">
        <ele>377.8</ele>
        <time>2022-07-05T09:53:40Z</time>
      </trkpt>
      <trkpt lat="48.55607" lon="5.7953">
        <ele>380</ele>
        <time>2022-07-05T09:54:04Z</time>
      </trkpt>
      <trkpt lat="48.55635" lon="5.7955">
        <ele>381.4</ele>
        <time>2022-07-05T09:54:27Z</time>
      </trkpt>
      <trkpt lat="48.55639" lon="5.79554">
        <ele>382</ele>
        <time>2022-07-05T09:55:27Z</time>
      </trkpt>
      <trkpt lat="48.55658" lon="5.79564">
        <ele>383</ele>
        <time>2022-07-05T09:55:36Z</time>
      </trkpt>
      <trkpt lat="48.55714" lon="5.79594">
        <ele>385.8</ele>
        <time>2022-07-05T09:56:01Z</time>
      </trkpt>
      <trkpt lat="48.55772" lon="5.79623">
        <ele>388.8</ele>
        <time>2022-07-05T09:56:28Z</time>
      </trkpt>
      <trkpt lat="48.55833" lon="5.79672">
        <ele>392</ele>
        <time>2022-07-05T09:56:56Z</time>
      </trkpt>
      <trkpt lat="48.55886" lon="5.79738">
        <ele>394</ele>
        <time>2022-07-05T09:57:22Z</time>
      </trkpt>
      <trkpt lat="48.55933" lon="5.79806">
        <ele>396</ele>
        <time>2022-07-05T09:57:46Z</time>
      </trkpt>
      <trkpt lat="48.55977" lon="5.79872">
        <ele>398</ele>
        <time>2022-07-05T09:58:11Z</time>
      </trkpt>
      <trkpt lat="48.56021" lon="5.79934">
        <ele>400.8</ele>
        <time>2022-07-05T09:58:36Z</time>
      </trkpt>
      <trkpt lat="48.56063" lon="5.8">
        <ele>402.8</ele>
        <time>2022-07-05T09:59:00Z</time>
      </trkpt>
      <trkpt lat="48.56105" lon="5.80066">
        <ele>405.2</ele>
        <time>2022-07-05T09:59:23Z</time>
      </trkpt>
      <trkpt lat="48.5615" lon="5.80128">
        <ele>406.6</ele>
        <time>2022-07-05T09:59:46Z</time>
      </trkpt>
      <trkpt lat="48.56193" lon="5.80193">
        <ele>408.4</ele>
        <time>2022-07-05T10:00:07Z</time>
      </trkpt>
      <trkpt lat="48.56235" lon="5.80257">
        <ele>410.2</ele>
        <time>2022-07-05T10:00:29Z</time>
      </trkpt>
      <trkpt lat="48.56276" lon="5.80321">
        <ele>412</ele>
        <time>2022-07-05T10:00:51Z</time>
      </trkpt>
      <trkpt lat="48.5632" lon="5.80386">
        <ele>413.8</ele>
        <time>2022-07-05T10:01:14Z</time>
      </trkpt>
      <trkpt lat="48.56369" lon="5.80454">
        <ele>415.2</ele>
        <time>2022-07-05T10:01:37Z</time>
      </trkpt>
      <trkpt lat="48.56412" lon="5.80522">
        <ele>416.6</ele>
        <time>2022-07-05T10:01:58Z</time>
      </trkpt>
      <trkpt lat="48.56451" lon="5.80592">
        <ele>418.6</ele>
        <time>2022-07-05T10:02:19Z</time>
      </trkpt>
      <trkpt lat="48.56487" lon="5.80665">
        <ele>420</ele>
        <time>2022-07-05T10:02:39Z</time>
      </trkpt>
      <trkpt lat="48.56525" lon="5.8074">
        <ele>420.6</ele>
        <time>2022-07-05T10:02:58Z</time>
      </trkpt>
      <trkpt lat="48.56562" lon="5.8081">
        <ele>421</ele>
        <time>2022-07-05T10:03:15Z</time>
      </trkpt>
      <trkpt lat="48.56598" lon="5.80877">
        <ele>422</ele>
        <time>2022-07-05T10:03:32Z</time>
      </trkpt>
      <trkpt lat="48.56634" lon="5.80945">
        <ele>422.4</ele>
        <time>2022-07-05T10:03:48Z</time>
      </trkpt>
      <trkpt lat="48.56675" lon="5.81007">
        <ele>423.4</ele>
        <time>2022-07-05T10:04:05Z</time>
      </trkpt>
      <trkpt lat="48.56715" lon="5.81072">
        <ele>423.4</ele>
        <time>2022-07-05T10:04:27Z</time>
      </trkpt>
      <trkpt lat="48.56723" lon="5.81083">
        <ele>423.4</ele>
        <time>2022-07-05T10:04:39Z</time>
      </trkpt>
      <trkpt lat="48.5673" lon="5.81092">
        <ele>424.6</ele>
        <time>2022-07-05T10:12:42Z</time>
      </trkpt>
      <trkpt lat="48.56732" lon="5.81095">
        <ele>424.6</ele>
        <time>2022-07-05T10:12:43Z</time>
      </trkpt>
      <trkpt lat="48.56775" lon="5.81154">
        <ele>424.2</ele>
        <time>2022-07-05T10:12:59Z</time>
      </trkpt>
      <trkpt lat="48.56822" lon="5.8121">
        <ele>423.2</ele>
        <time>2022-07-05T10:13:13Z</time>
      </trkpt>
      <trkpt lat="48.56865" lon="5.81265">
        <ele>423.8</ele>
        <time>2022-07-05T10:13:27Z</time>
      </trkpt>
      <trkpt lat="48.56913" lon="5.81324">
        <ele>423</ele>
        <time>2022-07-05T10:13:41Z</time>
      </trkpt>
      <trkpt lat="48.56957" lon="5.81383">
        <ele>423.4</ele>
        <time>2022-07-05T10:13:55Z</time>
      </trkpt>
      <trkpt lat="48.56995" lon="5.81435">
        <ele>423</ele>
        <time>2022-07-05T10:14:08Z</time>
      </trkpt>
      <trkpt lat="48.57041" lon="5.81493">
        <ele>423</ele>
        <time>2022-07-05T10:14:23Z</time>
      </trkpt>
      <trkpt lat="48.57087" lon="5.81548">
        <ele>423.6</ele>
        <time>2022-07-05T10:14:37Z</time>
      </trkpt>
      <trkpt lat="48.57134" lon="5.81606">
        <ele>423.6</ele>
        <time>2022-07-05T10:14:51Z</time>
      </trkpt>
      <trkpt lat="48.57179" lon="5.81664">
        <ele>423.2</ele>
        <time>2022-07-05T10:15:04Z</time>
      </trkpt>
      <trkpt lat="48.57189" lon="5.81678">
        <ele>423</ele>
        <time>2022-07-05T10:15:07Z</time>
      </trkpt>
      <trkpt lat="48.57217" lon="5.81714">
        <ele>423</ele>
        <time>2022-07-05T10:15:15Z</time>
      </trkpt>
      <trkpt lat="48.57261" lon="5.81772">
        <ele>422.6</ele>
        <time>2022-07-05T10:15:28Z</time>
      </trkpt>
      <trkpt lat="48.57304" lon="5.81828">
        <ele>422.4</ele>
        <time>2022-07-05T10:15:40Z</time>
      </trkpt>
      <trkpt lat="48.5735" lon="5.81884">
        <ele>422.2</ele>
        <time>2022-07-05T10:15:52Z</time>
      </trkpt>
      <trkpt lat="48.57395" lon="5.81941">
        <ele>421.8</ele>
        <time>2022-07-05T10:16:04Z</time>
      </trkpt>
      <trkpt lat="48.57439" lon="5.81998">
        <ele>421.8</ele>
        <time>2022-07-05T10:16:16Z</time>
      </trkpt>
      <trkpt lat="48.57485" lon="5.82056">
        <ele>420.4</ele>
        <time>2022-07-05T10:16:28Z</time>
      </trkpt>
      <trkpt lat="48.5753" lon="5.82114">
        <ele>420</ele>
        <time>2022-07-05T10:16:40Z</time>
      </trkpt>
      <trkpt lat="48.57574" lon="5.82171">
        <ele>420</ele>
        <time>2022-07-05T10:16:52Z</time>
      </trkpt>
      <trkpt lat="48.5762" lon="5.8223">
        <ele>420</ele>
        <time>2022-07-05T10:17:04Z</time>
      </trkpt>
      <trkpt lat="48.57663" lon="5.82286">
        <ele>419.4</ele>
        <time>2022-07-05T10:17:15Z</time>
      </trkpt>
      <trkpt lat="48.57694" lon="5.82325">
        <ele>418.8</ele>
        <time>2022-07-05T10:17:23Z</time>
      </trkpt>
      <trkpt lat="48.57702" lon="5.82335">
        <ele>418.4</ele>
        <time>2022-07-05T10:17:25Z</time>
      </trkpt>
      <trkpt lat="48.57748" lon="5.82395">
        <ele>418</ele>
        <time>2022-07-05T10:17:37Z</time>
      </trkpt>
      <trkpt lat="48.57793" lon="5.82453">
        <ele>418.4</ele>
        <time>2022-07-05T10:17:49Z</time>
      </trkpt>
      <trkpt lat="48.57838" lon="5.82512">
        <ele>419.2</ele>
        <time>2022-07-05T10:18:02Z</time>
      </trkpt>
      <trkpt lat="48.57885" lon="5.8257">
        <ele>419.6</ele>
        <time>2022-07-05T10:18:15Z</time>
      </trkpt>
      <trkpt lat="48.57929" lon="5.82628">
        <ele>420</ele>
        <time>2022-07-05T10:18:28Z</time>
      </trkpt>
      <trkpt lat="48.57972" lon="5.82684">
        <ele>420.8</ele>
        <time>2022-07-05T10:18:42Z</time>
      </trkpt>
      <trkpt lat="48.58017" lon="5.8274">
        <ele>420.6</ele>
        <time>2022-07-05T10:18:56Z</time>
      </trkpt>
      <trkpt lat="48.58061" lon="5.82793">
        <ele>421</ele>
        <time>2022-07-05T10:19:10Z</time>
      </trkpt>
      <trkpt lat="48.58067" lon="5.82801">
        <ele>421.8</ele>
        <time>2022-07-05T10:19:12Z</time>
      </trkpt>
      <trkpt lat="48.58111" lon="5.8286">
        <ele>422.2</ele>
        <time>2022-07-05T10:19:26Z</time>
      </trkpt>
      <trkpt lat="48.58124" lon="5.82877">
        <ele>422.2</ele>
        <time>2022-07-05T10:19:30Z</time>
      </trkpt>
      <trkpt lat="48.58141" lon="5.82898">
        <ele>422</ele>
        <time>2022-07-05T10:19:35Z</time>
      </trkpt>
      <trkpt lat="48.58151" lon="5.8291">
        <ele>422</ele>
        <time>2022-07-05T10:19:38Z</time>
      </trkpt>
      <trkpt lat="48.5819" lon="5.82947">
        <ele>422.6</ele>
        <time>2022-07-05T10:19:49Z</time>
      </trkpt>
      <trkpt lat="48.58245" lon="5.82975">
        <ele>421.8</ele>
        <time>2022-07-05T10:20:02Z</time>
      </trkpt>
      <trkpt lat="48.58258" lon="5.82981">
        <ele>422</ele>
        <time>2022-07-05T10:20:05Z</time>
      </trkpt>
      <trkpt lat="48.58316" lon="5.83008">
        <ele>422.4</ele>
        <time>2022-07-05T10:20:17Z</time>
      </trkpt>
      <trkpt lat="48.58373" lon="5.83034">
        <ele>421.2</ele>
        <time>2022-07-05T10:20:28Z</time>
      </trkpt>
      <trkpt lat="48.58431" lon="5.83059">
        <ele>419.6</ele>
        <time>2022-07-05T10:20:37Z</time>
      </trkpt>
      <trkpt lat="48.58462" lon="5.83073">
        <ele>418</ele>
        <time>2022-07-05T10:20:41Z</time>
      </trkpt>
      <trkpt lat="48.5852" lon="5.831">
        <ele>415.4</ele>
        <time>2022-07-05T10:20:48Z</time>
      </trkpt>
      <trkpt lat="48.58556" lon="5.83117">
        <ele>412.2</ele>
        <time>2022-07-05T10:20:52Z</time>
      </trkpt>
      <trkpt lat="48.58615" lon="5.83143">
        <ele>408.4</ele>
        <time>2022-07-05T10:20:58Z</time>
      </trkpt>
      <trkpt lat="48.58647" lon="5.83157">
        <ele>407</ele>
        <time>2022-07-05T10:21:01Z</time>
      </trkpt>
      <trkpt lat="48.58697" lon="5.83182">
        <ele>402.4</ele>
        <time>2022-07-05T10:21:06Z</time>
      </trkpt>
      <trkpt lat="48.58716" lon="5.83191">
        <ele>400</ele>
        <time>2022-07-05T10:21:08Z</time>
      </trkpt>
      <trkpt lat="48.58744" lon="5.83205">
        <ele>403.4</ele>
        <time>2022-07-05T10:21:11Z</time>
      </trkpt>
      <trkpt lat="48.58811" lon="5.83232">
        <ele>402.6</ele>
        <time>2022-07-05T10:21:18Z</time>
      </trkpt>
      <trkpt lat="48.58841" lon="5.83234">
        <ele>399.4</ele>
        <time>2022-07-05T10:21:21Z</time>
      </trkpt>
      <trkpt lat="48.5885" lon="5.83231">
        <ele>399.4</ele>
        <time>2022-07-05T10:21:22Z</time>
      </trkpt>
      <trkpt lat="48.58858" lon="5.83219">
        <ele>399.6</ele>
        <time>2022-07-05T10:21:23Z</time>
      </trkpt>
      <trkpt lat="48.58867" lon="5.83208">
        <ele>399</ele>
        <time>2022-07-05T10:21:24Z</time>
      </trkpt>
      <trkpt lat="48.58876" lon="5.83196">
        <ele>397.8</ele>
        <time>2022-07-05T10:21:25Z</time>
      </trkpt>
      <trkpt lat="48.58892" lon="5.83172">
        <ele>397</ele>
        <time>2022-07-05T10:21:27Z</time>
      </trkpt>
      <trkpt lat="48.58903" lon="5.83143">
        <ele>396.2</ele>
        <time>2022-07-05T10:21:29Z</time>
      </trkpt>
      <trkpt lat="48.58924" lon="5.83084">
        <ele>392.6</ele>
        <time>2022-07-05T10:21:33Z</time>
      </trkpt>
      <trkpt lat="48.58936" lon="5.83058">
        <ele>391.2</ele>
        <time>2022-07-05T10:21:35Z</time>
      </trkpt>
      <trkpt lat="48.58944" lon="5.83047">
        <ele>390</ele>
        <time>2022-07-05T10:21:36Z</time>
      </trkpt>
      <trkpt lat="48.58952" lon="5.83037">
        <ele>389</ele>
        <time>2022-07-05T10:21:37Z</time>
      </trkpt>
      <trkpt lat="48.5896" lon="5.83025">
        <ele>388.4</ele>
        <time>2022-07-05T10:21:38Z</time>
      </trkpt>
      <trkpt lat="48.58968" lon="5.83015">
        <ele>387.6</ele>
        <time>2022-07-05T10:21:39Z</time>
      </trkpt>
      <trkpt lat="48.58977" lon="5.83005">
        <ele>387</ele>
        <time>2022-07-05T10:21:40Z</time>
      </trkpt>
      <trkpt lat="48.59037" lon="5.82951">
        <ele>384.4</ele>
        <time>2022-07-05T10:21:46Z</time>
      </trkpt>
      <trkpt lat="48.59079" lon="5.82919">
        <ele>380.4</ele>
        <time>2022-07-05T10:21:50Z</time>
      </trkpt>
      <trkpt lat="48.5911" lon="5.82893">
        <ele>377.2</ele>
        <time>2022-07-05T10:21:53Z</time>
      </trkpt>
      <trkpt lat="48.5916" lon="5.82855">
        <ele>373.4</ele>
        <time>2022-07-05T10:21:58Z</time>
      </trkpt>
      <trkpt lat="48.59171" lon="5.82851">
        <ele>371.8</ele>
        <time>2022-07-05T10:21:59Z</time>
      </trkpt>
      <trkpt lat="48.59181" lon="5.82849">
        <ele>371</ele>
        <time>2022-07-05T10:22:00Z</time>
      </trkpt>
      <trkpt lat="48.59192" lon="5.82849">
        <ele>370.2</ele>
        <time>2022-07-05T10:22:01Z</time>
      </trkpt>
      <trkpt lat="48.59203" lon="5.82851">
        <ele>369.4</ele>
        <time>2022-07-05T10:22:02Z</time>
      </trkpt>
      <trkpt lat="48.59213" lon="5.82854">
        <ele>369</ele>
        <time>2022-07-05T10:22:03Z</time>
      </trkpt>
      <trkpt lat="48.59223" lon="5.82859">
        <ele>368.4</ele>
        <time>2022-07-05T10:22:04Z</time>
      </trkpt>
      <trkpt lat="48.59234" lon="5.82866">
        <ele>368</ele>
        <time>2022-07-05T10:22:05Z</time>
      </trkpt>
      <trkpt lat="48.59276" lon="5.82897">
        <ele>365</ele>
        <time>2022-07-05T10:22:09Z</time>
      </trkpt>
      <trkpt lat="48.59331" lon="5.82932">
        <ele>361.8</ele>
        <time>2022-07-05T10:22:14Z</time>
      </trkpt>
      <trkpt lat="48.59363" lon="5.82958">
        <ele>358.8</ele>
        <time>2022-07-05T10:22:17Z</time>
      </trkpt>
      <trkpt lat="48.59416" lon="5.83009">
        <ele>355</ele>
        <time>2022-07-05T10:22:22Z</time>
      </trkpt>
      <trkpt lat="48.59448" lon="5.8304">
        <ele>351.6</ele>
        <time>2022-07-05T10:22:25Z</time>
      </trkpt>
      <trkpt lat="48.59501" lon="5.83096">
        <ele>348</ele>
        <time>2022-07-05T10:22:30Z</time>
      </trkpt>
      <trkpt lat="48.59541" lon="5.83138">
        <ele>344.8</ele>
        <time>2022-07-05T10:22:34Z</time>
      </trkpt>
      <trkpt lat="48.59566" lon="5.83176">
        <ele>342.2</ele>
        <time>2022-07-05T10:22:37Z</time>
      </trkpt>
      <trkpt lat="48.59572" lon="5.83193">
        <ele>341.4</ele>
        <time>2022-07-05T10:22:38Z</time>
      </trkpt>
      <trkpt lat="48.59577" lon="5.83209">
        <ele>340.4</ele>
        <time>2022-07-05T10:22:39Z</time>
      </trkpt>
      <trkpt lat="48.59581" lon="5.83226">
        <ele>339.6</ele>
        <time>2022-07-05T10:22:40Z</time>
      </trkpt>
      <trkpt lat="48.59584" lon="5.83243">
        <ele>339.2</ele>
        <time>2022-07-05T10:22:41Z</time>
      </trkpt>
      <trkpt lat="48.59587" lon="5.8326">
        <ele>338.4</ele>
        <time>2022-07-05T10:22:42Z</time>
      </trkpt>
      <trkpt lat="48.59589" lon="5.83274">
        <ele>337.4</ele>
        <time>2022-07-05T10:22:43Z</time>
      </trkpt>
      <trkpt lat="48.59592" lon="5.83287">
        <ele>336.6</ele>
        <time>2022-07-05T10:22:44Z</time>
      </trkpt>
      <trkpt lat="48.59599" lon="5.83308">
        <ele>335.4</ele>
        <time>2022-07-05T10:22:46Z</time>
      </trkpt>
      <trkpt lat="48.59603" lon="5.83315">
        <ele>334.8</ele>
        <time>2022-07-05T10:22:47Z</time>
      </trkpt>
      <trkpt lat="48.5961" lon="5.8332">
        <ele>334.4</ele>
        <time>2022-07-05T10:22:48Z</time>
      </trkpt>
      <trkpt lat="48.59616" lon="5.83322">
        <ele>334</ele>
        <time>2022-07-05T10:22:49Z</time>
      </trkpt>
      <trkpt lat="48.59622" lon="5.83316">
        <ele>333.4</ele>
        <time>2022-07-05T10:22:50Z</time>
      </trkpt>
      <trkpt lat="48.59627" lon="5.83307">
        <ele>333</ele>
        <time>2022-07-05T10:22:51Z</time>
      </trkpt>
      <trkpt lat="48.59629" lon="5.83296">
        <ele>332.8</ele>
        <time>2022-07-05T10:22:52Z</time>
      </trkpt>
      <trkpt lat="48.59631" lon="5.83286">
        <ele>333</ele>
        <time>2022-07-05T10:22:53Z</time>
      </trkpt>
      <trkpt lat="48.59632" lon="5.83276">
        <ele>333.2</ele>
        <time>2022-07-05T10:22:54Z</time>
      </trkpt>
      <trkpt lat="48.59627" lon="5.83259">
        <ele>332.8</ele>
        <time>2022-07-05T10:22:55Z</time>
      </trkpt>
      <trkpt lat="48.59624" lon="5.83245">
        <ele>332</ele>
        <time>2022-07-05T10:22:56Z</time>
      </trkpt>
      <trkpt lat="48.59621" lon="5.83231">
        <ele>331.2</ele>
        <time>2022-07-05T10:22:57Z</time>
      </trkpt>
      <trkpt lat="48.59615" lon="5.8319">
        <ele>328.8</ele>
        <time>2022-07-05T10:23:02Z</time>
      </trkpt>
      <trkpt lat="48.5961" lon="5.83153">
        <ele>327</ele>
        <time>2022-07-05T10:23:15Z</time>
      </trkpt>
      <trkpt lat="48.59606" lon="5.83133">
        <ele>327.2</ele>
        <time>2022-07-05T10:24:27Z</time>
      </trkpt>
      <trkpt lat="48.59605" lon="5.83129">
        <ele>327.2</ele>
        <time>2022-07-05T10:24:28Z</time>
      </trkpt>
      <trkpt lat="48.59582" lon="5.83038">
        <ele>324.4</ele>
        <time>2022-07-05T10:24:39Z</time>
      </trkpt>
      <trkpt lat="48.5956" lon="5.82967">
        <ele>321</ele>
        <time>2022-07-05T10:24:45Z</time>
      </trkpt>
      <trkpt lat="48.59528" lon="5.82896">
        <ele>318.8</ele>
        <time>2022-07-05T10:24:51Z</time>
      </trkpt>
      <trkpt lat="48.59521" lon="5.82873">
        <ele>317.4</ele>
        <time>2022-07-05T10:24:53Z</time>
      </trkpt>
      <trkpt lat="48.59522" lon="5.82862">
        <ele>316.8</ele>
        <time>2022-07-05T10:24:54Z</time>
      </trkpt>
      <trkpt lat="48.59523" lon="5.82852">
        <ele>316.4</ele>
        <time>2022-07-05T10:24:55Z</time>
      </trkpt>
      <trkpt lat="48.59526" lon="5.82844">
        <ele>316.2</ele>
        <time>2022-07-05T10:24:56Z</time>
      </trkpt>
      <trkpt lat="48.5953" lon="5.82839">
        <ele>315.8</ele>
        <time>2022-07-05T10:24:57Z</time>
      </trkpt>
      <trkpt lat="48.59538" lon="5.82839">
        <ele>315</ele>
        <time>2022-07-05T10:24:58Z</time>
      </trkpt>
      <trkpt lat="48.59545" lon="5.8284">
        <ele>314.2</ele>
        <time>2022-07-05T10:24:59Z</time>
      </trkpt>
      <trkpt lat="48.59552" lon="5.82841">
        <ele>314</ele>
        <time>2022-07-05T10:25:00Z</time>
      </trkpt>
      <trkpt lat="48.59559" lon="5.82844">
        <ele>313.8</ele>
        <time>2022-07-05T10:25:01Z</time>
      </trkpt>
      <trkpt lat="48.59565" lon="5.82846">
        <ele>313.4</ele>
        <time>2022-07-05T10:25:02Z</time>
      </trkpt>
      <trkpt lat="48.59616" lon="5.8287">
        <ele>310.8</ele>
        <time>2022-07-05T10:25:08Z</time>
      </trkpt>
      <trkpt lat="48.59626" lon="5.82882">
        <ele>310.4</ele>
        <time>2022-07-05T10:25:09Z</time>
      </trkpt>
      <trkpt lat="48.59636" lon="5.82893">
        <ele>310</ele>
        <time>2022-07-05T10:25:10Z</time>
      </trkpt>
      <trkpt lat="48.59644" lon="5.82904">
        <ele>309.4</ele>
        <time>2022-07-05T10:25:11Z</time>
      </trkpt>
      <trkpt lat="48.59651" lon="5.82915">
        <ele>308.6</ele>
        <time>2022-07-05T10:25:12Z</time>
      </trkpt>
      <trkpt lat="48.59675" lon="5.82951">
        <ele>305</ele>
        <time>2022-07-05T10:25:16Z</time>
      </trkpt>
      <trkpt lat="48.59692" lon="5.82973">
        <ele>303.6</ele>
        <time>2022-07-05T10:25:19Z</time>
      </trkpt>
      <trkpt lat="48.59699" lon="5.82979">
        <ele>303</ele>
        <time>2022-07-05T10:25:20Z</time>
      </trkpt>
      <trkpt lat="48.59713" lon="5.82989">
        <ele>302.2</ele>
        <time>2022-07-05T10:25:22Z</time>
      </trkpt>
      <trkpt lat="48.5974" lon="5.83007">
        <ele>300.6</ele>
        <time>2022-07-05T10:25:26Z</time>
      </trkpt>
      <trkpt lat="48.59746" lon="5.83012">
        <ele>299.8</ele>
        <time>2022-07-05T10:25:27Z</time>
      </trkpt>
      <trkpt lat="48.59751" lon="5.83019">
        <ele>299.2</ele>
        <time>2022-07-05T10:25:28Z</time>
      </trkpt>
      <trkpt lat="48.59756" lon="5.83026">
        <ele>299</ele>
        <time>2022-07-05T10:25:29Z</time>
      </trkpt>
      <trkpt lat="48.59761" lon="5.83034">
        <ele>298.6</ele>
        <time>2022-07-05T10:25:30Z</time>
      </trkpt>
      <trkpt lat="48.598" lon="5.83102">
        <ele>297.4</ele>
        <time>2022-07-05T10:25:43Z</time>
      </trkpt>
      <trkpt lat="48.59802" lon="5.83104">
        <ele>297.4</ele>
        <time>2022-07-05T10:25:44Z</time>
      </trkpt>
      <trkpt lat="48.59804" lon="5.83105">
        <ele>297.4</ele>
        <time>2022-07-05T10:25:45Z</time>
      </trkpt>
      <trkpt lat="48.59806" lon="5.83105">
        <ele>297.4</ele>
        <time>2022-07-05T10:25:47Z</time>
      </trkpt>
      <trkpt lat="48.59808" lon="5.83103">
        <ele>297.4</ele>
        <time>2022-07-05T10:25:48Z</time>
      </trkpt>
      <trkpt lat="48.59858" lon="5.83059">
        <ele>296.4</ele>
        <time>2022-07-05T10:26:07Z</time>
      </trkpt>
      <trkpt lat="48.59873" lon="5.83042">
        <ele>295.8</ele>
        <time>2022-07-05T10:26:22Z</time>
      </trkpt>
      <trkpt lat="48.59878" lon="5.83038">
        <ele>296</ele>
        <time>2022-07-05T10:26:41Z</time>
      </trkpt>
      <trkpt lat="48.59879" lon="5.83035">
        <ele>296</ele>
        <time>2022-07-05T10:26:42Z</time>
      </trkpt>
      <trkpt lat="48.59913" lon="5.83022">
        <ele>296.8</ele>
        <time>2022-07-05T10:26:57Z</time>
      </trkpt>
      <trkpt lat="48.59917" lon="5.83022">
        <ele>296.6</ele>
        <time>2022-07-05T10:26:58Z</time>
      </trkpt>
      <trkpt lat="48.5992" lon="5.8302">
        <ele>296.6</ele>
        <time>2022-07-05T10:26:59Z</time>
      </trkpt>
      <trkpt lat="48.59923" lon="5.83018">
        <ele>296.4</ele>
        <time>2022-07-05T10:27:00Z</time>
      </trkpt>
      <trkpt lat="48.59926" lon="5.83016">
        <ele>296.4</ele>
        <time>2022-07-05T10:27:01Z</time>
      </trkpt>
      <trkpt lat="48.59967" lon="5.82986">
        <ele>296.8</ele>
        <time>2022-07-05T10:27:21Z</time>
      </trkpt>
      <trkpt lat="48.59968" lon="5.82988">
        <ele>296.8</ele>
        <time>2022-07-05T10:27:22Z</time>
      </trkpt>
      <trkpt lat="48.59967" lon="5.82991">
        <ele>296.8</ele>
        <time>2022-07-05T10:27:23Z</time>
      </trkpt>
      <trkpt lat="48.59956" lon="5.83062">
        <ele>296</ele>
        <time>2022-07-05T10:27:46Z</time>
      </trkpt>
      <trkpt lat="48.59956" lon="5.83073">
        <ele>295.8</ele>
        <time>2022-07-05T10:28:26Z</time>
      </trkpt>
      <trkpt lat="48.59956" lon="5.83076">
        <ele>295.8</ele>
        <time>2022-07-05T10:28:27Z</time>
      </trkpt>
      <trkpt lat="48.59955" lon="5.8308">
        <ele>295.8</ele>
        <time>2022-07-05T10:28:28Z</time>
      </trkpt>
      <trkpt lat="48.59939" lon="5.83167">
        <ele>294</ele>
        <time>2022-07-05T10:28:48Z</time>
      </trkpt>
      <trkpt lat="48.59931" lon="5.8322">
        <ele>290.6</ele>
        <time>2022-07-05T10:28:56Z</time>
      </trkpt>
      <trkpt lat="48.59934" lon="5.83306">
        <ele>287.6</ele>
        <time>2022-07-05T10:29:08Z</time>
      </trkpt>
      <trkpt lat="48.59946" lon="5.83392">
        <ele>286</ele>
        <time>2022-07-05T10:29:18Z</time>
      </trkpt>
      <trkpt lat="48.59951" lon="5.83484">
        <ele>285</ele>
        <time>2022-07-05T10:29:27Z</time>
      </trkpt>
      <trkpt lat="48.5994" lon="5.83574">
        <ele>283.6</ele>
        <time>2022-07-05T10:29:36Z</time>
      </trkpt>
      <trkpt lat="48.59936" lon="5.83608">
        <ele>282.8</ele>
        <time>2022-07-05T10:29:40Z</time>
      </trkpt>
      <trkpt lat="48.59935" lon="5.83615">
        <ele>282.8</ele>
        <time>2022-07-05T10:29:41Z</time>
      </trkpt>
      <trkpt lat="48.59888" lon="5.83657">
        <ele>280.4</ele>
        <time>2022-07-05T10:29:59Z</time>
      </trkpt>
      <trkpt lat="48.59867" lon="5.83671">
        <ele>280</ele>
        <time>2022-07-05T10:30:04Z</time>
      </trkpt>
      <trkpt lat="48.59864" lon="5.83677">
        <ele>280</ele>
        <time>2022-07-05T10:30:05Z</time>
      </trkpt>
      <trkpt lat="48.59862" lon="5.83684">
        <ele>280</ele>
        <time>2022-07-05T10:30:06Z</time>
      </trkpt>
      <trkpt lat="48.59862" lon="5.83692">
        <ele>279.8</ele>
        <time>2022-07-05T10:30:07Z</time>
      </trkpt>
      <trkpt lat="48.59862" lon="5.837">
        <ele>279.6</ele>
        <time>2022-07-05T10:30:08Z</time>
      </trkpt>
      <trkpt lat="48.59862" lon="5.83708">
        <ele>279.4</ele>
        <time>2022-07-05T10:30:09Z</time>
      </trkpt>
      <trkpt lat="48.59862" lon="5.83717">
        <ele>279.2</ele>
        <time>2022-07-05T10:30:10Z</time>
      </trkpt>
      <trkpt lat="48.59868" lon="5.83808">
        <ele>278.4</ele>
        <time>2022-07-05T10:30:20Z</time>
      </trkpt>
      <trkpt lat="48.59871" lon="5.83838">
        <ele>277.6</ele>
        <time>2022-07-05T10:30:24Z</time>
      </trkpt>
      <trkpt lat="48.59871" lon="5.83843">
        <ele>277.4</ele>
        <time>2022-07-05T10:30:25Z</time>
      </trkpt>
      <trkpt lat="48.5987" lon="5.83848">
        <ele>277.4</ele>
        <time>2022-07-05T10:30:26Z</time>
      </trkpt>
      <trkpt lat="48.59874" lon="5.83895">
        <ele>276.4</ele>
        <time>2022-07-05T10:30:43Z</time>
      </trkpt>
      <trkpt lat="48.59873" lon="5.83908">
        <ele>276.6</ele>
        <time>2022-07-05T10:32:21Z</time>
      </trkpt>
      <trkpt lat="48.59873" lon="5.83913">
        <ele>276.6</ele>
        <time>2022-07-05T10:32:22Z</time>
      </trkpt>
      <trkpt lat="48.59873" lon="5.83918">
        <ele>276.6</ele>
        <time>2022-07-05T10:32:23Z</time>
      </trkpt>
      <trkpt lat="48.5987" lon="5.83967">
        <ele>275.4</ele>
        <time>2022-07-05T10:32:42Z</time>
      </trkpt>
      <trkpt lat="48.59875" lon="5.83975">
        <ele>275.2</ele>
        <time>2022-07-05T10:32:55Z</time>
      </trkpt>
      <trkpt lat="48.59876" lon="5.83976">
        <ele>275.2</ele>
        <time>2022-07-05T10:32:56Z</time>
      </trkpt>
      <trkpt lat="48.59876" lon="5.83976">
        <ele>275.4</ele>
        <time>2022-07-05T10:33:01Z</time>
      </trkpt>
      <trkpt lat="48.59878" lon="5.83971">
        <ele>275.2</ele>
        <time>2022-07-05T10:33:23Z</time>
      </trkpt>
      <trkpt lat="48.59879" lon="5.8397">
        <ele>275</ele>
        <time>2022-07-05T10:33:25Z</time>
      </trkpt>
      <trkpt lat="48.5988" lon="5.83968">
        <ele>275</ele>
        <time>2022-07-05T10:33:26Z</time>
      </trkpt>
      <trkpt lat="48.59881" lon="5.83965">
        <ele>274.8</ele>
        <time>2022-07-05T10:33:32Z</time>
      </trkpt>
      <trkpt lat="48.59889" lon="5.83958">
        <ele>275</ele>
        <time>2022-07-05T10:33:51Z</time>
      </trkpt>
      <trkpt lat="48.59896" lon="5.83951">
        <ele>275</ele>
        <time>2022-07-05T10:34:02Z</time>
      </trkpt>
      <trkpt lat="48.59897" lon="5.83911">
        <ele>275</ele>
        <time>2022-07-05T10:34:24Z</time>
      </trkpt>
      <trkpt lat="48.59869" lon="5.83968">
        <ele>274.2</ele>
        <time>2022-07-05T10:35:19Z</time>
      </trkpt>
      <trkpt lat="48.59869" lon="5.83967">
        <ele>274.2</ele>
        <time>2022-07-05T10:35:21Z</time>
      </trkpt>
      <trkpt lat="48.59874" lon="5.83959">
        <ele>274.2</ele>
        <time>2022-07-05T10:35:31Z</time>
      </trkpt>
      <trkpt lat="48.59875" lon="5.83958">
        <ele>274.2</ele>
        <time>2022-07-05T10:35:32Z</time>
      </trkpt>
      <trkpt lat="48.59876" lon="5.83957">
        <ele>274.2</ele>
        <time>2022-07-05T10:35:33Z</time>
      </trkpt>
      <trkpt lat="48.59883" lon="5.83956">
        <ele>274.4</ele>
        <time>2022-07-05T10:35:42Z</time>
      </trkpt>
      <trkpt lat="48.59885" lon="5.83956">
        <ele>274.4</ele>
        <time>2022-07-05T10:35:43Z</time>
      </trkpt>
      <trkpt lat="48.59887" lon="5.83954">
        <ele>274.6</ele>
        <time>2022-07-05T10:35:45Z</time>
      </trkpt>
      <trkpt lat="48.59886" lon="5.83953">
        <ele>274.4</ele>
        <time>2022-07-05T10:35:46Z</time>
      </trkpt>
      <trkpt lat="48.59882" lon="5.83966">
        <ele>274.8</ele>
        <time>2022-07-05T10:35:53Z</time>
      </trkpt>
      <trkpt lat="48.59883" lon="5.83969">
        <ele>275</ele>
        <time>2022-07-05T10:35:54Z</time>
      </trkpt>
      <trkpt lat="48.59881" lon="5.83969">
        <ele>275</ele>
        <time>2022-07-05T10:35:55Z</time>
      </trkpt>
      <trkpt lat="48.5988" lon="5.83971">
        <ele>274.2</ele>
        <time>2022-07-05T10:36:01Z</time>
      </trkpt>
      <trkpt lat="48.5987" lon="5.83979">
        <ele>274.2</ele>
        <time>2022-07-05T10:39:11Z</time>
      </trkpt>
      <trkpt lat="48.5987" lon="5.83982">
        <ele>274.2</ele>
        <time>2022-07-05T10:39:12Z</time>
      </trkpt>
      <trkpt lat="48.59871" lon="5.84074">
        <ele>272.4</ele>
        <time>2022-07-05T10:39:29Z</time>
      </trkpt>
      <trkpt lat="48.59874" lon="5.84162">
        <ele>270.6</ele>
        <time>2022-07-05T10:39:39Z</time>
      </trkpt>
      <trkpt lat="48.5989" lon="5.84245">
        <ele>269.8</ele>
        <time>2022-07-05T10:39:48Z</time>
      </trkpt>
      <trkpt lat="48.59906" lon="5.8433">
        <ele>269.2</ele>
        <time>2022-07-05T10:40:07Z</time>
      </trkpt>
      <trkpt lat="48.59905" lon="5.84415">
        <ele>267.6</ele>
        <time>2022-07-05T10:40:19Z</time>
      </trkpt>
      <trkpt lat="48.59909" lon="5.84509">
        <ele>266.4</ele>
        <time>2022-07-05T10:40:29Z</time>
      </trkpt>
      <trkpt lat="48.59916" lon="5.84557">
        <ele>265.6</ele>
        <time>2022-07-05T10:40:34Z</time>
      </trkpt>
      <trkpt lat="48.59937" lon="5.84645">
        <ele>265.8</ele>
        <time>2022-07-05T10:40:44Z</time>
      </trkpt>
      <trkpt lat="48.59943" lon="5.8467">
        <ele>264.4</ele>
        <time>2022-07-05T10:40:47Z</time>
      </trkpt>
      <trkpt lat="48.5995" lon="5.84694">
        <ele>263</ele>
        <time>2022-07-05T10:40:50Z</time>
      </trkpt>
      <trkpt lat="48.59974" lon="5.84774">
        <ele>263.6</ele>
        <time>2022-07-05T10:41:00Z</time>
      </trkpt>
      <trkpt lat="48.59999" lon="5.84856">
        <ele>261.8</ele>
        <time>2022-07-05T10:41:10Z</time>
      </trkpt>
      <trkpt lat="48.60033" lon="5.84934">
        <ele>259.8</ele>
        <time>2022-07-05T10:41:21Z</time>
      </trkpt>
      <trkpt lat="48.6007" lon="5.85002">
        <ele>258.8</ele>
        <time>2022-07-05T10:41:33Z</time>
      </trkpt>
      <trkpt lat="48.60107" lon="5.85068">
        <ele>259</ele>
        <time>2022-07-05T10:41:44Z</time>
      </trkpt>
      <trkpt lat="48.60146" lon="5.85135">
        <ele>257.6</ele>
        <time>2022-07-05T10:41:54Z</time>
      </trkpt>
      <trkpt lat="48.60186" lon="5.85204">
        <ele>257.2</ele>
        <time>2022-07-05T10:42:04Z</time>
      </trkpt>
      <trkpt lat="48.60226" lon="5.85271">
        <ele>256.2</ele>
        <time>2022-07-05T10:42:13Z</time>
      </trkpt>
      <trkpt lat="48.60267" lon="5.85344">
        <ele>254.4</ele>
        <time>2022-07-05T10:42:22Z</time>
      </trkpt>
      <trkpt lat="48.60304" lon="5.85413">
        <ele>254.4</ele>
        <time>2022-07-05T10:42:30Z</time>
      </trkpt>
      <trkpt lat="48.60322" lon="5.85448">
        <ele>251.2</ele>
        <time>2022-07-05T10:42:34Z</time>
      </trkpt>
      <trkpt lat="48.60331" lon="5.85465">
        <ele>250.2</ele>
        <time>2022-07-05T10:42:36Z</time>
      </trkpt>
      <trkpt lat="48.60349" lon="5.855">
        <ele>252</ele>
        <time>2022-07-05T10:42:40Z</time>
      </trkpt>
      <trkpt lat="48.60369" lon="5.85547">
        <ele>249.6</ele>
        <time>2022-07-05T10:42:45Z</time>
      </trkpt>
      <trkpt lat="48.60398" lon="5.85633">
        <ele>247.8</ele>
        <time>2022-07-05T10:42:54Z</time>
      </trkpt>
      <trkpt lat="48.60423" lon="5.85715">
        <ele>247.8</ele>
        <time>2022-07-05T10:43:03Z</time>
      </trkpt>
      <trkpt lat="48.60448" lon="5.85795">
        <ele>248.6</ele>
        <time>2022-07-05T10:43:13Z</time>
      </trkpt>
      <trkpt lat="48.60481" lon="5.85874">
        <ele>248.8</ele>
        <time>2022-07-05T10:43:24Z</time>
      </trkpt>
      <trkpt lat="48.60525" lon="5.85933">
        <ele>248.8</ele>
        <time>2022-07-05T10:43:35Z</time>
      </trkpt>
      <trkpt lat="48.60574" lon="5.85983">
        <ele>248</ele>
        <time>2022-07-05T10:43:46Z</time>
      </trkpt>
      <trkpt lat="48.60623" lon="5.86031">
        <ele>249.4</ele>
        <time>2022-07-05T10:43:57Z</time>
      </trkpt>
      <trkpt lat="48.60671" lon="5.86079">
        <ele>248.6</ele>
        <time>2022-07-05T10:44:08Z</time>
      </trkpt>
      <trkpt lat="48.60719" lon="5.86128">
        <ele>249.2</ele>
        <time>2022-07-05T10:44:19Z</time>
      </trkpt>
      <trkpt lat="48.60767" lon="5.86177">
        <ele>249.2</ele>
        <time>2022-07-05T10:44:29Z</time>
      </trkpt>
      <trkpt lat="48.60818" lon="5.86229">
        <ele>249.2</ele>
        <time>2022-07-05T10:44:39Z</time>
      </trkpt>
      <trkpt lat="48.60866" lon="5.86277">
        <ele>248.2</ele>
        <time>2022-07-05T10:44:48Z</time>
      </trkpt>
      <trkpt lat="48.60916" lon="5.86328">
        <ele>247.8</ele>
        <time>2022-07-05T10:44:57Z</time>
      </trkpt>
      <trkpt lat="48.60968" lon="5.86381">
        <ele>247.8</ele>
        <time>2022-07-05T10:45:06Z</time>
      </trkpt>
      <trkpt lat="48.6102" lon="5.86434">
        <ele>246.6</ele>
        <time>2022-07-05T10:45:15Z</time>
      </trkpt>
      <trkpt lat="48.61068" lon="5.86483">
        <ele>246.6</ele>
        <time>2022-07-05T10:45:24Z</time>
      </trkpt>
      <trkpt lat="48.61117" lon="5.86533">
        <ele>244.6</ele>
        <time>2022-07-05T10:45:33Z</time>
      </trkpt>
      <trkpt lat="48.61168" lon="5.86585">
        <ele>243.2</ele>
        <time>2022-07-05T10:45:42Z</time>
      </trkpt>
      <trkpt lat="48.61218" lon="5.86635">
        <ele>242.6</ele>
        <time>2022-07-05T10:45:51Z</time>
      </trkpt>
      <trkpt lat="48.6127" lon="5.86687">
        <ele>242</ele>
        <time>2022-07-05T10:46:00Z</time>
      </trkpt>
      <trkpt lat="48.61321" lon="5.86739">
        <ele>239.4</ele>
        <time>2022-07-05T10:46:08Z</time>
      </trkpt>
      <trkpt lat="48.6137" lon="5.86789">
        <ele>238.8</ele>
        <time>2022-07-05T10:46:15Z</time>
      </trkpt>
      <trkpt lat="48.6142" lon="5.86839">
        <ele>236.6</ele>
        <time>2022-07-05T10:46:22Z</time>
      </trkpt>
      <trkpt lat="48.61466" lon="5.86886">
        <ele>233.2</ele>
        <time>2022-07-05T10:46:29Z</time>
      </trkpt>
      <trkpt lat="48.61479" lon="5.86898">
        <ele>232.4</ele>
        <time>2022-07-05T10:46:31Z</time>
      </trkpt>
      <trkpt lat="48.6153" lon="5.86951">
        <ele>232.8</ele>
        <time>2022-07-05T10:46:40Z</time>
      </trkpt>
      <trkpt lat="48.6158" lon="5.87003">
        <ele>232.8</ele>
        <time>2022-07-05T10:46:49Z</time>
      </trkpt>
      <trkpt lat="48.61629" lon="5.87057">
        <ele>232.4</ele>
        <time>2022-07-05T10:46:58Z</time>
      </trkpt>
      <trkpt lat="48.61673" lon="5.87124">
        <ele>232.2</ele>
        <time>2022-07-05T10:47:08Z</time>
      </trkpt>
      <trkpt lat="48.61716" lon="5.87192">
        <ele>233.2</ele>
        <time>2022-07-05T10:47:19Z</time>
      </trkpt>
      <trkpt lat="48.61757" lon="5.87259">
        <ele>233.8</ele>
        <time>2022-07-05T10:47:30Z</time>
      </trkpt>
      <trkpt lat="48.61797" lon="5.87325">
        <ele>233.2</ele>
        <time>2022-07-05T10:47:41Z</time>
      </trkpt>
      <trkpt lat="48.61838" lon="5.87391">
        <ele>232.6</ele>
        <time>2022-07-05T10:47:52Z</time>
      </trkpt>
      <trkpt lat="48.61881" lon="5.87459">
        <ele>233.2</ele>
        <time>2022-07-05T10:48:03Z</time>
      </trkpt>
      <trkpt lat="48.61898" lon="5.87482">
        <ele>232.8</ele>
        <time>2022-07-05T10:48:07Z</time>
      </trkpt>
      <trkpt lat="48.61944" lon="5.87541">
        <ele>231.4</ele>
        <time>2022-07-05T10:48:18Z</time>
      </trkpt>
      <trkpt lat="48.61969" lon="5.87576">
        <ele>231</ele>
        <time>2022-07-05T10:48:25Z</time>
      </trkpt>
      <trkpt lat="48.61971" lon="5.87581">
        <ele>231</ele>
        <time>2022-07-05T10:48:26Z</time>
      </trkpt>
      <trkpt lat="48.61972" lon="5.87587">
        <ele>230.8</ele>
        <time>2022-07-05T10:48:27Z</time>
      </trkpt>
      <trkpt lat="48.61973" lon="5.87593">
        <ele>230.4</ele>
        <time>2022-07-05T10:48:28Z</time>
      </trkpt>
      <trkpt lat="48.61974" lon="5.87599">
        <ele>230.2</ele>
        <time>2022-07-05T10:48:29Z</time>
      </trkpt>
      <trkpt lat="48.61973" lon="5.87605">
        <ele>230</ele>
        <time>2022-07-05T10:48:30Z</time>
      </trkpt>
      <trkpt lat="48.61973" lon="5.87611">
        <ele>229.8</ele>
        <time>2022-07-05T10:48:31Z</time>
      </trkpt>
      <trkpt lat="48.61971" lon="5.87617">
        <ele>229.6</ele>
        <time>2022-07-05T10:48:32Z</time>
      </trkpt>
      <trkpt lat="48.61969" lon="5.87623">
        <ele>229.4</ele>
        <time>2022-07-05T10:48:33Z</time>
      </trkpt>
      <trkpt lat="48.61968" lon="5.87629">
        <ele>229.4</ele>
        <time>2022-07-05T10:48:34Z</time>
      </trkpt>
      <trkpt lat="48.61951" lon="5.87682">
        <ele>229.2</ele>
        <time>2022-07-05T10:48:43Z</time>
      </trkpt>
      <trkpt lat="48.61949" lon="5.87765">
        <ele>229.8</ele>
        <time>2022-07-05T10:48:58Z</time>
      </trkpt>
      <trkpt lat="48.61951" lon="5.87767">
        <ele>229.8</ele>
        <time>2022-07-05T10:48:59Z</time>
      </trkpt>
      <trkpt lat="48.61954" lon="5.87768">
        <ele>229.8</ele>
        <time>2022-07-05T10:49:00Z</time>
      </trkpt>
      <trkpt lat="48.61956" lon="5.87767">
        <ele>229.6</ele>
        <time>2022-07-05T10:49:01Z</time>
      </trkpt>
      <trkpt lat="48.61958" lon="5.87766">
        <ele>229.4</ele>
        <time>2022-07-05T10:49:02Z</time>
      </trkpt>
      <trkpt lat="48.6196" lon="5.87764">
        <ele>229.2</ele>
        <time>2022-07-05T10:49:03Z</time>
      </trkpt>
      <trkpt lat="48.61962" lon="5.87762">
        <ele>229.2</ele>
        <time>2022-07-05T10:49:04Z</time>
      </trkpt>
      <trkpt lat="48.61963" lon="5.87761">
        <ele>229.2</ele>
        <time>2022-07-05T10:49:05Z</time>
      </trkpt>
      <trkpt lat="48.61964" lon="5.8776">
        <ele>229</ele>
        <time>2022-07-05T10:49:06Z</time>
      </trkpt>
      <trkpt lat="48.61966" lon="5.87759">
        <ele>229</ele>
        <time>2022-07-05T10:49:07Z</time>
      </trkpt>
      <trkpt lat="48.61968" lon="5.87759">
        <ele>229</ele>
        <time>2022-07-05T10:49:08Z</time>
      </trkpt>
      <trkpt lat="48.6197" lon="5.87756">
        <ele>229</ele>
        <time>2022-07-05T10:49:10Z</time>
      </trkpt>
      <trkpt lat="48.61969" lon="5.87754">
        <ele>229</ele>
        <time>2022-07-05T10:49:11Z</time>
      </trkpt>
      <trkpt lat="48.61968" lon="5.87752">
        <ele>228.8</ele>
        <time>2022-07-05T10:49:12Z</time>
      </trkpt>
      <trkpt lat="48.61967" lon="5.87752">
        <ele>228.8</ele>
        <time>2022-07-05T10:49:13Z</time>
      </trkpt>
      <trkpt lat="48.61966" lon="5.87752">
        <ele>228.8</ele>
        <time>2022-07-05T10:49:14Z</time>
      </trkpt>
      <trkpt lat="48.61964" lon="5.87753">
        <ele>228.8</ele>
        <time>2022-07-05T10:49:15Z</time>
      </trkpt>
      <trkpt lat="48.61962" lon="5.87755">
        <ele>228.8</ele>
        <time>2022-07-05T10:49:17Z</time>
      </trkpt>
      <trkpt lat="48.61961" lon="5.87757">
        <ele>228.8</ele>
        <time>2022-07-05T10:49:18Z</time>
      </trkpt>
      <trkpt lat="48.61959" lon="5.87758">
        <ele>228.8</ele>
        <time>2022-07-05T10:49:26Z</time>
      </trkpt>
      <trkpt lat="48.61959" lon="5.87856">
        <ele>231.2</ele>
        <time>2022-07-05T11:17:28Z</time>
      </trkpt>
      <trkpt lat="48.6196" lon="5.8786">
        <ele>231.2</ele>
        <time>2022-07-05T11:17:29Z</time>
      </trkpt>
      <trkpt lat="48.61961" lon="5.87863">
        <ele>231.2</ele>
        <time>2022-07-05T11:17:30Z</time>
      </trkpt>
      <trkpt lat="48.61992" lon="5.87934">
        <ele>231.4</ele>
        <time>2022-07-05T11:17:47Z</time>
      </trkpt>
      <trkpt lat="48.62024" lon="5.88002">
        <ele>230.4</ele>
        <time>2022-07-05T11:18:01Z</time>
      </trkpt>
      <trkpt lat="48.62058" lon="5.88076">
        <ele>230.8</ele>
        <time>2022-07-05T11:18:15Z</time>
      </trkpt>
      <trkpt lat="48.62095" lon="5.88146">
        <ele>232.2</ele>
        <time>2022-07-05T11:18:30Z</time>
      </trkpt>
      <trkpt lat="48.62125" lon="5.88217">
        <ele>232.2</ele>
        <time>2022-07-05T11:18:44Z</time>
      </trkpt>
      <trkpt lat="48.62144" lon="5.88301">
        <ele>232.8</ele>
        <time>2022-07-05T11:18:59Z</time>
      </trkpt>
      <trkpt lat="48.62152" lon="5.88339">
        <ele>234.4</ele>
        <time>2022-07-05T11:19:06Z</time>
      </trkpt>
      <trkpt lat="48.62169" lon="5.88425">
        <ele>235.6</ele>
        <time>2022-07-05T11:19:23Z</time>
      </trkpt>
      <trkpt lat="48.62185" lon="5.88503">
        <ele>235.8</ele>
        <time>2022-07-05T11:19:37Z</time>
      </trkpt>
      <trkpt lat="48.62187" lon="5.88509">
        <ele>235.4</ele>
        <time>2022-07-05T11:19:38Z</time>
      </trkpt>
      <trkpt lat="48.62188" lon="5.88515">
        <ele>234.8</ele>
        <time>2022-07-05T11:19:39Z</time>
      </trkpt>
      <trkpt lat="48.6221" lon="5.88598">
        <ele>234.8</ele>
        <time>2022-07-05T11:19:52Z</time>
      </trkpt>
      <trkpt lat="48.62231" lon="5.88679">
        <ele>233.4</ele>
        <time>2022-07-05T11:20:03Z</time>
      </trkpt>
      <trkpt lat="48.62254" lon="5.88766">
        <ele>232</ele>
        <time>2022-07-05T11:20:14Z</time>
      </trkpt>
      <trkpt lat="48.62277" lon="5.88846">
        <ele>230</ele>
        <time>2022-07-05T11:20:24Z</time>
      </trkpt>
      <trkpt lat="48.62302" lon="5.88931">
        <ele>229.2</ele>
        <time>2022-07-05T11:20:35Z</time>
      </trkpt>
      <trkpt lat="48.62325" lon="5.89012">
        <ele>229.6</ele>
        <time>2022-07-05T11:20:46Z</time>
      </trkpt>
      <trkpt lat="48.62348" lon="5.89094">
        <ele>229.8</ele>
        <time>2022-07-05T11:20:59Z</time>
      </trkpt>
      <trkpt lat="48.62353" lon="5.89111">
        <ele>229.8</ele>
        <time>2022-07-05T11:21:02Z</time>
      </trkpt>
      <trkpt lat="48.62355" lon="5.89117">
        <ele>229.8</ele>
        <time>2022-07-05T11:21:03Z</time>
      </trkpt>
      <trkpt lat="48.62356" lon="5.89122">
        <ele>229.8</ele>
        <time>2022-07-05T11:21:04Z</time>
      </trkpt>
      <trkpt lat="48.62363" lon="5.8914">
        <ele>229.6</ele>
        <time>2022-07-05T11:21:08Z</time>
      </trkpt>
      <trkpt lat="48.62365" lon="5.89143">
        <ele>229.4</ele>
        <time>2022-07-05T11:21:09Z</time>
      </trkpt>
      <trkpt lat="48.62368" lon="5.89146">
        <ele>229.4</ele>
        <time>2022-07-05T11:21:10Z</time>
      </trkpt>
      <trkpt lat="48.62371" lon="5.89147">
        <ele>229.6</ele>
        <time>2022-07-05T11:21:11Z</time>
      </trkpt>
      <trkpt lat="48.62374" lon="5.89149">
        <ele>229.6</ele>
        <time>2022-07-05T11:21:12Z</time>
      </trkpt>
      <trkpt lat="48.62377" lon="5.89151">
        <ele>229.8</ele>
        <time>2022-07-05T11:21:13Z</time>
      </trkpt>
      <trkpt lat="48.62418" lon="5.89219">
        <ele>229.6</ele>
        <time>2022-07-05T11:21:26Z</time>
      </trkpt>
      <trkpt lat="48.62427" lon="5.89244">
        <ele>229</ele>
        <time>2022-07-05T11:21:29Z</time>
      </trkpt>
      <trkpt lat="48.62429" lon="5.89254">
        <ele>229</ele>
        <time>2022-07-05T11:21:30Z</time>
      </trkpt>
      <trkpt lat="48.62431" lon="5.89264">
        <ele>229</ele>
        <time>2022-07-05T11:21:31Z</time>
      </trkpt>
      <trkpt lat="48.62432" lon="5.89275">
        <ele>228.8</ele>
        <time>2022-07-05T11:21:32Z</time>
      </trkpt>
      <trkpt lat="48.62432" lon="5.89286">
        <ele>228.2</ele>
        <time>2022-07-05T11:21:33Z</time>
      </trkpt>
      <trkpt lat="48.62431" lon="5.89296">
        <ele>228.2</ele>
        <time>2022-07-05T11:21:34Z</time>
      </trkpt>
      <trkpt lat="48.62428" lon="5.89306">
        <ele>228.2</ele>
        <time>2022-07-05T11:21:35Z</time>
      </trkpt>
      <trkpt lat="48.62425" lon="5.89315">
        <ele>228.2</ele>
        <time>2022-07-05T11:21:36Z</time>
      </trkpt>
      <trkpt lat="48.62422" lon="5.89324">
        <ele>228.2</ele>
        <time>2022-07-05T11:21:37Z</time>
      </trkpt>
      <trkpt lat="48.62393" lon="5.89397">
        <ele>229.6</ele>
        <time>2022-07-05T11:21:51Z</time>
      </trkpt>
      <trkpt lat="48.62372" lon="5.89455">
        <ele>232.8</ele>
        <time>2022-07-05T11:22:09Z</time>
      </trkpt>
      <trkpt lat="48.62356" lon="5.89528">
        <ele>235.8</ele>
        <time>2022-07-05T11:22:31Z</time>
      </trkpt>
      <trkpt lat="48.62333" lon="5.89603">
        <ele>238.4</ele>
        <time>2022-07-05T11:22:55Z</time>
      </trkpt>
      <trkpt lat="48.62298" lon="5.89672">
        <ele>239.6</ele>
        <time>2022-07-05T11:23:15Z</time>
      </trkpt>
      <trkpt lat="48.62295" lon="5.8976">
        <ele>240.8</ele>
        <time>2022-07-05T11:23:33Z</time>
      </trkpt>
      <trkpt lat="48.62299" lon="5.89848">
        <ele>242.2</ele>
        <time>2022-07-05T11:23:50Z</time>
      </trkpt>
      <trkpt lat="48.623" lon="5.89936">
        <ele>243.2</ele>
        <time>2022-07-05T11:24:07Z</time>
      </trkpt>
      <trkpt lat="48.62306" lon="5.90022">
        <ele>245</ele>
        <time>2022-07-05T11:24:25Z</time>
      </trkpt>
      <trkpt lat="48.62316" lon="5.90069">
        <ele>244</ele>
        <time>2022-07-05T11:24:33Z</time>
      </trkpt>
      <trkpt lat="48.62326" lon="5.90134">
        <ele>242.6</ele>
        <time>2022-07-05T11:24:40Z</time>
      </trkpt>
      <trkpt lat="48.62326" lon="5.90146">
        <ele>242</ele>
        <time>2022-07-05T11:24:41Z</time>
      </trkpt>
      <trkpt lat="48.62325" lon="5.90159">
        <ele>241.6</ele>
        <time>2022-07-05T11:24:42Z</time>
      </trkpt>
      <trkpt lat="48.62323" lon="5.90172">
        <ele>241.4</ele>
        <time>2022-07-05T11:24:43Z</time>
      </trkpt>
      <trkpt lat="48.6232" lon="5.90184">
        <ele>240.8</ele>
        <time>2022-07-05T11:24:44Z</time>
      </trkpt>
      <trkpt lat="48.62317" lon="5.90197">
        <ele>240.6</ele>
        <time>2022-07-05T11:24:45Z</time>
      </trkpt>
      <trkpt lat="48.62314" lon="5.9021">
        <ele>240.4</ele>
        <time>2022-07-05T11:24:46Z</time>
      </trkpt>
      <trkpt lat="48.62303" lon="5.90246">
        <ele>239.2</ele>
        <time>2022-07-05T11:24:49Z</time>
      </trkpt>
      <trkpt lat="48.62302" lon="5.90259">
        <ele>239.2</ele>
        <time>2022-07-05T11:24:50Z</time>
      </trkpt>
      <trkpt lat="48.62303" lon="5.90271">
        <ele>239</ele>
        <time>2022-07-05T11:24:51Z</time>
      </trkpt>
      <trkpt lat="48.62306" lon="5.90283">
        <ele>238.8</ele>
        <time>2022-07-05T11:24:52Z</time>
      </trkpt>
      <trkpt lat="48.6231" lon="5.90292">
        <ele>238.8</ele>
        <time>2022-07-05T11:24:53Z</time>
      </trkpt>
      <trkpt lat="48.62314" lon="5.90301">
        <ele>238.6</ele>
        <time>2022-07-05T11:24:54Z</time>
      </trkpt>
      <trkpt lat="48.62326" lon="5.90326">
        <ele>238.4</ele>
        <time>2022-07-05T11:24:57Z</time>
      </trkpt>
      <trkpt lat="48.62359" lon="5.90377">
        <ele>239.6</ele>
        <time>2022-07-05T11:25:05Z</time>
      </trkpt>
      <trkpt lat="48.62414" lon="5.90422">
        <ele>236.2</ele>
        <time>2022-07-05T11:25:15Z</time>
      </trkpt>
      <trkpt lat="48.62431" lon="5.90434">
        <ele>235</ele>
        <time>2022-07-05T11:25:18Z</time>
      </trkpt>
      <trkpt lat="48.62486" lon="5.90466">
        <ele>233</ele>
        <time>2022-07-05T11:25:28Z</time>
      </trkpt>
      <trkpt lat="48.62544" lon="5.90494">
        <ele>231</ele>
        <time>2022-07-05T11:25:38Z</time>
      </trkpt>
      <trkpt lat="48.62603" lon="5.90521">
        <ele>230.6</ele>
        <time>2022-07-05T11:25:48Z</time>
      </trkpt>
      <trkpt lat="48.62655" lon="5.90551">
        <ele>228.2</ele>
        <time>2022-07-05T11:25:56Z</time>
      </trkpt>
      <trkpt lat="48.62703" lon="5.90614">
        <ele>227</ele>
        <time>2022-07-05T11:26:05Z</time>
      </trkpt>
      <trkpt lat="48.62739" lon="5.90682">
        <ele>225.8</ele>
        <time>2022-07-05T11:26:13Z</time>
      </trkpt>
      <trkpt lat="48.62767" lon="5.90734">
        <ele>224.2</ele>
        <time>2022-07-05T11:26:20Z</time>
      </trkpt>
      <trkpt lat="48.6277" lon="5.90742">
        <ele>224.4</ele>
        <time>2022-07-05T11:26:21Z</time>
      </trkpt>
      <trkpt lat="48.6277" lon="5.90751">
        <ele>224.4</ele>
        <time>2022-07-05T11:26:22Z</time>
      </trkpt>
      <trkpt lat="48.62768" lon="5.90759">
        <ele>224.4</ele>
        <time>2022-07-05T11:26:23Z</time>
      </trkpt>
      <trkpt lat="48.62766" lon="5.90767">
        <ele>224.4</ele>
        <time>2022-07-05T11:26:24Z</time>
      </trkpt>
      <trkpt lat="48.62763" lon="5.90775">
        <ele>224.2</ele>
        <time>2022-07-05T11:26:25Z</time>
      </trkpt>
      <trkpt lat="48.62742" lon="5.90854">
        <ele>225.2</ele>
        <time>2022-07-05T11:26:41Z</time>
      </trkpt>
      <trkpt lat="48.62741" lon="5.90872">
        <ele>224.4</ele>
        <time>2022-07-05T11:26:45Z</time>
      </trkpt>
      <trkpt lat="48.62742" lon="5.90876">
        <ele>224.2</ele>
        <time>2022-07-05T11:26:46Z</time>
      </trkpt>
      <trkpt lat="48.62745" lon="5.90878">
        <ele>224</ele>
        <time>2022-07-05T11:26:47Z</time>
      </trkpt>
      <trkpt lat="48.62749" lon="5.90879">
        <ele>223.8</ele>
        <time>2022-07-05T11:26:48Z</time>
      </trkpt>
      <trkpt lat="48.62752" lon="5.90878">
        <ele>223.6</ele>
        <time>2022-07-05T11:26:49Z</time>
      </trkpt>
      <trkpt lat="48.62756" lon="5.90876">
        <ele>223.4</ele>
        <time>2022-07-05T11:26:50Z</time>
      </trkpt>
      <trkpt lat="48.6276" lon="5.90872">
        <ele>223.2</ele>
        <time>2022-07-05T11:26:51Z</time>
      </trkpt>
      <trkpt lat="48.62777" lon="5.90859">
        <ele>223</ele>
        <time>2022-07-05T11:26:55Z</time>
      </trkpt>
      <trkpt lat="48.62782" lon="5.90857">
        <ele>223</ele>
        <time>2022-07-05T11:26:56Z</time>
      </trkpt>
      <trkpt lat="48.62787" lon="5.90856">
        <ele>223</ele>
        <time>2022-07-05T11:26:57Z</time>
      </trkpt>
      <trkpt lat="48.62793" lon="5.90855">
        <ele>223</ele>
        <time>2022-07-05T11:26:58Z</time>
      </trkpt>
      <trkpt lat="48.62798" lon="5.90855">
        <ele>223</ele>
        <time>2022-07-05T11:26:59Z</time>
      </trkpt>
      <trkpt lat="48.62804" lon="5.90856">
        <ele>223</ele>
        <time>2022-07-05T11:27:00Z</time>
      </trkpt>
      <trkpt lat="48.62863" lon="5.90861">
        <ele>222.8</ele>
        <time>2022-07-05T11:27:11Z</time>
      </trkpt>
      <trkpt lat="48.62919" lon="5.90864">
        <ele>223.2</ele>
        <time>2022-07-05T11:27:22Z</time>
      </trkpt>
      <trkpt lat="48.62976" lon="5.90869">
        <ele>224.4</ele>
        <time>2022-07-05T11:27:35Z</time>
      </trkpt>
      <trkpt lat="48.63035" lon="5.90877">
        <ele>224.8</ele>
        <time>2022-07-05T11:27:47Z</time>
      </trkpt>
      <trkpt lat="48.63094" lon="5.90873">
        <ele>224</ele>
        <time>2022-07-05T11:27:59Z</time>
      </trkpt>
      <trkpt lat="48.6314" lon="5.90849">
        <ele>223.4</ele>
        <time>2022-07-05T11:28:09Z</time>
      </trkpt>
      <trkpt lat="48.63164" lon="5.9083">
        <ele>223</ele>
        <time>2022-07-05T11:28:14Z</time>
      </trkpt>
      <trkpt lat="48.63213" lon="5.90785">
        <ele>222.6</ele>
        <time>2022-07-05T11:28:24Z</time>
      </trkpt>
      <trkpt lat="48.63218" lon="5.90783">
        <ele>222.6</ele>
        <time>2022-07-05T11:28:25Z</time>
      </trkpt>
      <trkpt lat="48.63223" lon="5.9078">
        <ele>222.8</ele>
        <time>2022-07-05T11:28:26Z</time>
      </trkpt>
      <trkpt lat="48.63235" lon="5.90777">
        <ele>222.8</ele>
        <time>2022-07-05T11:28:28Z</time>
      </trkpt>
      <trkpt lat="48.63241" lon="5.90778">
        <ele>222.8</ele>
        <time>2022-07-05T11:28:29Z</time>
      </trkpt>
      <trkpt lat="48.63268" lon="5.90785">
        <ele>223</ele>
        <time>2022-07-05T11:28:34Z</time>
      </trkpt>
      <trkpt lat="48.63319" lon="5.90819">
        <ele>222.6</ele>
        <time>2022-07-05T11:28:44Z</time>
      </trkpt>
      <trkpt lat="48.63375" lon="5.90855">
        <ele>222.8</ele>
        <time>2022-07-05T11:28:54Z</time>
      </trkpt>
      <trkpt lat="48.63432" lon="5.90889">
        <ele>222</ele>
        <time>2022-07-05T11:29:04Z</time>
      </trkpt>
      <trkpt lat="48.63487" lon="5.90922">
        <ele>222.4</ele>
        <time>2022-07-05T11:29:14Z</time>
      </trkpt>
      <trkpt lat="48.63543" lon="5.90954">
        <ele>221.8</ele>
        <time>2022-07-05T11:29:25Z</time>
      </trkpt>
      <trkpt lat="48.63585" lon="5.90954">
        <ele>222.2</ele>
        <time>2022-07-05T11:29:33Z</time>
      </trkpt>
      <trkpt lat="48.63637" lon="5.90917">
        <ele>222.6</ele>
        <time>2022-07-05T11:29:43Z</time>
      </trkpt>
      <trkpt lat="48.63688" lon="5.90872">
        <ele>220.4</ele>
        <time>2022-07-05T11:29:52Z</time>
      </trkpt>
      <trkpt lat="48.63715" lon="5.90831">
        <ele>218.4</ele>
        <time>2022-07-05T11:29:58Z</time>
      </trkpt>
      <trkpt lat="48.63739" lon="5.90772">
        <ele>218.8</ele>
        <time>2022-07-05T11:30:05Z</time>
      </trkpt>
      <trkpt lat="48.63768" lon="5.90693">
        <ele>221</ele>
        <time>2022-07-05T11:30:15Z</time>
      </trkpt>
      <trkpt lat="48.63773" lon="5.90678">
        <ele>222</ele>
        <time>2022-07-05T11:30:17Z</time>
      </trkpt>
      <trkpt lat="48.63807" lon="5.90602">
        <ele>222.6</ele>
        <time>2022-07-05T11:30:28Z</time>
      </trkpt>
      <trkpt lat="48.63811" lon="5.90597">
        <ele>222.6</ele>
        <time>2022-07-05T11:30:29Z</time>
      </trkpt>
      <trkpt lat="48.63833" lon="5.90575">
        <ele>223.4</ele>
        <time>2022-07-05T11:30:34Z</time>
      </trkpt>
      <trkpt lat="48.63888" lon="5.90563">
        <ele>222.4</ele>
        <time>2022-07-05T11:30:45Z</time>
      </trkpt>
      <trkpt lat="48.63946" lon="5.90557">
        <ele>221.2</ele>
        <time>2022-07-05T11:30:55Z</time>
      </trkpt>
      <trkpt lat="48.64004" lon="5.9055">
        <ele>220.6</ele>
        <time>2022-07-05T11:31:04Z</time>
      </trkpt>
      <trkpt lat="48.64065" lon="5.90544">
        <ele>219</ele>
        <time>2022-07-05T11:31:13Z</time>
      </trkpt>
      <trkpt lat="48.64125" lon="5.90537">
        <ele>218.6</ele>
        <time>2022-07-05T11:31:22Z</time>
      </trkpt>
      <trkpt lat="48.64184" lon="5.9053">
        <ele>218.8</ele>
        <time>2022-07-05T11:31:31Z</time>
      </trkpt>
      <trkpt lat="48.64191" lon="5.90528">
        <ele>218.6</ele>
        <time>2022-07-05T11:31:32Z</time>
      </trkpt>
      <trkpt lat="48.64227" lon="5.90505">
        <ele>218.4</ele>
        <time>2022-07-05T11:31:38Z</time>
      </trkpt>
      <trkpt lat="48.64233" lon="5.90499">
        <ele>218.6</ele>
        <time>2022-07-05T11:31:39Z</time>
      </trkpt>
      <trkpt lat="48.64282" lon="5.90438">
        <ele>217.8</ele>
        <time>2022-07-05T11:31:48Z</time>
      </trkpt>
      <trkpt lat="48.64332" lon="5.90376">
        <ele>216.8</ele>
        <time>2022-07-05T11:31:57Z</time>
      </trkpt>
      <trkpt lat="48.64378" lon="5.90319">
        <ele>216.6</ele>
        <time>2022-07-05T11:32:06Z</time>
      </trkpt>
      <trkpt lat="48.64421" lon="5.90256">
        <ele>217.2</ele>
        <time>2022-07-05T11:32:16Z</time>
      </trkpt>
      <trkpt lat="48.64433" lon="5.90237">
        <ele>214.8</ele>
        <time>2022-07-05T11:32:19Z</time>
      </trkpt>
      <trkpt lat="48.64473" lon="5.90176">
        <ele>215</ele>
        <time>2022-07-05T11:32:29Z</time>
      </trkpt>
      <trkpt lat="48.64514" lon="5.90116">
        <ele>214.4</ele>
        <time>2022-07-05T11:32:39Z</time>
      </trkpt>
      <trkpt lat="48.64532" lon="5.90088">
        <ele>214.8</ele>
        <time>2022-07-05T11:32:44Z</time>
      </trkpt>
      <trkpt lat="48.64536" lon="5.90084">
        <ele>214.6</ele>
        <time>2022-07-05T11:32:45Z</time>
      </trkpt>
      <trkpt lat="48.64541" lon="5.90083">
        <ele>214.8</ele>
        <time>2022-07-05T11:32:46Z</time>
      </trkpt>
      <trkpt lat="48.64546" lon="5.90084">
        <ele>214.8</ele>
        <time>2022-07-05T11:32:47Z</time>
      </trkpt>
      <trkpt lat="48.64549" lon="5.90089">
        <ele>215</ele>
        <time>2022-07-05T11:32:48Z</time>
      </trkpt>
      <trkpt lat="48.64552" lon="5.90096">
        <ele>215</ele>
        <time>2022-07-05T11:32:49Z</time>
      </trkpt>
      <trkpt lat="48.64553" lon="5.90103">
        <ele>215</ele>
        <time>2022-07-05T11:32:50Z</time>
      </trkpt>
      <trkpt lat="48.64554" lon="5.90112">
        <ele>214.8</ele>
        <time>2022-07-05T11:32:51Z</time>
      </trkpt>
      <trkpt lat="48.64554" lon="5.9012">
        <ele>214.6</ele>
        <time>2022-07-05T11:32:52Z</time>
      </trkpt>
      <trkpt lat="48.64553" lon="5.90128">
        <ele>214.6</ele>
        <time>2022-07-05T11:32:53Z</time>
      </trkpt>
      <trkpt lat="48.64553" lon="5.90136">
        <ele>214.4</ele>
        <time>2022-07-05T11:32:54Z</time>
      </trkpt>
      <trkpt lat="48.64553" lon="5.90161">
        <ele>214.2</ele>
        <time>2022-07-05T11:32:57Z</time>
      </trkpt>
      <trkpt lat="48.64555" lon="5.90179">
        <ele>214</ele>
        <time>2022-07-05T11:32:59Z</time>
      </trkpt>
      <trkpt lat="48.64557" lon="5.90187">
        <ele>213.8</ele>
        <time>2022-07-05T11:33:00Z</time>
      </trkpt>
      <trkpt lat="48.6456" lon="5.90194">
        <ele>213.8</ele>
        <time>2022-07-05T11:33:01Z</time>
      </trkpt>
      <trkpt lat="48.64565" lon="5.902">
        <ele>213.8</ele>
        <time>2022-07-05T11:33:02Z</time>
      </trkpt>
      <trkpt lat="48.6457" lon="5.90206">
        <ele>213.8</ele>
        <time>2022-07-05T11:33:03Z</time>
      </trkpt>
      <trkpt lat="48.64574" lon="5.90212">
        <ele>213.6</ele>
        <time>2022-07-05T11:33:04Z</time>
      </trkpt>
      <trkpt lat="48.64579" lon="5.90218">
        <ele>213.4</ele>
        <time>2022-07-05T11:33:05Z</time>
      </trkpt>
      <trkpt lat="48.64601" lon="5.90264">
        <ele>212.4</ele>
        <time>2022-07-05T11:33:11Z</time>
      </trkpt>
      <trkpt lat="48.64609" lon="5.90308">
        <ele>212.8</ele>
        <time>2022-07-05T11:33:16Z</time>
      </trkpt>
      <trkpt lat="48.64612" lon="5.90399">
        <ele>213.6</ele>
        <time>2022-07-05T11:33:26Z</time>
      </trkpt>
      <trkpt lat="48.64613" lon="5.90489">
        <ele>213.6</ele>
        <time>2022-07-05T11:33:36Z</time>
      </trkpt>
      <trkpt lat="48.64611" lon="5.90563">
        <ele>213.6</ele>
        <time>2022-07-05T11:33:44Z</time>
      </trkpt>
      <trkpt lat="48.64606" lon="5.90653">
        <ele>213.8</ele>
        <time>2022-07-05T11:33:54Z</time>
      </trkpt>
      <trkpt lat="48.64595" lon="5.90744">
        <ele>213.8</ele>
        <time>2022-07-05T11:34:04Z</time>
      </trkpt>
      <trkpt lat="48.64571" lon="5.90831">
        <ele>214.2</ele>
        <time>2022-07-05T11:34:14Z</time>
      </trkpt>
      <trkpt lat="48.64542" lon="5.90913">
        <ele>214.4</ele>
        <time>2022-07-05T11:34:24Z</time>
      </trkpt>
      <trkpt lat="48.64526" lon="5.91001">
        <ele>213.6</ele>
        <time>2022-07-05T11:34:34Z</time>
      </trkpt>
      <trkpt lat="48.64508" lon="5.91088">
        <ele>214</ele>
        <time>2022-07-05T11:34:44Z</time>
      </trkpt>
      <trkpt lat="48.64487" lon="5.91174">
        <ele>214.2</ele>
        <time>2022-07-05T11:34:54Z</time>
      </trkpt>
      <trkpt lat="48.64471" lon="5.91253">
        <ele>214.2</ele>
        <time>2022-07-05T11:35:03Z</time>
      </trkpt>
      <trkpt lat="48.64469" lon="5.91261">
        <ele>214.2</ele>
        <time>2022-07-05T11:35:04Z</time>
      </trkpt>
      <trkpt lat="48.64468" lon="5.9127">
        <ele>214.2</ele>
        <time>2022-07-05T11:35:05Z</time>
      </trkpt>
      <trkpt lat="48.64452" lon="5.91361">
        <ele>214.2</ele>
        <time>2022-07-05T11:35:15Z</time>
      </trkpt>
      <trkpt lat="48.6445" lon="5.9137">
        <ele>214</ele>
        <time>2022-07-05T11:35:16Z</time>
      </trkpt>
      <trkpt lat="48.6443" lon="5.91456">
        <ele>214.6</ele>
        <time>2022-07-05T11:35:26Z</time>
      </trkpt>
      <trkpt lat="48.64413" lon="5.91515">
        <ele>213.8</ele>
        <time>2022-07-05T11:35:33Z</time>
      </trkpt>
      <trkpt lat="48.6441" lon="5.91523">
        <ele>213.8</ele>
        <time>2022-07-05T11:35:34Z</time>
      </trkpt>
      <trkpt lat="48.64381" lon="5.91603">
        <ele>214.4</ele>
        <time>2022-07-05T11:35:44Z</time>
      </trkpt>
      <trkpt lat="48.64378" lon="5.91611">
        <ele>214.4</ele>
        <time>2022-07-05T11:35:45Z</time>
      </trkpt>
      <trkpt lat="48.6435" lon="5.9169">
        <ele>214.4</ele>
        <time>2022-07-05T11:35:55Z</time>
      </trkpt>
      <trkpt lat="48.64328" lon="5.91772">
        <ele>214.6</ele>
        <time>2022-07-05T11:36:05Z</time>
      </trkpt>
      <trkpt lat="48.64304" lon="5.91855">
        <ele>215</ele>
        <time>2022-07-05T11:36:15Z</time>
      </trkpt>
      <trkpt lat="48.64292" lon="5.91895">
        <ele>215</ele>
        <time>2022-07-05T11:36:20Z</time>
      </trkpt>
      <trkpt lat="48.64265" lon="5.91978">
        <ele>214.6</ele>
        <time>2022-07-05T11:36:31Z</time>
      </trkpt>
      <trkpt lat="48.64253" lon="5.92014">
        <ele>217.6</ele>
        <time>2022-07-05T11:36:36Z</time>
      </trkpt>
      <trkpt lat="48.64231" lon="5.92097">
        <ele>218.4</ele>
        <time>2022-07-05T11:36:48Z</time>
      </trkpt>
      <trkpt lat="48.6422" lon="5.92147">
        <ele>219.6</ele>
        <time>2022-07-05T11:36:57Z</time>
      </trkpt>
      <trkpt lat="48.64196" lon="5.92229">
        <ele>220.4</ele>
        <time>2022-07-05T11:37:11Z</time>
      </trkpt>
      <trkpt lat="48.64179" lon="5.92318">
        <ele>218.8</ele>
        <time>2022-07-05T11:37:23Z</time>
      </trkpt>
      <trkpt lat="48.64179" lon="5.92326">
        <ele>218.6</ele>
        <time>2022-07-05T11:37:24Z</time>
      </trkpt>
      <trkpt lat="48.6418" lon="5.92335">
        <ele>218.6</ele>
        <time>2022-07-05T11:37:25Z</time>
      </trkpt>
      <trkpt lat="48.64181" lon="5.92344">
        <ele>218.8</ele>
        <time>2022-07-05T11:37:26Z</time>
      </trkpt>
      <trkpt lat="48.64198" lon="5.92433">
        <ele>219</ele>
        <time>2022-07-05T11:37:36Z</time>
      </trkpt>
      <trkpt lat="48.64207" lon="5.92478">
        <ele>218.2</ele>
        <time>2022-07-05T11:37:41Z</time>
      </trkpt>
      <trkpt lat="48.6422" lon="5.92565">
        <ele>217.6</ele>
        <time>2022-07-05T11:37:51Z</time>
      </trkpt>
      <trkpt lat="48.6423" lon="5.92635">
        <ele>218</ele>
        <time>2022-07-05T11:37:59Z</time>
      </trkpt>
      <trkpt lat="48.64248" lon="5.92719">
        <ele>218.4</ele>
        <time>2022-07-05T11:38:10Z</time>
      </trkpt>
      <trkpt lat="48.64283" lon="5.92791">
        <ele>218</ele>
        <time>2022-07-05T11:38:20Z</time>
      </trkpt>
      <trkpt lat="48.64318" lon="5.92866">
        <ele>217.6</ele>
        <time>2022-07-05T11:38:31Z</time>
      </trkpt>
      <trkpt lat="48.64336" lon="5.92951">
        <ele>217</ele>
        <time>2022-07-05T11:38:42Z</time>
      </trkpt>
      <trkpt lat="48.64339" lon="5.92977">
        <ele>216.2</ele>
        <time>2022-07-05T11:38:45Z</time>
      </trkpt>
      <trkpt lat="48.64334" lon="5.93067">
        <ele>217.6</ele>
        <time>2022-07-05T11:38:56Z</time>
      </trkpt>
      <trkpt lat="48.64324" lon="5.93151">
        <ele>217.2</ele>
        <time>2022-07-05T11:39:06Z</time>
      </trkpt>
      <trkpt lat="48.6432" lon="5.93191">
        <ele>217.6</ele>
        <time>2022-07-05T11:39:11Z</time>
      </trkpt>
      <trkpt lat="48.64321" lon="5.93264">
        <ele>218</ele>
        <time>2022-07-05T11:39:20Z</time>
      </trkpt>
      <trkpt lat="48.64322" lon="5.93353">
        <ele>219.4</ele>
        <time>2022-07-05T11:39:33Z</time>
      </trkpt>
      <trkpt lat="48.64339" lon="5.93436">
        <ele>218</ele>
        <time>2022-07-05T11:39:45Z</time>
      </trkpt>
      <trkpt lat="48.64348" lon="5.93478">
        <ele>217</ele>
        <time>2022-07-05T11:39:50Z</time>
      </trkpt>
      <trkpt lat="48.64349" lon="5.93487">
        <ele>216.8</ele>
        <time>2022-07-05T11:39:51Z</time>
      </trkpt>
      <trkpt lat="48.64348" lon="5.93575">
        <ele>215.6</ele>
        <time>2022-07-05T11:40:01Z</time>
      </trkpt>
      <trkpt lat="48.64345" lon="5.93663">
        <ele>216.2</ele>
        <time>2022-07-05T11:40:11Z</time>
      </trkpt>
      <trkpt lat="48.64342" lon="5.93728">
        <ele>218</ele>
        <time>2022-07-05T11:40:19Z</time>
      </trkpt>
      <trkpt lat="48.64331" lon="5.93816">
        <ele>219.2</ele>
        <time>2022-07-05T11:40:31Z</time>
      </trkpt>
      <trkpt lat="48.64328" lon="5.93906">
        <ele>219.2</ele>
        <time>2022-07-05T11:40:42Z</time>
      </trkpt>
      <trkpt lat="48.64326" lon="5.93948">
        <ele>219.4</ele>
        <time>2022-07-05T11:40:47Z</time>
      </trkpt>
      <trkpt lat="48.64324" lon="5.93956">
        <ele>219.4</ele>
        <time>2022-07-05T11:40:48Z</time>
      </trkpt>
      <trkpt lat="48.64311" lon="5.94045">
        <ele>219</ele>
        <time>2022-07-05T11:40:59Z</time>
      </trkpt>
      <trkpt lat="48.64305" lon="5.94134">
        <ele>218.4</ele>
        <time>2022-07-05T11:41:09Z</time>
      </trkpt>
      <trkpt lat="48.64298" lon="5.94224">
        <ele>219</ele>
        <time>2022-07-05T11:41:19Z</time>
      </trkpt>
      <trkpt lat="48.64296" lon="5.9431">
        <ele>220</ele>
        <time>2022-07-05T11:41:30Z</time>
      </trkpt>
      <trkpt lat="48.64293" lon="5.94399">
        <ele>220.4</ele>
        <time>2022-07-05T11:41:43Z</time>
      </trkpt>
      <trkpt lat="48.64292" lon="5.94486">
        <ele>218.6</ele>
        <time>2022-07-05T11:41:54Z</time>
      </trkpt>
      <trkpt lat="48.64292" lon="5.94562">
        <ele>218.4</ele>
        <time>2022-07-05T11:42:03Z</time>
      </trkpt>
      <trkpt lat="48.64292" lon="5.94625">
        <ele>218.2</ele>
        <time>2022-07-05T11:42:10Z</time>
      </trkpt>
      <trkpt lat="48.64293" lon="5.94679">
        <ele>218</ele>
        <time>2022-07-05T11:42:16Z</time>
      </trkpt>
      <trkpt lat="48.64293" lon="5.94766">
        <ele>218.4</ele>
        <time>2022-07-05T11:42:26Z</time>
      </trkpt>
      <trkpt lat="48.64295" lon="5.94826">
        <ele>217.6</ele>
        <time>2022-07-05T11:42:33Z</time>
      </trkpt>
      <trkpt lat="48.64296" lon="5.94834">
        <ele>217.8</ele>
        <time>2022-07-05T11:42:34Z</time>
      </trkpt>
      <trkpt lat="48.64298" lon="5.94887">
        <ele>218.2</ele>
        <time>2022-07-05T11:42:40Z</time>
      </trkpt>
      <trkpt lat="48.64302" lon="5.94974">
        <ele>218.8</ele>
        <time>2022-07-05T11:42:50Z</time>
      </trkpt>
      <trkpt lat="48.64303" lon="5.94983">
        <ele>218.6</ele>
        <time>2022-07-05T11:42:51Z</time>
      </trkpt>
      <trkpt lat="48.64309" lon="5.95034">
        <ele>218.6</ele>
        <time>2022-07-05T11:42:57Z</time>
      </trkpt>
      <trkpt lat="48.64316" lon="5.95095">
        <ele>218.4</ele>
        <time>2022-07-05T11:43:04Z</time>
      </trkpt>
      <trkpt lat="48.64317" lon="5.95104">
        <ele>218.6</ele>
        <time>2022-07-05T11:43:05Z</time>
      </trkpt>
      <trkpt lat="48.64327" lon="5.95192">
        <ele>218.8</ele>
        <time>2022-07-05T11:43:15Z</time>
      </trkpt>
      <trkpt lat="48.64334" lon="5.95246">
        <ele>218.8</ele>
        <time>2022-07-05T11:43:21Z</time>
      </trkpt>
      <trkpt lat="48.64347" lon="5.95335">
        <ele>218.6</ele>
        <time>2022-07-05T11:43:31Z</time>
      </trkpt>
      <trkpt lat="48.6435" lon="5.95352">
        <ele>218.8</ele>
        <time>2022-07-05T11:43:33Z</time>
      </trkpt>
      <trkpt lat="48.64351" lon="5.95361">
        <ele>219</ele>
        <time>2022-07-05T11:43:34Z</time>
      </trkpt>
      <trkpt lat="48.64366" lon="5.95446">
        <ele>218.6</ele>
        <time>2022-07-05T11:43:44Z</time>
      </trkpt>
      <trkpt lat="48.64374" lon="5.95535">
        <ele>219.2</ele>
        <time>2022-07-05T11:43:54Z</time>
      </trkpt>
      <trkpt lat="48.64383" lon="5.95625">
        <ele>219.2</ele>
        <time>2022-07-05T11:44:04Z</time>
      </trkpt>
      <trkpt lat="48.64393" lon="5.95714">
        <ele>218.6</ele>
        <time>2022-07-05T11:44:14Z</time>
      </trkpt>
      <trkpt lat="48.64402" lon="5.9578">
        <ele>218.4</ele>
        <time>2022-07-05T11:44:22Z</time>
      </trkpt>
      <trkpt lat="48.64403" lon="5.95788">
        <ele>218.2</ele>
        <time>2022-07-05T11:44:23Z</time>
      </trkpt>
      <trkpt lat="48.64405" lon="5.95797">
        <ele>218.2</ele>
        <time>2022-07-05T11:44:24Z</time>
      </trkpt>
      <trkpt lat="48.64406" lon="5.95823">
        <ele>218</ele>
        <time>2022-07-05T11:44:27Z</time>
      </trkpt>
      <trkpt lat="48.64413" lon="5.95883">
        <ele>218.2</ele>
        <time>2022-07-05T11:44:34Z</time>
      </trkpt>
      <trkpt lat="48.64418" lon="5.95908">
        <ele>218.2</ele>
        <time>2022-07-05T11:44:37Z</time>
      </trkpt>
      <trkpt lat="48.6442" lon="5.95915">
        <ele>218.2</ele>
        <time>2022-07-05T11:44:38Z</time>
      </trkpt>
      <trkpt lat="48.64422" lon="5.95932">
        <ele>218.2</ele>
        <time>2022-07-05T11:44:40Z</time>
      </trkpt>
      <trkpt lat="48.64424" lon="5.9594">
        <ele>218</ele>
        <time>2022-07-05T11:44:41Z</time>
      </trkpt>
      <trkpt lat="48.64429" lon="5.95964">
        <ele>218</ele>
        <time>2022-07-05T11:44:44Z</time>
      </trkpt>
      <trkpt lat="48.64456" lon="5.96047">
        <ele>217.2</ele>
        <time>2022-07-05T11:44:54Z</time>
      </trkpt>
      <trkpt lat="48.64481" lon="5.96134">
        <ele>217.4</ele>
        <time>2022-07-05T11:45:05Z</time>
      </trkpt>
      <trkpt lat="48.64504" lon="5.96221">
        <ele>218.8</ele>
        <time>2022-07-05T11:45:16Z</time>
      </trkpt>
      <trkpt lat="48.64508" lon="5.96237">
        <ele>218.8</ele>
        <time>2022-07-05T11:45:18Z</time>
      </trkpt>
      <trkpt lat="48.64531" lon="5.96318">
        <ele>218.8</ele>
        <time>2022-07-05T11:45:28Z</time>
      </trkpt>
      <trkpt lat="48.64544" lon="5.96357">
        <ele>218.4</ele>
        <time>2022-07-05T11:45:33Z</time>
      </trkpt>
      <trkpt lat="48.64547" lon="5.96366">
        <ele>218.4</ele>
        <time>2022-07-05T11:45:34Z</time>
      </trkpt>
      <trkpt lat="48.64562" lon="5.96414">
        <ele>218.4</ele>
        <time>2022-07-05T11:45:40Z</time>
      </trkpt>
      <trkpt lat="48.64582" lon="5.96478">
        <ele>218.6</ele>
        <time>2022-07-05T11:45:48Z</time>
      </trkpt>
      <trkpt lat="48.6459" lon="5.96504">
        <ele>218.6</ele>
        <time>2022-07-05T11:45:51Z</time>
      </trkpt>
      <trkpt lat="48.64606" lon="5.96554">
        <ele>218.6</ele>
        <time>2022-07-05T11:45:57Z</time>
      </trkpt>
      <trkpt lat="48.64609" lon="5.96562">
        <ele>218.8</ele>
        <time>2022-07-05T11:45:58Z</time>
      </trkpt>
      <trkpt lat="48.64614" lon="5.96576">
        <ele>219.6</ele>
        <time>2022-07-05T11:46:00Z</time>
      </trkpt>
      <trkpt lat="48.64624" lon="5.96597">
        <ele>220</ele>
        <time>2022-07-05T11:46:03Z</time>
      </trkpt>
      <trkpt lat="48.64665" lon="5.96667">
        <ele>219.4</ele>
        <time>2022-07-05T11:46:14Z</time>
      </trkpt>
      <trkpt lat="48.64669" lon="5.96675">
        <ele>219.2</ele>
        <time>2022-07-05T11:46:15Z</time>
      </trkpt>
      <trkpt lat="48.64696" lon="5.9676">
        <ele>219.4</ele>
        <time>2022-07-05T11:46:26Z</time>
      </trkpt>
      <trkpt lat="48.64717" lon="5.96826">
        <ele>219.2</ele>
        <time>2022-07-05T11:46:35Z</time>
      </trkpt>
      <trkpt lat="48.64719" lon="5.96833">
        <ele>219.4</ele>
        <time>2022-07-05T11:46:36Z</time>
      </trkpt>
      <trkpt lat="48.64744" lon="5.96913">
        <ele>219.8</ele>
        <time>2022-07-05T11:46:47Z</time>
      </trkpt>
      <trkpt lat="48.64766" lon="5.96978">
        <ele>219</ele>
        <time>2022-07-05T11:46:56Z</time>
      </trkpt>
      <trkpt lat="48.64787" lon="5.97061">
        <ele>219</ele>
        <time>2022-07-05T11:47:07Z</time>
      </trkpt>
      <trkpt lat="48.64807" lon="5.97144">
        <ele>219.2</ele>
        <time>2022-07-05T11:47:18Z</time>
      </trkpt>
      <trkpt lat="48.64814" lon="5.97167">
        <ele>219.4</ele>
        <time>2022-07-05T11:47:21Z</time>
      </trkpt>
      <trkpt lat="48.64821" lon="5.97189">
        <ele>219.6</ele>
        <time>2022-07-05T11:47:24Z</time>
      </trkpt>
      <trkpt lat="48.64834" lon="5.97234">
        <ele>220</ele>
        <time>2022-07-05T11:47:30Z</time>
      </trkpt>
      <trkpt lat="48.64836" lon="5.97242">
        <ele>220</ele>
        <time>2022-07-05T11:47:31Z</time>
      </trkpt>
      <trkpt lat="48.64861" lon="5.97324">
        <ele>219.4</ele>
        <time>2022-07-05T11:47:42Z</time>
      </trkpt>
      <trkpt lat="48.64875" lon="5.97374">
        <ele>219.6</ele>
        <time>2022-07-05T11:47:49Z</time>
      </trkpt>
      <trkpt lat="48.64878" lon="5.97382">
        <ele>219.6</ele>
        <time>2022-07-05T11:47:50Z</time>
      </trkpt>
      <trkpt lat="48.64883" lon="5.97396">
        <ele>219.8</ele>
        <time>2022-07-05T11:47:52Z</time>
      </trkpt>
      <trkpt lat="48.64887" lon="5.97402">
        <ele>220.4</ele>
        <time>2022-07-05T11:47:53Z</time>
      </trkpt>
      <trkpt lat="48.6489" lon="5.97407">
        <ele>221.2</ele>
        <time>2022-07-05T11:47:54Z</time>
      </trkpt>
      <trkpt lat="48.64894" lon="5.97411">
        <ele>221.4</ele>
        <time>2022-07-05T11:47:55Z</time>
      </trkpt>
      <trkpt lat="48.64897" lon="5.97413">
        <ele>222</ele>
        <time>2022-07-05T11:47:56Z</time>
      </trkpt>
      <trkpt lat="48.64901" lon="5.97414">
        <ele>222.4</ele>
        <time>2022-07-05T11:47:57Z</time>
      </trkpt>
      <trkpt lat="48.64904" lon="5.97415">
        <ele>222.6</ele>
        <time>2022-07-05T11:47:58Z</time>
      </trkpt>
      <trkpt lat="48.64907" lon="5.97415">
        <ele>222.8</ele>
        <time>2022-07-05T11:47:59Z</time>
      </trkpt>
      <trkpt lat="48.6491" lon="5.97414">
        <ele>223</ele>
        <time>2022-07-05T11:48:00Z</time>
      </trkpt>
      <trkpt lat="48.64913" lon="5.97413">
        <ele>223</ele>
        <time>2022-07-05T11:48:01Z</time>
      </trkpt>
      <trkpt lat="48.64968" lon="5.97384">
        <ele>223.6</ele>
        <time>2022-07-05T11:48:20Z</time>
      </trkpt>
      <trkpt lat="48.64981" lon="5.97398">
        <ele>223.6</ele>
        <time>2022-07-05T11:48:24Z</time>
      </trkpt>
      <trkpt lat="48.64983" lon="5.97404">
        <ele>223.6</ele>
        <time>2022-07-05T11:48:25Z</time>
      </trkpt>
      <trkpt lat="48.64985" lon="5.9741">
        <ele>223.6</ele>
        <time>2022-07-05T11:48:26Z</time>
      </trkpt>
      <trkpt lat="48.65007" lon="5.97496">
        <ele>223.8</ele>
        <time>2022-07-05T11:48:39Z</time>
      </trkpt>
      <trkpt lat="48.65029" lon="5.97578">
        <ele>223.8</ele>
        <time>2022-07-05T11:48:51Z</time>
      </trkpt>
      <trkpt lat="48.6505" lon="5.97658">
        <ele>223.6</ele>
        <time>2022-07-05T11:49:02Z</time>
      </trkpt>
      <trkpt lat="48.65062" lon="5.97744">
        <ele>223.8</ele>
        <time>2022-07-05T11:49:13Z</time>
      </trkpt>
      <trkpt lat="48.65078" lon="5.97824">
        <ele>225.2</ele>
        <time>2022-07-05T11:49:26Z</time>
      </trkpt>
      <trkpt lat="48.65133" lon="5.97817">
        <ele>227.6</ele>
        <time>2022-07-05T11:49:47Z</time>
      </trkpt>
      <trkpt lat="48.65173" lon="5.97801">
        <ele>227.6</ele>
        <time>2022-07-05T11:50:01Z</time>
      </trkpt>
      <trkpt lat="48.65175" lon="5.97801">
        <ele>227.4</ele>
        <time>2022-07-05T11:50:02Z</time>
      </trkpt>
      <trkpt lat="48.65175" lon="5.97801">
        <ele>227.6</ele>
        <time>2022-07-05T11:50:10Z</time>
      </trkpt>
      <trkpt lat="48.65188" lon="5.97789">
        <ele>227.6</ele>
        <time>2022-07-05T11:51:05Z</time>
      </trkpt>
      <trkpt lat="48.6519" lon="5.97789">
        <ele>227.8</ele>
        <time>2022-07-05T11:51:06Z</time>
      </trkpt>
      <trkpt lat="48.65213" lon="5.97803">
        <ele>227</ele>
        <time>2022-07-05T11:51:14Z</time>
      </trkpt>
      <trkpt lat="48.65216" lon="5.97809">
        <ele>226.6</ele>
        <time>2022-07-05T11:51:15Z</time>
      </trkpt>
      <trkpt lat="48.65219" lon="5.97817">
        <ele>226.2</ele>
        <time>2022-07-05T11:51:16Z</time>
      </trkpt>
      <trkpt lat="48.65231" lon="5.97876">
        <ele>224.6</ele>
        <time>2022-07-05T11:51:22Z</time>
      </trkpt>
      <trkpt lat="48.65246" lon="5.97966">
        <ele>224</ele>
        <time>2022-07-05T11:51:31Z</time>
      </trkpt>
      <trkpt lat="48.65259" lon="5.98055">
        <ele>223.8</ele>
        <time>2022-07-05T11:51:42Z</time>
      </trkpt>
      <trkpt lat="48.65266" lon="5.98145">
        <ele>224.6</ele>
        <time>2022-07-05T11:51:54Z</time>
      </trkpt>
      <trkpt lat="48.65269" lon="5.98236">
        <ele>224.4</ele>
        <time>2022-07-05T11:52:06Z</time>
      </trkpt>
      <trkpt lat="48.6527" lon="5.98324">
        <ele>224</ele>
        <time>2022-07-05T11:52:18Z</time>
      </trkpt>
      <trkpt lat="48.65268" lon="5.9837">
        <ele>223.8</ele>
        <time>2022-07-05T11:52:24Z</time>
      </trkpt>
      <trkpt lat="48.65267" lon="5.98378">
        <ele>223.8</ele>
        <time>2022-07-05T11:52:25Z</time>
      </trkpt>
      <trkpt lat="48.65264" lon="5.98449">
        <ele>224</ele>
        <time>2022-07-05T11:52:34Z</time>
      </trkpt>
      <trkpt lat="48.65263" lon="5.9854">
        <ele>224</ele>
        <time>2022-07-05T11:52:45Z</time>
      </trkpt>
      <trkpt lat="48.65262" lon="5.98599">
        <ele>224</ele>
        <time>2022-07-05T11:52:52Z</time>
      </trkpt>
      <trkpt lat="48.65256" lon="5.98688">
        <ele>224.4</ele>
        <time>2022-07-05T11:53:04Z</time>
      </trkpt>
      <trkpt lat="48.65255" lon="5.98708">
        <ele>224.4</ele>
        <time>2022-07-05T11:53:07Z</time>
      </trkpt>
      <trkpt lat="48.65255" lon="5.98715">
        <ele>224.4</ele>
        <time>2022-07-05T11:53:08Z</time>
      </trkpt>
      <trkpt lat="48.65255" lon="5.98721">
        <ele>224.4</ele>
        <time>2022-07-05T11:53:09Z</time>
      </trkpt>
      <trkpt lat="48.65255" lon="5.98734">
        <ele>224.4</ele>
        <time>2022-07-05T11:53:11Z</time>
      </trkpt>
      <trkpt lat="48.65256" lon="5.9874">
        <ele>224.4</ele>
        <time>2022-07-05T11:53:12Z</time>
      </trkpt>
      <trkpt lat="48.65257" lon="5.98753">
        <ele>224.4</ele>
        <time>2022-07-05T11:53:14Z</time>
      </trkpt>
      <trkpt lat="48.65259" lon="5.9884">
        <ele>224.4</ele>
        <time>2022-07-05T11:53:29Z</time>
      </trkpt>
      <trkpt lat="48.6526" lon="5.98929">
        <ele>224.2</ele>
        <time>2022-07-05T11:53:43Z</time>
      </trkpt>
      <trkpt lat="48.65266" lon="5.99018">
        <ele>224.6</ele>
        <time>2022-07-05T11:53:56Z</time>
      </trkpt>
      <trkpt lat="48.6527" lon="5.99052">
        <ele>224.4</ele>
        <time>2022-07-05T11:54:01Z</time>
      </trkpt>
      <trkpt lat="48.65276" lon="5.99115">
        <ele>224.6</ele>
        <time>2022-07-05T11:54:10Z</time>
      </trkpt>
      <trkpt lat="48.65281" lon="5.99152">
        <ele>224.4</ele>
        <time>2022-07-05T11:54:16Z</time>
      </trkpt>
      <trkpt lat="48.65295" lon="5.99236">
        <ele>224.2</ele>
        <time>2022-07-05T11:54:32Z</time>
      </trkpt>
      <trkpt lat="48.65295" lon="5.99239">
        <ele>224.2</ele>
        <time>2022-07-05T11:54:33Z</time>
      </trkpt>
      <trkpt lat="48.65294" lon="5.99243">
        <ele>224.2</ele>
        <time>2022-07-05T11:54:34Z</time>
      </trkpt>
      <trkpt lat="48.65292" lon="5.99245">
        <ele>224.2</ele>
        <time>2022-07-05T11:54:35Z</time>
      </trkpt>
      <trkpt lat="48.65291" lon="5.99247">
        <ele>224.2</ele>
        <time>2022-07-05T11:54:36Z</time>
      </trkpt>
      <trkpt lat="48.6529" lon="5.99249">
        <ele>224.2</ele>
        <time>2022-07-05T11:54:37Z</time>
      </trkpt>
      <trkpt lat="48.65289" lon="5.99251">
        <ele>224.2</ele>
        <time>2022-07-05T11:54:38Z</time>
      </trkpt>
      <trkpt lat="48.65289" lon="5.99253">
        <ele>224.2</ele>
        <time>2022-07-05T11:54:39Z</time>
      </trkpt>
      <trkpt lat="48.65289" lon="5.99254">
        <ele>224</ele>
        <time>2022-07-05T11:54:40Z</time>
      </trkpt>
      <trkpt lat="48.6529" lon="5.99256">
        <ele>224.2</ele>
        <time>2022-07-05T11:54:41Z</time>
      </trkpt>
      <trkpt lat="48.6529" lon="5.99257">
        <ele>224.2</ele>
        <time>2022-07-05T11:54:42Z</time>
      </trkpt>
      <trkpt lat="48.6529" lon="5.99259">
        <ele>224.2</ele>
        <time>2022-07-05T11:54:43Z</time>
      </trkpt>
      <trkpt lat="48.65289" lon="5.9926">
        <ele>224</ele>
        <time>2022-07-05T11:54:44Z</time>
      </trkpt>
      <trkpt lat="48.65287" lon="5.99261">
        <ele>224</ele>
        <time>2022-07-05T11:54:45Z</time>
      </trkpt>
      <trkpt lat="48.65287" lon="5.99261">
        <ele>224</ele>
        <time>2022-07-05T11:54:46Z</time>
      </trkpt>
      <trkpt lat="48.65286" lon="5.99262">
        <ele>224.2</ele>
        <time>2022-07-05T11:54:52Z</time>
      </trkpt>
    </trkseg>
  </trk>
</gpx>